[[{"header":{"parameterUnit":"m.s-1","parameterCategory":1,"la1":30.6,"la2":28.766,"lo1":-90.7593,"lo2":-88.6598,"dy":0.0162,"dx":0.0183,"nx":116,"ny":114,"refTime":"2023-08-01T12:00:00:Z","depth":0,"parameterNumber":2,"parameterNumberName":"U-component_of_WINDS"},"data":[0.0,0.0,0.0,0.0,0.0,0.0,0.0,0.0,0.0,0.0,0.0,0.0,0.0,0.0,0.0,0.0,0.0,0.0,0.0,0.0,0.0,0.0,0.0,0.0,0.0,0.0,0.0,0.0,0.0,0.0,0.0,0.0,0.0,0.0,0.0,0.0,0.0,0.0,0.0,0.0,0.0,0.0,0.0,0.0,0.0,0.0,0.0,0.0,0.0,0.0,0.0,0.0,0.0,0.0,0.0,0.0,0.0,0.0,0.0,0.0,0.0,0.0,0.0,0.0,0.0,0.0,0.0,0.0,0.0,0.0,0.0,0.0,0.0,0.0,0.0,0.0,0.0,0.0,0.0,0.0,0.0,0.0,0.0,0.0,0.0,0.0,0.0,0.0,0.0,0.0,0.0,0.0,0.0,0.0,0.0,0.0,0.0,0.0,0.0,0.0,0.0,0.0,0.0,0.0,0.0,0.0,0.0,0.0,0.0,0.0,0.0,0.0,0.0,0.0,0.0,0.0,0.0,0.0,0.0,0.0,0.0,0.0,0.0,0.0,0.0,0.0,0.0,0.0,0.0,0.0,0.0,0.0,0.0,0.0,0.0,0.0,0.0,0.0,0.0,0.0,0.0,0.0,0.0,0.0,0.0,0.0,0.0,0.0,0.0,0.0,0.0,0.0,0.0,0.0,0.0,0.0,0.0,0.0,0.0,0.0,0.0,0.0,0.0,0.0,0.0,0.0,0.0,0.0,0.0,0.0,0.0,0.0,0.0,0.0,0.0,0.0,0.0,0.0,0.0,0.0,0.0,0.0,0.0,0.0,0.0,0.0,0.0,0.0,0.0,0.0,0.0,0.0,0.0,0.0,0.0,0.0,0.0,0.0,0.0,0.0,0.0,0.0,0.0,0.0,0.0,0.0,0.0,0.0,0.0,0.0,0.0,0.0,0.0,0.0,0.0,0.0,0.0,0.0,0.0,0.0,0.0,0.0,0.0,0.0,0.0,0.0,0.0,0.0,0.0,0.0,0.0,0.0,0.0,0.0,0.0,0.0,0.0,0.0,0.0,0.0,0.0,0.0,0.0,0.0,0.0,0.0,0.0,0.0,0.0,0.0,0.0,0.0,0.0,0.0,0.0,0.0,0.0,0.0,0.0,0.0,0.0,0.0,0.0,0.0,0.0,0.0,0.0,0.0,0.0,0.0,0.0,0.0,0.0,0.0,0.0,0.0,0.0,0.0,0.0,0.0,0.0,0.0,0.0,0.0,0.0,0.0,0.0,0.0,0.0,0.0,0.0,0.0,0.0,0.0,0.0,0.0,0.0,0.0,0.0,0.0,0.0,0.0,0.0,0.0,0.0,0.0,0.0,0.0,0.0,0.0,0.0,0.0,0.0,0.0,0.0,0.0,0.0,0.0,0.0,0.0,0.0,0.0,0.0,0.0,0.0,0.0,0.0,0.0,0.0,0.0,0.0,0.0,0.0,0.0,0.0,0.0,0.0,0.0,0.0,0.0,0.0,0.0,0.0,0.0,0.0,0.0,0.0,0.0,0.0,0.0,0.0,0.0,0.0,0.0,0.0,0.0,0.0,0.0,0.0,0.0,0.0,0.0,0.0,0.0,0.0,0.0,0.0,0.0,0.0,0.0,0.0,0.0,0.0,0.0,0.0,0.0,0.0,0.0,0.0,0.0,0.0,0.0,0.0,0.0,0.0,0.0,0.0,0.0,0.0,0.0,0.0,0.0,0.0,0.0,0.0,0.0,0.0,0.0,0.0,0.0,0.0,0.0,0.0,0.0,0.0,0.0,0.0,0.0,0.0,0.0,0.0,0.0,0.0,0.0,0.0,0.0,0.0,0.0,0.0,0.0,0.0,0.0,0.0,0.0,0.0,0.0,0.0,0.0,0.0,0.0,0.0,0.0,0.0,0.0,0.0,0.0,0.0,0.0,0.0,0.0,0.0,0.0,0.0,0.0,0.0,0.0,0.0,0.0,0.0,0.0,0.0,0.0,0.0,0.0,0.0,0.0,0.0,0.0,0.0,0.0,0.0,0.0,0.0,0.0,0.0,0.0,0.0,0.0,0.0,0.0,0.0,0.0,0.0,0.0,0.0,0.0,0.0,0.0,0.0,0.0,0.0,0.0,0.0,0.0,0.0,0.0,0.0,0.0,0.0,0.0,0.0,0.0,0.0,0.0,0.0,0.0,0.0,0.0,0.0,0.0,0.0,0.0,0.0,0.0,0.0,0.0,0.0,0.0,0.0,0.0,0.0,0.0,0.0,0.0,0.0,0.0,0.0,0.0,0.0,0.0,0.0,0.0,0.0,0.0,0.0,0.0,0.0,0.0,0.0,0.0,0.0,0.0,0.0,0.0,0.0,0.0,0.0,0.0,0.0,0.0,0.0,0.0,0.0,0.0,0.0,0.0,0.0,0.0,0.0,0.0,0.0,0.0,0.0,0.0,0.0,0.0,0.0,0.0,0.0,0.0,0.0,0.0,0.0,0.0,0.0,0.0,0.0,0.0,0.0,0.0,0.0,0.0,0.0,0.0,0.0,0.0,0.0,0.0,0.0,0.0,0.0,0.0,0.0,0.0,0.0,0.0,0.0,0.0,0.0,0.0,0.0,0.0,0.0,0.0,0.0,0.0,0.0,0.0,0.0,0.0,0.0,0.0,0.0,0.0,0.0,0.0,0.0,0.0,0.0,0.0,0.0,0.0,0.0,0.0,0.0,0.0,0.0,0.0,0.0,0.0,0.0,0.0,0.0,0.0,0.0,0.0,0.0,0.0,0.0,0.0,0.0,0.0,0.0,0.0,0.0,0.0,0.0,0.0,0.0,0.0,0.0,0.0,0.0,0.0,0.0,0.0,0.0,0.0,0.0,0.0,0.0,0.0,0.0,0.0,0.0,0.0,0.0,0.0,0.0,0.0,0.0,0.0,0.0,0.0,0.0,0.0,0.0,0.0,0.0,0.0,0.0,0.0,0.0,0.0,0.0,0.0,0.0,0.0,0.0,0.0,0.0,0.0,0.0,0.0,0.0,0.0,0.0,0.0,0.0,0.0,0.0,0.0,0.0,0.0,0.0,0.0,0.0,0.0,0.0,0.0,0.0,0.0,0.0,0.0,0.0,0.0,0.0,0.0,0.0,0.0,0.0,0.0,0.0,0.0,0.0,0.0,0.0,0.0,0.0,0.0,0.0,0.0,0.0,0.0,0.0,0.0,0.0,0.0,0.0,0.0,0.0,0.0,0.0,0.0,0.0,0.0,0.0,0.0,0.0,0.0,0.0,0.0,0.0,0.0,0.0,0.0,0.0,0.0,0.0,0.0,0.0,0.0,0.0,0.0,0.0,0.0,0.0,0.0,0.0,0.0,0.0,0.0,0.0,0.0,0.0,0.0,0.0,0.0,0.0,0.0,0.0,0.0,0.0,0.0,0.0,0.0,0.0,0.0,0.0,0.0,0.0,0.0,0.0,0.0,0.0,0.0,0.0,0.0,0.0,0.0,0.0,0.0,0.0,0.0,0.0,0.0,0.0,0.0,0.0,0.0,0.0,0.0,0.0,0.0,0.0,0.0,0.0,0.0,0.0,0.0,0.0,0.0,0.0,0.0,0.0,0.0,0.0,0.0,0.0,0.0,0.0,0.0,0.0,0.0,0.0,0.0,0.0,0.0,0.0,0.0,0.0,0.0,0.0,0.0,0.0,0.0,0.0,0.0,0.0,0.0,0.0,0.0,0.0,0.0,0.0,0.0,0.0,0.0,0.0,0.0,0.0,0.0,0.0,0.0,0.0,0.0,0.0,0.0,0.0,0.0,0.0,0.0,0.0,0.0,0.0,0.0,0.0,0.0,0.0,0.0,0.0,0.0,0.0,0.0,0.0,0.0,0.0,0.0,0.0,0.0,0.0,0.0,0.0,0.0,0.0,0.0,0.0,0.0,0.0,0.0,0.0,0.0,0.0,0.0,0.0,0.0,0.0,0.0,0.0,0.0,0.0,0.0,0.0,0.0,0.0,0.0,0.0,0.0,0.0,0.0,0.0,0.0,0.0,0.0,0.0,0.0,0.0,0.0,0.0,0.0,0.0,0.0,0.0,0.0,0.0,0.0,0.0,0.0,0.0,0.0,0.0,0.0,0.0,0.0,0.0,0.0,0.0,0.0,0.0,0.0,0.0,0.0,0.0,0.0,0.0,0.0,0.0,0.0,0.0,0.0,0.0,0.0,0.0,0.0,0.0,0.0,0.0,0.0,0.0,0.0,0.0,0.0,0.0,0.0,0.0,0.0,0.0,0.0,0.0,0.0,0.0,0.0,0.0,0.0,0.0,0.0,0.0,0.0,0.0,0.0,0.0,0.0,0.0,0.0,0.0,0.0,0.0,0.0,0.0,0.0,0.0,0.0,0.0,0.0,0.0,0.0,0.0,0.0,0.0,0.0,0.0,0.0,0.0,0.0,0.0,0.0,0.0,0.0,0.0,0.0,0.0,0.0,0.0,0.0,0.0,0.0,0.0,0.0,0.0,0.0,0.0,0.0,0.0,0.0,0.0,0.0,0.0,0.0,0.0,0.0,0.0,0.0,0.0,0.0,0.0,0.0,0.0,0.0,0.0,0.0,0.0,0.0,0.0,0.0,0.0,0.0,0.0,0.0,0.0,0.0,0.0,0.0,0.0,0.0,0.0,0.0,0.0,0.0,0.0,0.0,0.0,0.0,0.0,0.0,0.0,0.0,0.0,0.0,0.0,0.0,0.0,0.0,0.0,0.0,0.0,0.0,0.0,0.0,0.0,0.0,0.0,0.0,0.0,0.0,0.0,0.0,0.0,0.0,0.0,0.0,0.0,0.0,0.0,0.0,0.0,0.0,0.0,0.0,0.0,0.0,0.0,0.0,0.0,0.0,0.0,0.0,0.0,0.0,0.0,0.0,0.0,0.0,0.0,0.0,0.0,0.0,0.0,0.0,0.0,0.0,0.0,0.0,0.0,0.0,0.0,0.0,0.0,0.0,0.0,0.0,0.0,0.0,0.0,0.0,0.0,0.0,0.0,0.0,0.0,0.0,0.0,0.0,0.0,0.0,0.0,0.0,0.0,0.0,0.0,0.0,0.0,0.0,0.0,0.0,0.0,0.0,0.0,0.0,0.0,0.0,0.0,0.0,0.0,0.0,0.0,0.0,0.0,0.0,0.0,0.0,0.0,0.0,0.0,0.0,0.0,0.0,0.0,0.0,0.0,0.0,0.0,0.0,0.0,0.0,0.0,0.0,0.0,0.0,0.0,0.0,0.0,0.0,0.0,0.0,0.0,0.0,0.0,0.0,0.0,0.0,0.0,0.0,0.0,0.0,0.0,0.0,0.0,0.0,0.0,0.0,0.0,0.0,0.0,0.0,0.0,0.0,0.0,0.0,0.0,0.0,0.0,0.0,0.0,0.0,0.0,0.0,0.0,0.0,0.0,0.0,0.0,0.0,0.0,0.0,0.0,0.0,0.0,0.0,0.0,0.0,0.0,0.0,0.0,0.0,0.0,0.0,0.0,0.0,0.0,0.0,0.0,0.0,0.0,0.0,0.0,0.0,0.0,0.0,0.0,0.0,0.0,0.0,0.0,0.0,0.0,0.0,0.0,0.0,0.0,0.0,0.0,0.0,0.0,0.0,0.0,0.0,0.0,0.0,0.0,0.0,0.0,0.0,0.0,0.0,0.0,0.0,0.0,0.0,0.0,0.0,0.0,0.0,0.0,0.0,0.0,0.0,0.0,0.0,0.0,0.0,0.0,0.0,0.0,0.0,0.0,0.0,0.0,0.0,0.0,0.0,0.0,0.0,0.0,0.0,0.0,0.0,0.0,0.0,0.0,0.0,0.0,0.0,0.0,0.0,0.0,0.0,0.0,0.0,0.0,0.0,0.0,0.0,0.0,0.0,0.0,0.0,0.0,0.0,0.0,0.0,0.0,0.0,0.0,0.0,0.0,0.0,0.0,0.0,0.0,0.0,0.0,0.0,0.0,0.0,0.0,0.0,0.0,0.0,0.0,0.0,0.0,0.0,0.0,0.0,0.0,0.0,0.0,0.0,0.0,0.0,0.0,0.0,0.0,0.0,0.0,0.0,0.0,0.0,0.0,0.0,1.4049,1.3462,0.0,0.0,0.0,0.0,0.0,0.0,0.0,0.0,0.0,0.0,0.0,0.0,0.0,0.0,0.0,0.0,0.0,0.0,0.0,0.0,0.0,0.0,0.0,0.0,0.0,0.0,0.0,0.0,0.0,0.0,0.0,0.0,0.0,0.0,0.0,0.0,0.0,0.0,0.0,0.0,0.0,0.0,0.0,0.0,0.0,0.0,0.0,0.0,0.0,0.0,0.0,0.0,0.0,0.0,0.0,0.0,0.0,0.0,0.0,0.0,0.0,0.0,0.0,0.0,0.0,0.0,0.0,0.0,0.0,0.0,0.0,0.0,0.0,0.0,0.0,0.0,0.0,0.0,0.0,0.0,0.0,0.0,0.0,0.0,0.0,0.0,0.0,0.0,0.0,0.0,0.0,0.0,0.0,0.0,0.0,0.0,0.0,0.0,0.0,0.0,0.0,0.0,0.0,0.0,0.0,0.0,0.0,0.0,0.0,0.0,0.0,0.0,0.0,0.0,1.5745,1.4941,0.0,0.0,0.0,0.0,0.0,0.0,0.0,0.0,0.0,0.0,0.0,0.0,0.0,0.0,0.0,0.0,0.0,0.0,0.0,0.0,0.0,0.0,0.0,0.0,0.0,0.0,0.0,0.0,0.0,0.0,0.0,0.0,0.0,0.0,0.0,0.0,0.0,0.0,0.0,0.0,0.0,0.0,0.0,0.0,0.0,0.0,0.0,0.0,0.0,0.0,0.0,0.0,0.0,0.0,0.0,0.0,0.0,0.0,0.0,0.0,0.0,0.0,0.0,0.0,0.0,0.0,0.0,0.0,0.0,0.0,0.0,0.0,0.0,0.0,0.0,0.0,0.0,0.0,0.0,0.0,0.0,0.0,0.0,0.0,0.0,0.0,0.0,0.0,0.0,0.0,0.0,0.0,0.0,0.0,0.0,0.0,0.0,0.0,0.0,0.0,0.0,0.0,0.0,0.0,0.0,0.0,0.0,0.0,1.7954,1.8355,1.9088,1.8824,1.8837,1.8965,1.7385,1.6805,1.6959,1.6105,0.0,0.0,0.0,0.0,0.0,0.0,0.0,0.0,0.0,0.0,0.0,0.0,0.0,0.0,0.0,0.0,0.0,0.0,0.0,0.0,0.0,0.0,0.2864,0.2955,0.3317,0.3549,0.0,0.0,0.0,0.0,0.0,0.0,0.0,0.0,0.0,0.0,0.0,0.0,0.8882,0.9184,0.932,0.9334,0.8627,0.0,0.0,0.0,0.0,0.0,0.0,0.0,0.0,0.0,0.0,0.0,0.0,0.0,0.0,0.0,0.0,0.0,0.0,0.0,0.0,0.0,0.0,0.0,0.0,0.0,0.0,0.0,0.0,0.0,0.0,0.0,0.0,0.0,0.0,0.0,0.0,0.0,0.0,0.0,0.0,0.0,0.0,0.0,1.2052,1.2224,0.0,0.0,0.0,0.0,0.0,0.0,0.0,0.0,0.0,0.0,0.0,0.0,0.0,1.6973,1.8182,1.8398,1.8744,1.9235,1.9431,1.963,1.9821,1.911,1.8969,1.92,1.8238,0.0,1.8724,1.7888,0.0,0.0,0.0,0.0,0.0,0.0,0.0,0.0,0.0,0.0,0.0,0.0,0.0,0.0,0.0,0.0,0.0,0.0,0.0,0.0,0.0,0.2794,0.3232,0.3794,0.3964,0.4178,0.0,0.0,0.0,0.0,0.0,0.0,0.0,0.0,0.0,0.0,0.7894,0.8791,0.9577,0.9682,0.9894,1.019,0.9936,0.9515,0.8994,0.8975,0.0,0.0,0.0,0.0,0.0,0.0,0.0,0.0,0.0,0.0,0.0,0.0,0.0,0.0,0.0,0.0,0.0,0.0,0.0,0.0,0.0,0.0,0.0,0.0,0.0,0.0,0.0,0.0,0.0,0.0,0.0,0.0,0.0,0.0,0.0,0.0,0.0,0.0,0.0,1.2074,1.2853,1.3587,1.353,1.3686,0.0,0.0,0.0,0.0,0.0,0.0,0.0,0.0,0.0,1.7859,1.8222,1.8848,1.9793,1.9962,2.0147,2.0333,2.045,2.0552,2.0652,2.0256,2.0273,2.0503,2.0107,2.0152,2.0419,1.8811,1.8495,1.8941,0.0,0.0,0.0,0.0,1.6352,1.6696,0.0,0.0,0.0,0.0,0.0,0.0,0.0,0.0,0.0,0.0,0.0,0.0,0.2924,0.3336,0.3869,0.4562,0.4696,0.4877,0.5221,0.0,0.0,0.0,0.0,0.0,0.0,0.0,0.0,0.789,0.8549,0.9278,1.0063,1.0036,1.0303,1.0821,1.0909,1.047,0.9676,0.9587,0.9482,0.0,0.0,0.0,0.0,0.0,0.0,0.0,0.0,0.0,0.0,0.0,0.0,0.0,0.0,0.0,0.0,0.0,0.0,0.0,0.0,0.0,0.0,0.0,0.0,0.0,0.0,0.0,0.0,0.0,0.0,0.0,0.0,0.0,0.0,0.0,0.0,0.0,0.0,1.2593,1.3442,1.4589,1.4498,1.4613,0.0,0.0,0.0,0.0,0.0,0.0,1.7374,1.7726,1.8178,1.8784,1.9398,1.9914,2.0399,2.0654,2.0782,2.0782,2.0824,2.0934,2.1041,2.1029,2.1152,2.137,2.1315,2.1395,2.1461,1.9828,1.9352,1.9594,1.8934,1.8738,1.877,1.8071,1.8205,1.8735,0.0,0.0,0.0,0.0,0.0,0.0,0.0,0.0,0.0,0.0,0.0,0.3083,0.3424,0.4318,0.4909,0.4983,0.539,0.5558,0.5389,0.5428,0.0,0.0,0.0,0.0,0.0,0.0,0.0,0.8652,0.9262,0.9787,1.0293,1.035,1.0744,1.1368,1.1368,1.1113,1.075,1.0998,1.0819,1.0432,0.0,0.0,0.0,0.0,0.0,0.0,0.0,0.0,0.0,0.0,0.0,0.0,0.0,0.0,0.0,0.0,0.0,0.0,0.0,0.0,0.0,0.0,0.0,0.0,0.0,0.0,0.0,0.0,0.0,0.0,0.0,0.0,0.0,0.0,0.0,0.0,0.0,0.0,0.0,1.4347,1.5469,0.0,0.0,0.0,0.0,1.6438,1.6593,1.693,1.7464,1.7385,1.7692,1.8503,1.8782,1.9058,1.9266,1.9865,2.0128,2.0128,2.0387,2.0543,2.0641,2.0781,2.0878,2.1032,2.1005,2.1114,2.1329,2.1461,2.1704,2.1889,2.1259,2.1106,2.1093,1.9842,1.9421,1.9374,0.0,0.0,0.0,0.0,0.0,0.0,0.0,0.0,0.0,0.2575,0.3045,0.3495,0.3795,0.4527,0.5202,0.5726,0.5859,0.5968,0.6096,0.5925,0.0,0.0,0.0,0.0,0.0,0.0,0.8193,0.878,0.9533,1.0105,1.05,1.0801,1.1087,1.1404,1.1551,1.1546,1.152,1.1932,1.1869,1.1437,1.1174,1.0848,0.0,0.0,0.0,0.0,0.0,0.0,0.0,0.0,0.0,0.0,0.0,0.0,0.0,0.0,0.0,0.0,0.0,0.0,0.0,0.0,0.0,0.0,0.0,0.0,0.0,0.0,0.0,0.0,0.0,0.0,0.0,0.0,0.0,0.0,0.0,0.0,0.0,1.5379,1.582,0.0,1.6631,1.676,1.6848,1.6872,1.7291,1.7633,1.7816,1.8069,1.8536,1.9293,1.9724,2.0216,2.0872,2.1001,2.1112,2.1204,2.1387,2.1479,2.151,2.1645,2.1749,2.1764,2.1853,2.1928,2.2017,2.2193,2.2081,2.1753,2.159,2.1523,2.1515,2.1268,2.1121,2.1038,0.0,0.0,0.0,0.0,0.0,0.0,0.0,0.0,0.0,0.2581,0.3239,0.3823,0.4121,0.4939,0.5636,0.6162,0.6149,0.6227,0.6421,0.6122,0.0,0.0,0.0,0.0,0.0,0.8077,0.8717,0.9172,0.9882,1.0376,1.0686,1.0948,1.1287,1.1698,1.1797,1.2044,1.2343,1.2655,1.2562,1.2176,1.1865,1.1642,1.142,0.0,0.0,0.0,0.0,0.0,0.0,0.0,0.0,0.0,0.0,0.0,0.0,0.0,0.0,0.0,0.0,0.0,0.0,0.0,0.0,0.0,0.0,0.0,0.0,0.0,0.0,0.0,0.0,0.0,0.0,0.0,0.0,0.0,0.0,0.0,1.4978,1.6143,1.6289,1.6556,1.7061,1.7154,1.7193,1.7244,1.7664,1.7977,1.814,1.8394,1.8879,1.9632,2.0092,2.0637,2.1328,2.1424,2.152,2.1664,2.1793,2.1841,2.1841,2.2091,2.2184,2.2137,2.2324,2.2417,2.2417,2.2509,2.2278,2.1892,2.1613,2.153,2.155,2.1363,2.1235,2.1228,0.0,0.0,0.0,0.0,0.0,0.0,0.0,0.0,0.2259,0.2745,0.3443,0.4047,0.4456,0.5583,0.6276,0.6206,0.6321,0.636,0.6284,0.5982,0.0,0.0,0.0,0.0,0.8112,0.8882,0.9512,0.9906,1.033,1.0615,1.0804,1.0822,1.135,1.2209,1.2209,1.2555,1.3218,1.3218,1.2955,1.2595,1.2489,1.2563,1.2688,0.0,0.0,0.0,0.0,0.0,0.0,0.0,0.0,0.0,0.0,0.0,0.0,0.0,0.0,0.0,0.0,0.0,0.0,0.0,0.0,0.0,0.0,0.0,0.0,0.0,0.0,0.0,0.0,0.0,0.0,0.0,0.0,0.0,1.4921,1.4924,1.529,1.6466,1.6981,1.7282,1.7475,1.7502,1.7502,1.7502,1.7624,1.7904,1.8392,1.8275,1.8583,1.9301,1.976,2.0173,2.0422,2.096,2.1277,2.1423,2.1568,2.1616,2.163,2.1996,2.2137,2.2024,2.2292,2.237,2.237,2.237,2.2463,2.2486,2.1512,2.1322,2.1376,2.0251,1.9809,1.9936,0.0,0.0,0.0,0.0,0.0,0.0,0.0,0.2227,0.2283,0.2621,0.3429,0.4158,0.4585,0.5469,0.6067,0.6245,0.6176,0.6091,0.6005,0.0,0.0,0.0,0.0,0.0,0.8461,0.8931,0.9456,1.0028,1.047,1.0848,1.1324,1.1608,1.2052,1.2551,1.2551,1.2764,1.3113,1.3113,1.3097,1.3011,1.2785,1.2609,1.2468,0.0,0.0,0.0,0.0,0.0,0.0,0.0,0.0,0.0,0.0,0.0,0.0,0.0,0.0,0.0,0.0,0.0,0.0,0.0,0.0,0.0,0.0,0.0,0.0,0.0,0.0,0.0,0.0,0.0,0.0,0.0,0.0,1.4774,1.556,1.5867,1.6309,1.7102,1.712,1.7073,1.7115,1.7463,1.7653,1.7653,1.8041,1.8351,1.8461,1.8955,1.9347,1.9659,2.021,2.066,2.0952,2.1002,2.118,2.1423,2.1616,2.1932,2.2246,2.2144,2.2233,2.2477,2.213,2.1949,2.1949,2.1949,2.2091,2.2296,2.2347,2.2337,2.2279,2.2191,2.2229,2.2354,0.0,0.0,0.0,0.0,0.0,0.0,0.0,0.2111,0.2251,0.2592,0.3398,0.4111,0.4601,0.5408,0.5982,0.6153,0.606,0.5988,0.601,0.0,0.0,0.0,0.0,0.7968,0.8612,0.9085,0.9606,1.0183,1.0569,1.1049,1.1495,1.1818,1.2126,1.2529,1.2578,1.2783,1.3046,1.3224,1.3175,1.3084,1.3168,1.3016,1.2813,1.265,1.2288,1.1767,1.1661,1.1204,1.0609,1.0251,0.0,0.0,0.0,0.0,0.0,0.0,0.0,0.0,0.0,0.0,0.0,0.0,0.0,0.0,0.0,0.0,0.0,0.0,0.0,0.0,0.0,0.0,0.0,0.0,1.4956,1.5436,1.5877,1.6127,1.6491,1.7034,1.6918,1.6923,1.7183,1.7472,1.7721,1.8009,1.8329,1.861,1.884,1.9269,1.9675,2.0067,2.0479,2.0904,2.1392,2.1406,2.1576,2.1982,2.2183,2.241,2.2634,2.2533,2.261,2.2824,2.2583,2.2482,2.2482,2.2531,2.2679,2.2838,0.0,0.0,0.0,0.0,2.244,2.2717,0.0,0.0,0.0,0.0,0.0,0.0,0.0,0.192,0.211,0.2614,0.3304,0.3968,0.4524,0.5371,0.5912,0.5928,0.5997,0.6114,0.0,0.0,0.0,0.7165,0.7745,0.8253,0.8764,0.9368,0.9897,1.0367,1.0706,1.1074,1.1528,1.1628,1.1927,1.2274,1.2421,1.2656,1.2978,1.335,1.332,1.3057,1.3539,1.3581,1.3321,1.3063,1.2923,1.283,1.2546,1.223,1.1885,1.1164,0.0,0.0,0.0,0.0,0.0,0.0,0.0,0.0,0.0,0.0,0.0,0.0,0.0,0.0,0.0,0.0,0.0,0.0,0.0,0.0,0.0,0.0,0.0,0.0,1.5376,1.5995,1.61,1.6112,1.6236,1.6625,1.6584,1.6798,1.7377,1.7529,1.7865,1.8478,1.8567,1.8869,1.9415,1.9441,0.0,0.0,0.0,2.1013,2.1706,2.1875,2.2285,2.2818,2.2977,2.3017,2.2924,2.311,2.311,2.3071,2.3268,2.3346,2.3398,2.3489,2.3644,2.3631,2.2156,2.1751,2.1902,2.1354,2.1513,2.2004,0.0,0.0,0.0,0.0,0.0,0.0,0.0,0.1699,0.1819,0.2453,0.3123,0.3783,0.4386,0.5273,0.5749,0.5547,0.5949,0.6347,0.0,0.0,0.7024,0.7556,0.8041,0.8565,0.9085,0.943,0.9933,1.0612,1.0685,1.1023,1.1528,1.1628,1.1877,1.2126,1.2372,1.2769,1.3237,1.3416,1.3652,1.3896,1.3984,1.3657,1.3152,1.3137,1.2923,1.2645,1.2709,1.2399,1.1923,1.1752,1.1701,1.162,1.1145,0.0,0.0,0.0,0.0,0.0,0.0,0.0,0.0,0.0,0.0,0.0,0.0,0.0,0.0,0.0,0.0,0.0,0.0,0.0,0.0,1.5169,1.5903,1.6479,1.6841,1.6826,1.6702,1.6485,1.6702,1.6967,1.7078,1.7881,1.8487,1.8734,1.9146,1.9496,1.9686,1.9826,1.9978,2.0233,2.0849,2.1342,2.1706,2.23,2.2764,2.2977,2.3083,0.0,2.3675,2.3245,2.3232,2.3552,2.3232,2.3083,2.3083,2.3241,2.3346,2.3406,2.2937,2.2937,2.3102,2.2381,2.2269,2.2505,0.0,0.0,0.0,0.0,0.0,0.0,0.0,0.1655,0.1861,0.2433,0.2998,0.359,0.4217,0.4944,0.5401,0.5445,0.5934,0.0,0.0,0.6821,0.7154,0.7781,0.8303,0.8741,0.9082,0.9515,0.9941,1.0522,1.0573,1.0871,1.1427,1.1628,1.1926,1.242,1.2682,1.3113,1.3619,1.4,1.4204,1.4277,1.4483,1.4113,1.3501,1.3711,1.3661,1.3501,1.3387,1.3107,1.2742,1.2293,1.2163,1.2103,1.1762,1.1704,1.1624,0.0,0.0,0.0,0.0,0.0,0.0,0.0,0.0,0.0,0.0,0.0,0.0,0.0,0.0,1.3789,0.0,0.0,1.545,1.5745,1.6093,1.6475,1.6812,1.6999,1.7072,1.699,1.7245,1.7468,1.7677,1.824,1.877,1.9182,1.9455,1.978,2.0225,2.0026,2.0231,2.0947,2.1197,2.164,2.2252,2.2771,2.3129,2.3418,2.3586,2.3787,2.401,2.3761,2.3731,2.3883,2.3748,2.367,2.367,2.3959,2.4177,2.4272,2.3917,2.3741,2.3646,2.3336,2.3107,2.2979,0.0,0.0,0.0,0.0,0.0,0.0,0.0,0.0,0.0,0.2359,0.2813,0.3363,0.4003,0.4563,0.5042,0.0,0.0,0.0,0.0,0.6867,0.726,0.7959,0.8494,0.8857,0.9089,0.9621,1.0058,1.0316,1.047,1.0769,1.1276,1.1528,1.1983,1.262,1.288,1.3413,1.4016,1.4518,1.4694,1.4597,1.4943,1.4711,1.421,1.4463,1.4463,1.43,1.4053,1.3821,1.359,1.2825,1.252,1.246,1.228,1.2215,1.2095,1.1376,1.1334,0.0,0.0,0.0,0.0,0.0,0.0,0.0,0.0,0.0,1.3053,1.3391,1.3955,1.4588,1.5223,1.5624,1.5948,1.6203,1.6289,1.6456,1.6765,1.7109,1.7431,1.7774,1.7836,1.7983,1.8347,1.8641,1.9049,1.9636,1.9825,2.0126,2.0749,2.0323,2.0539,2.1622,2.1604,2.197,2.2783,2.3171,2.3584,2.3949,2.4067,2.4112,2.4157,2.4189,2.4203,2.4112,2.4247,2.4292,2.4408,2.4765,2.5005,2.5063,2.4751,2.4431,2.408,2.4049,2.373,2.3378,0.0,0.0,0.0,0.0,0.0,0.0,0.0,0.0,0.0,0.2012,0.2513,0.3058,0.3602,0.4192,0.4766,0.0,0.0,0.0,0.6481,0.6915,0.7517,0.8312,0.8822,0.9156,0.9434,0.9984,1.0316,1.047,1.047,1.0718,1.1124,1.1267,1.1687,1.2386,1.262,1.3318,1.4354,1.4542,1.4857,1.5273,1.5322,1.5283,1.5262,1.5446,1.4964,1.4114,1.4063,1.3892,1.3661,1.326,1.3042,1.2877,1.2619,1.265,1.2662,1.2017,0.0,1.1974,1.1388,1.1473,1.1794,1.2191,1.2699,1.2977,0.0,0.0,1.3939,1.391,1.4393,1.5017,1.5614,1.5858,1.609,1.6397,1.6732,1.7091,1.76,1.7718,1.793,1.8443,1.8203,1.8056,1.8193,1.91,1.9746,1.9928,2.0533,2.0883,2.0945,2.1039,2.1176,2.1481,2.2247,2.2711,2.2783,2.3586,2.4047,2.4054,2.4112,2.4157,2.4292,2.4157,2.4112,2.4112,2.4247,2.4421,2.4549,2.4721,2.4835,2.4892,2.5036,2.5093,2.4957,2.3992,2.3705,2.3752,0.0,0.0,0.0,0.0,0.0,0.0,0.0,0.0,0.0,0.0,0.0,0.2869,0.354,0.4272,0.0,0.0,0.0,0.0,0.613,0.6692,0.7285,0.7895,0.8518,0.909,0.9483,0.9784,1.0113,1.0368,1.047,1.0726,1.1124,1.1226,1.1696,1.2492,1.2869,1.3488,1.4308,1.4763,1.51,1.5313,1.5362,1.5117,1.4697,1.5017,1.4621,1.3872,1.409,1.3763,0.0,0.0,1.2754,1.2716,1.2875,1.2966,1.2876,1.2343,1.2168,0.0,1.1641,1.1713,1.2006,0.0,1.2795,1.3028,1.3367,1.3641,1.3994,1.4627,1.4835,1.4986,1.5341,1.5646,1.5912,0.0,1.6519,1.714,1.7618,1.7961,1.8335,1.8826,1.8398,1.8265,1.8774,1.9266,1.9757,2.0225,2.0694,2.0929,2.1131,2.12,2.1462,2.1856,2.2382,2.2718,2.2858,2.3513,2.3747,2.37,2.3747,2.3923,2.4099,2.3995,2.4008,2.4112,2.4157,2.4261,2.4421,2.4478,2.4593,2.4778,2.4892,2.5005,2.5063,2.4792,2.4486,2.4221,0.0,0.0,0.0,0.0,0.0,0.0,0.0,0.0,0.0,0.0,0.0,0.0,0.0,0.0,0.0,0.0,0.0,0.0,0.0,0.6426,0.704,0.7517,0.8211,0.8803,0.9305,0.9492,0.9815,1.0167,1.0269,1.057,1.0972,1.1074,1.1567,1.2344,1.2734,1.3229,1.3875,1.4452,1.4734,1.4754,1.4975,1.4627,1.4063,1.4437,1.4101,1.3526,1.3739,1.3404,0.0,0.0,1.2255,1.2412,1.2832,1.2908,1.279,1.2535,1.2248,1.1984,1.1927,0.0,0.0,1.2874,1.3114,1.3375,1.4087,1.4114,1.4178,1.4924,1.4903,1.4885,1.5073,1.5464,1.5821,1.5919,1.664,1.7322,1.7757,1.8135,1.8441,1.8732,1.8302,1.8281,1.9217,1.9457,1.9954,2.0708,2.1064,2.1311,2.1473,2.1498,2.174,2.2182,2.243,2.2689,2.2909,2.3258,2.345,2.3403,2.3509,2.3628,2.3819,2.3891,2.3949,2.4112,2.4112,2.4157,2.4247,2.4292,2.4478,2.4721,2.4778,2.4892,2.5005,2.5257,2.508,2.4682,0.0,0.0,0.0,0.0,0.0,0.0,0.0,0.0,0.0,0.0,0.0,0.0,0.0,0.0,0.0,0.0,0.0,0.0,0.0,0.6199,0.6839,0.7377,0.7916,0.8438,0.8929,0.9247,0.9581,0.9889,0.9889,1.017,1.0718,1.0718,1.1069,1.1735,1.1735,1.2172,1.2966,1.3396,1.3615,1.3678,1.4026,1.3988,1.3828,1.3955,1.3603,1.2987,1.2819,0.0,0.0,0.0,1.1665,1.2021,1.2197,1.2311,0.0,1.2638,1.2263,1.1931,1.2532,0.0,1.2449,1.3561,1.4032,1.4366,1.4718,1.4873,1.4893,1.4599,1.4503,1.4633,1.5129,1.5495,1.5959,1.6815,1.7346,1.782,1.829,1.8247,1.8096,1.792,1.77,1.7968,0.0,1.9796,2.0475,2.1332,2.1971,2.231,2.2199,2.2137,2.2273,2.2396,2.2506,2.2702,2.2909,2.3017,2.3198,2.3403,2.3403,2.345,2.3628,2.3819,2.3949,2.4112,2.4112,2.4112,2.4112,2.4247,2.4421,2.462,2.4721,2.4892,2.5005,2.5005,2.5104,2.5203,0.0,0.0,0.0,0.0,0.0,0.0,0.0,0.0,0.0,0.0,0.0,0.0,0.0,0.0,0.0,0.0,0.0,0.0,0.0,0.5875,0.6506,0.7033,0.7517,0.8171,0.902,0.8956,0.9178,0.969,0.9907,1.0083,1.0162,1.0604,1.0965,1.1255,1.1559,1.193,1.2351,1.2797,1.3001,1.3022,1.3212,1.3185,1.2995,1.2822,1.2363,1.1686,0.0,0.0,0.0,0.0,1.0466,1.0864,1.1375,1.1702,1.1932,1.203,1.1975,1.2006,1.2664,0.0,1.3153,1.4245,1.4397,1.4437,1.4851,1.4724,1.4646,1.5046,1.4954,1.4949,1.532,1.5863,1.6398,1.6667,1.7301,1.792,1.8583,1.8247,1.8258,1.9046,1.8441,0.0,0.0,0.0,0.0,2.1136,2.1374,2.1402,2.1474,2.1932,2.2091,2.1897,2.2287,2.2543,2.28,2.2957,2.3138,2.3198,2.333,2.3403,2.3463,2.3772,2.3891,2.3949,2.4067,2.4112,2.4112,2.4157,2.4261,2.4421,2.4607,2.4721,2.4892,2.4948,2.5005,2.5061,0.0,0.0,0.0,0.0,0.0,0.0,0.0,0.0,0.0,0.0,0.0,0.0,0.0,0.0,0.0,0.0,0.0,0.0,0.0,0.0,0.6038,0.6591,0.6979,0.7547,0.8317,0.832,0.8555,0.9004,0.939,0.9573,0.9604,1.0075,1.0358,1.0431,1.0851,1.1143,1.1383,1.1964,1.2238,1.2201,1.2427,1.2247,1.1885,1.1526,1.1107,0.0,0.0,0.0,0.0,0.0,0.9444,1.0064,1.0661,1.1342,1.185,1.1559,1.1769,1.2181,1.2692,1.3023,1.3501,1.456,1.4687,1.4686,1.5117,1.4994,1.4954,1.5401,1.518,1.5019,1.5481,1.592,1.6285,1.6743,1.7367,1.8087,1.8927,1.8611,1.8645,1.9539,1.9005,1.9157,0.0,0.0,0.0,2.1318,2.1181,2.1151,2.1486,2.1882,2.2029,2.1801,2.2054,2.2359,2.2616,2.2848,2.3017,2.3078,2.321,2.333,2.3403,2.3641,2.3772,2.3891,2.4008,2.4067,2.4112,2.4112,2.4157,2.4292,2.4421,2.4607,2.4778,2.4892,2.4948,2.5005,0.0,0.0,0.0,0.0,0.0,0.0,0.0,0.0,0.0,0.0,0.0,0.0,0.0,0.0,0.0,0.0,0.0,0.0,0.0,0.0,0.0,0.6086,0.6289,0.654,0.6913,0.7402,0.7732,0.7889,0.8372,0.8752,0.9074,0.9221,0.9313,0.9406,0.9747,0.9947,1.0132,1.0957,1.1305,1.1296,1.1587,1.1329,1.0647,1.0262,0.0,0.0,0.0,0.0,0.0,0.0,0.0,0.0,1.0115,1.1191,1.2101,1.1388,1.1686,1.2382,1.2656,1.2893,1.3397,1.4455,1.4834,1.5041,1.5486,1.5584,1.5594,1.5614,1.5128,1.4883,0.0,0.0,1.5796,1.6946,1.7556,1.8267,1.9365,1.928,1.9218,0.0,0.0,0.0,0.0,0.0,0.0,2.1791,2.1437,2.1439,2.2099,2.1999,2.1999,2.2185,2.1999,2.2049,2.242,2.2641,2.291,2.3153,2.3165,2.3299,2.3479,2.3492,2.3671,2.3981,2.3955,2.4047,2.4151,2.4125,2.4157,2.4292,2.4292,2.4492,2.4832,2.4832,2.4959,2.51,0.0,0.0,0.0,0.0,0.0,0.0,0.0,0.0,0.0,0.0,0.0,0.0,0.0,0.0,0.0,0.0,0.0,0.0,0.0,0.0,0.0,0.0,0.0,0.0,0.0,0.0,0.0,0.0,0.8292,0.8549,0.8461,0.9112,0.9313,0.9128,0.9509,0.9697,0.9768,1.0205,1.0499,1.0582,0.0,1.0529,1.03,0.0,0.0,0.0,0.0,0.0,0.0,0.0,0.0,0.0,0.0,1.1418,1.1859,1.1859,1.215,1.2497,1.2799,1.3061,1.3397,1.4033,1.4175,1.4205,1.4459,1.444,1.441,1.4542,1.4428,1.4387,0.0,0.0,0.0,1.646,1.73,0.0,1.9535,1.9608,0.0,2.0581,0.0,2.0216,2.0854,2.0341,0.0,0.0,2.1205,2.1011,2.1451,2.1737,2.1925,2.1987,2.1925,2.2049,2.242,2.3059,2.3653,2.4114,2.4317,2.4393,2.4469,2.452,2.4696,2.4921,2.4645,2.4572,2.4726,2.4295,2.4112,2.4157,2.4247,2.4686,2.5274,2.5437,2.5837,2.6294,0.0,0.0,0.0,0.0,0.0,0.0,0.0,0.0,0.0,0.0,0.0,0.0,0.0,0.0,0.0,0.0,0.0,0.0,0.0,0.0,0.0,0.0,0.0,0.0,0.0,0.0,0.0,0.0,0.0,0.0,0.7565,0.8116,0.8453,0.8516,0.8933,0.9225,0.9432,0.979,0.0,0.0,0.0,0.0,0.0,0.0,0.0,0.0,0.0,0.0,0.0,0.0,0.0,0.9688,1.0854,1.1528,1.1877,1.1927,0.0,1.2379,1.2503,1.2791,1.3091,1.3432,1.3632,1.3777,1.3959,1.3867,1.388,1.4157,1.3868,0.0,1.4283,0.0,0.0,0.0,0.0,0.0,1.9889,1.9981,2.0216,0.0,2.0981,0.0,2.1198,2.0854,2.0871,0.0,2.107,2.1,2.1451,2.1862,2.1999,2.1925,2.1999,2.2173,2.242,2.2898,2.3516,2.4304,2.4316,2.4518,2.4936,2.4936,2.5,2.5154,2.5036,2.5032,2.5179,2.494,2.487,2.4857,2.4904,2.5282,2.5694,2.5875,2.627,2.6593,0.0,0.0,0.0,0.0,0.0,0.0,0.0,0.0,0.0,0.0,0.0,0.0,0.0,0.0,0.0,0.0,0.0,0.0,0.0,0.0,0.0,0.0,0.0,0.0,0.0,0.0,0.0,0.0,0.0,0.0,0.0,0.0,0.0,0.0,0.0,0.0,0.0,0.0,0.0,0.0,0.0,0.0,0.0,0.0,0.0,0.0,0.0,0.0,0.0,0.0,0.8252,0.9688,1.0795,1.1578,1.2026,1.1769,1.1877,1.2076,1.2076,1.2324,1.259,1.2693,1.3066,1.3399,1.3563,1.3506,1.3516,1.4007,0.0,1.3045,1.4028,1.4693,1.5456,1.6451,0.0,1.8794,2.006,2.0193,2.0487,2.1253,2.1577,2.1635,2.1296,2.1221,2.1158,2.1221,2.1055,2.1181,2.1776,2.2061,2.2123,2.1937,2.2061,2.2283,2.2468,2.253,2.3034,2.4067,2.3891,2.428,2.5065,2.4947,2.4985,2.5114,2.5282,2.5422,2.5484,2.5686,2.5709,2.5644,2.5785,2.5926,2.6117,2.629,2.6516,2.6687,0.0,0.0,0.0,0.0,0.0,0.0,0.0,0.0,0.0,0.0,0.3275,0.0,0.0,0.0,0.0,0.0,0.0,0.0,0.0,0.0,0.0,0.0,0.0,0.0,0.0,0.0,0.0,0.0,0.0,0.0,0.0,0.0,0.0,0.0,0.0,0.0,0.0,0.0,0.0,0.0,0.0,0.0,0.0,0.0,0.0,0.0,0.0,0.0,0.0,0.0,0.7393,0.9155,1.0744,1.1569,1.1927,1.1877,1.1877,1.1927,1.1778,1.1822,1.1876,1.1926,1.1971,1.2115,1.2395,1.2336,0.0,0.0,1.2846,1.2619,1.2584,1.3383,1.4172,1.4498,0.0,0.0,0.0,0.0,2.0635,0.0,0.0,0.0,0.0,0.0,0.0,0.0,2.1181,2.1169,2.1451,2.1925,2.2185,2.2123,2.1999,2.2265,2.2898,2.3026,2.3484,2.4282,2.436,2.4603,2.4897,2.5259,2.5526,2.575,2.5803,2.56,2.5358,2.5484,2.5262,2.4948,2.5566,2.6175,2.6773,2.6773,2.732,2.7911,0.0,0.0,0.0,0.0,0.0,0.0,0.0,0.0,0.0,0.0,0.3647,0.3841,0.0,0.0,0.0,0.0,0.0,0.0,0.0,0.0,0.0,0.0,0.0,0.0,0.0,0.0,0.0,0.0,0.0,0.0,0.0,0.0,0.0,0.0,0.0,0.0,0.0,0.0,0.0,0.0,0.0,0.0,0.0,0.0,0.0,0.0,0.0,0.0,0.0,0.0,0.653,0.8069,1.0156,1.1057,1.1368,1.1619,1.1528,1.1377,1.1377,1.1477,1.1578,1.1528,1.1628,1.1722,1.1806,0.0,0.0,0.0,1.193,1.1725,1.2066,0.0,0.0,0.0,0.0,0.0,0.0,0.0,0.0,0.0,0.0,0.0,0.0,2.0676,2.0556,2.125,2.1083,2.1135,2.1388,2.1651,2.1788,2.1788,2.1862,2.2044,2.2432,2.2621,2.314,2.405,2.4011,2.4352,2.4962,2.5426,2.5744,2.5902,2.634,2.6447,2.6388,2.6375,2.6349,2.6193,2.6479,2.6818,2.7236,2.7301,2.7669,2.7959,0.0,0.0,0.0,0.0,0.0,0.0,0.0,0.2632,0.2987,0.373,0.406,0.4273,0.4394,0.4423,0.4492,0.0,0.0,0.0,0.0,0.0,0.0,0.0,0.0,0.0,0.0,0.0,0.0,0.5334,0.0,0.0,0.0,0.0,0.0,0.0,0.7063,0.0,0.0,0.0,0.0,0.0,0.0,0.0,0.0,0.0,0.0,0.0,0.0,0.0,0.0,0.0,0.5807,0.7108,0.922,1.0214,1.0685,1.1023,1.1007,1.0922,1.1023,1.1267,1.1528,1.1418,1.1528,1.1678,1.1519,1.1351,0.0,0.0,1.1202,1.1076,1.1678,0.0,0.0,0.0,0.0,0.0,0.0,0.0,0.0,0.0,0.0,0.0,0.0,2.0299,0.0,2.1008,2.0967,2.1031,2.1388,2.1388,2.1388,2.1388,2.1663,2.1862,2.1925,2.2061,2.2639,2.3542,2.3367,2.3778,2.4709,2.5073,2.5391,2.5572,2.6324,2.6755,2.6865,2.7098,2.7124,2.7087,2.7149,2.7201,2.7242,2.7443,2.7577,2.7577,0.0,0.0,0.0,0.0,0.0,0.0,0.0,0.3029,0.3326,0.382,0.4325,0.4675,0.4744,0.4653,0.4604,0.0,0.0,0.0,0.0,0.0,0.0,0.0,0.0,0.0,0.0,0.0,0.0,0.4784,0.5279,0.0,0.0,0.0,0.0,0.0,0.0,0.6985,0.7094,0.0,0.0,0.0,0.0,0.0,0.0,0.0,0.0,0.0,0.0,0.0,0.0,0.0,0.0,0.6818,0.7872,0.901,0.9915,0.9925,0.0,0.0,1.0922,1.1267,1.1678,1.1678,1.1678,1.1678,1.1519,0.0,0.0,1.1362,1.1202,1.1071,1.1098,1.1914,1.2662,0.0,0.0,1.5536,0.0,0.0,0.0,0.0,0.0,0.0,0.0,2.0741,2.042,2.0733,2.0733,2.0914,2.1388,2.1388,2.1388,2.1388,2.1451,2.1588,2.1925,2.1937,2.2209,2.2813,2.2751,2.2947,2.3301,2.3879,2.4205,2.4381,2.5365,2.5529,2.5293,2.6308,2.6342,2.5858,2.6511,2.6645,2.6483,2.6483,2.6769,2.7027,0.0,0.0,0.0,0.0,0.0,0.0,0.0,0.3275,0.3654,0.4089,0.4527,0.4863,0.496,0.5039,0.5049,0.0,0.0,0.0,0.0,0.0,0.0,0.0,0.0,0.0,0.0,0.0,0.0,0.4822,0.5026,0.0,0.0,0.0,0.0,0.0,0.0,0.6885,0.6936,0.0,0.0,0.0,0.0,0.0,0.0,0.0,0.0,0.0,0.0,0.0,0.0,0.0,0.0,0.0,0.6978,0.7849,0.0,0.0,0.9826,0.9964,1.0327,1.0706,1.1069,1.1366,1.1298,1.1196,1.1364,0.0,1.0669,1.0741,1.0568,1.0516,1.0656,1.1444,1.224,1.2977,0.0,0.0,0.0,0.0,0.0,0.0,0.0,0.0,0.0,0.0,1.9443,2.0268,2.0529,2.0733,2.0775,2.0955,2.1146,2.1273,2.1336,2.1526,2.1749,2.1874,2.2061,2.2383,2.2629,2.28,2.2982,2.3542,2.3966,2.4265,2.5329,2.5559,2.5269,2.6257,2.6316,2.5794,2.6226,2.6427,2.6414,2.6414,2.6483,2.662,0.0,0.0,0.0,0.0,0.0,0.0,0.3205,0.3591,0.3986,0.4366,0.4794,0.5078,0.5176,0.5387,0.5482,0.5378,0.0,0.0,0.0,0.0,0.0,0.0,0.0,0.0,0.0,0.0,0.4472,0.4683,0.4756,0.4973,0.0,0.0,0.5876,0.6394,0.0,0.0,0.0,0.0,0.0,0.0,0.0,0.0,0.0,0.0,0.0,0.0,0.0,0.0,0.0,0.0,0.0,0.0,0.0,0.0,0.0,0.0,0.9292,0.9405,0.9917,1.0333,1.0728,1.1103,1.1019,1.0901,0.0,0.0,1.0409,1.0108,0.9999,0.9999,1.0205,1.089,1.1837,1.3032,0.0,1.5117,1.6768,0.0,0.0,0.0,0.0,1.8338,0.0,1.883,1.8805,1.9791,2.0246,2.0399,2.027,2.0518,2.0775,2.0978,2.1146,2.1348,2.1561,2.1749,2.1937,2.2135,2.2432,2.2678,2.28,2.3183,2.353,2.3876,2.472,2.4973,2.4887,2.5749,2.5827,2.5528,2.5802,2.5943,2.5943,2.607,2.607,2.607,0.0,0.0,0.0,0.0,0.0,0.0,0.0,0.4012,0.4317,0.4646,0.5098,0.5397,0.5396,0.5633,0.5793,0.5793,0.0,0.0,0.0,0.0,0.0,0.0,0.0,0.0,0.0,0.0,0.4071,0.4194,0.4395,0.4634,0.4911,0.5051,0.5452,0.6113,0.0,0.0,0.0,0.0,0.0,0.0,0.0,0.0,0.0,0.0,0.0,0.0,0.0,0.0,0.0,0.0,0.0,0.0,0.0,0.0,0.0,0.0,0.8827,0.9658,0.9909,1.0431,1.0913,1.0913,1.1015,1.0905,0.0,1.0395,1.0454,0.9569,0.9629,0.974,0.9621,1.0249,1.1229,1.256,1.37,0.0,1.6768,0.0,0.0,0.0,0.0,1.8747,1.8362,1.8751,1.9051,1.9199,1.962,1.9933,1.9933,2.0042,2.0183,2.041,2.0711,2.1031,2.1221,2.1561,2.1761,2.1925,2.2235,2.242,2.242,2.2629,2.28,2.2946,2.313,2.3426,2.3753,2.439,2.4611,2.4578,2.5107,2.5111,2.4861,2.5182,2.5312,2.5312,0.0,0.0,0.0,0.0,0.0,0.0,0.0,0.4478,0.4727,0.5059,0.5404,0.5678,0.5859,0.6045,0.6117,0.6088,0.0,0.0,0.0,0.0,0.0,0.0,0.0,0.0,0.0,0.0,0.4684,0.4675,0.4823,0.4963,0.504,0.5356,0.5668,0.5978,0.6259,0.0,0.0,0.0,0.0,0.0,0.0,0.0,0.0,0.0,0.0,0.0,0.0,0.0,0.0,0.0,0.0,0.0,0.0,0.0,0.0,0.0,0.0,0.0,0.9627,0.9955,1.032,1.066,1.0685,1.0634,1.0747,1.0615,1.0417,1.0108,0.9999,0.9895,0.974,1.0187,1.0882,1.191,1.305,0.0,0.0,0.0,0.0,0.0,0.0,1.7733,0.0,0.0,1.8966,1.8648,1.9404,1.9868,1.9671,1.9736,1.9998,2.0518,2.0903,2.1158,2.1336,2.1561,2.1698,2.1761,2.1937,2.2049,2.2049,2.2111,2.2247,2.2469,2.2853,2.2992,2.2885,2.3688,2.3851,2.3556,2.416,2.4365,2.4354,2.4909,2.5182,2.5182,0.0,0.0,0.0,0.0,0.0,0.0,0.0,0.504,0.5289,0.5571,0.5841,0.607,0.6242,0.6366,0.6418,0.6354,0.0,0.0,0.0,0.0,0.0,0.0,0.0,0.0,0.0,0.5108,0.5076,0.528,0.5312,0.5375,0.5473,0.5708,0.5843,0.5909,0.6261,0.6528,0.0,0.0,0.0,0.0,0.0,0.0,0.5414,0.0,0.0,0.0,0.0,0.0,0.0,0.0,0.0,0.0,0.0,0.0,0.0,0.0,0.9115,0.0,0.0,0.9721,0.9923,1.0188,1.03,0.0,0.0,1.0539,1.0441,1.0407,1.0249,1.0146,1.0087,1.0403,1.0927,1.1782,1.2732,0.0,0.0,0.0,0.0,0.0,0.0,0.0,0.0,1.7743,1.8249,1.8239,1.8945,1.9424,1.9396,1.9473,1.9671,2.0129,2.0571,2.0892,2.1019,2.1296,2.1371,2.1371,2.1549,2.1612,2.1612,2.1612,2.178,2.2119,2.235,2.2379,0.0,2.2916,2.2897,2.2598,2.3232,2.3478,2.3468,2.4343,2.4672,2.4625,0.0,0.0,0.0,0.0,0.0,0.0,0.0,0.0,0.0,0.0,0.6376,0.6544,0.6582,0.6685,0.6723,0.0,0.0,0.0,0.0,0.0,0.0,0.0,0.0,0.0,0.0,0.5233,0.5272,0.5906,0.5786,0.5829,0.6065,0.6021,0.5957,0.5872,0.6187,0.6578,0.0,0.0,0.0,0.0,0.0,0.0,0.0,0.0,0.0,0.0,0.0,0.0,0.0,0.0,0.0,0.0,0.0,0.0,0.0,0.0,0.0,0.0,0.0,0.0,0.0,0.0,0.0,0.0,0.0,1.0308,0.0,1.0626,1.049,1.0446,1.0568,1.0787,1.1217,1.1913,0.0,0.0,0.0,0.0,0.0,0.0,1.6009,0.0,1.6467,1.6729,1.7133,1.7791,1.8428,1.8835,1.9121,1.9208,1.9285,1.9285,1.9791,2.0183,2.041,2.0711,2.0828,2.0903,2.1031,2.1158,2.1158,2.1158,2.1422,2.1804,2.1606,2.1672,2.1838,2.197,2.188,2.1706,2.2353,2.248,2.248,2.3525,2.3781,2.3781,0.0,0.0,0.0,0.0,0.0,0.0,0.0,0.0,0.0,0.0,0.6875,0.6999,0.7314,0.7282,0.7251,0.0,0.0,0.0,0.0,0.0,0.0,0.0,0.0,0.0,0.0,0.5778,0.5748,0.6046,0.5931,0.5847,0.5802,0.5941,0.5827,0.5552,0.6277,0.6985,0.0,0.0,0.0,0.0,0.0,0.0,0.0,0.0,0.0,0.0,0.6876,0.7099,0.0,0.0,0.0,0.0,0.0,0.0,0.0,0.0,0.9708,1.0132,0.9995,0.0,1.0498,1.0562,1.0805,1.1023,0.0,0.0,0.0,0.0,0.0,0.0,0.0,0.0,0.0,0.0,0.0,0.0,0.0,0.0,0.0,0.0,1.541,1.5478,1.5846,1.7028,1.7667,1.7585,1.8464,1.9027,1.9131,1.9008,1.9019,1.9274,1.9407,1.9726,2.0183,2.0431,2.0495,2.0495,2.0582,2.0593,2.0593,2.0733,2.0854,2.0978,2.0902,2.1031,2.116,2.1091,2.1057,2.1118,2.1551,2.1766,2.1979,2.2741,2.3062,2.3269,0.0,0.0,0.0,0.0,0.0,0.0,0.0,0.0,0.0,0.0,0.0,0.0,0.0,0.0,0.0,0.0,0.0,0.0,0.0,0.0,0.0,0.0,0.0,0.0,0.6437,0.6406,0.6417,0.6467,0.6648,0.6573,0.6295,0.6385,0.6204,0.5848,0.6651,0.7268,0.0,0.0,0.0,0.0,0.8021,0.0,0.0,0.0,0.0,0.0,0.7367,0.7552,0.0,0.8036,0.8174,0.8324,0.0,0.0,0.0,0.0,0.9905,1.0374,1.0374,1.059,1.0779,1.0756,1.0939,1.1226,0.0,0.0,0.0,0.0,0.0,0.0,0.0,0.0,0.0,0.0,0.0,0.0,0.0,0.0,0.0,1.5167,1.5371,1.5546,1.5672,1.6697,1.7379,1.7585,1.8232,1.8781,1.9065,1.9008,1.9008,1.9208,1.9208,1.9407,1.9857,1.9987,2.0107,2.0226,2.0194,2.027,2.041,2.041,2.0532,2.0808,2.0808,2.0797,2.0917,2.0797,2.0664,2.0551,2.0818,2.0995,2.1205,2.1957,2.2285,2.2488,0.0,0.0,0.0,0.0,0.0,0.0,0.0,0.0,0.0,0.0,0.0,0.0,0.0,0.0,0.0,0.0,0.0,0.0,0.0,0.0,0.0,0.0,0.0,0.6824,0.6651,0.6975,0.7051,0.688,0.737,0.7389,0.6959,0.6853,0.6645,0.6408,0.7098,0.7521,0.0,0.0,0.8949,0.8668,0.8887,0.0,0.0,0.0,0.0,0.0,0.0,0.0,0.0,0.8675,0.8837,0.8918,0.9056,0.0,0.0,0.0,0.0,0.0,1.0663,1.0846,1.099,1.0808,1.1068,1.1368,0.0,0.0,0.0,0.0,0.0,0.0,0.0,0.0,0.0,0.0,0.0,0.0,0.0,0.0,0.0,1.504,1.5556,0.0,1.5788,1.6307,1.6941,1.7698,1.8015,1.8465,1.9044,1.9075,1.9075,1.9075,1.9075,1.9208,1.9539,1.9539,1.9671,1.9977,1.9857,2.0009,2.0346,2.0151,2.0369,2.0751,2.0751,2.0751,2.0751,2.0751,2.0511,2.0151,2.0281,2.0346,2.0466,2.1216,2.1506,2.1706,0.0,0.0,0.0,0.0,0.0,0.0,0.0,0.0,0.0,0.0,0.0,0.0,0.0,0.0,0.0,0.0,0.0,0.0,0.0,0.0,0.0,0.0,0.7023,0.6891,0.6858,0.7131,0.7125,0.6816,0.7071,0.704,0.6729,0.6505,0.6512,0.6753,0.7202,0.77,0.8223,0.8904,0.9274,0.9425,0.9289,0.0,0.0,0.0,0.0,0.0,0.0,0.0,0.0,0.9447,0.9677,0.9697,0.9686,0.0,0.0,0.0,0.0,0.0,1.0491,1.1043,1.166,1.1944,1.2199,1.2384,0.0,0.0,0.0,0.0,0.0,0.0,0.0,0.0,0.0,0.0,0.0,1.2885,0.0,0.0,1.4573,1.4765,0.0,1.5652,1.6181,1.6999,1.7585,1.7822,1.8366,1.8803,1.9065,1.8942,1.8942,1.9065,1.9075,1.9142,1.9208,1.9208,1.9274,1.9407,1.9539,1.9736,1.9998,2.0074,2.0118,2.0183,2.0183,2.0183,2.0183,2.0183,2.014,2.0085,2.0151,2.0281,2.0422,2.0564,2.077,2.1096,0.0,0.0,0.0,0.0,0.0,0.0,0.0,0.0,0.0,0.0,0.0,0.0,0.0,0.0,0.0,0.0,0.0,0.0,0.0,0.0,0.0,0.7466,0.7217,0.7009,0.6908,0.726,0.7217,0.674,0.7137,0.7069,0.6604,0.6881,0.7012,0.7051,0.797,0.843,0.8571,0.9285,0.9619,0.9712,0.0,0.0,0.0,0.0,0.0,0.0,0.0,0.0,0.0,0.0,1.0041,1.0203,1.0349,0.0,0.0,0.0,0.0,0.0,1.0676,1.1208,1.1801,1.2307,1.251,1.255,1.2647,0.0,0.0,0.0,0.0,0.0,0.0,0.0,0.0,0.0,0.0,1.3314,1.3723,1.4211,1.4696,0.0,1.542,1.5836,1.6239,1.7071,1.7657,1.7883,1.8493,1.8875,1.9075,1.9008,1.8998,1.9075,1.9075,1.9075,1.9075,1.9142,1.9274,1.9473,1.955,1.9736,2.0009,2.0074,2.0085,2.0085,2.0085,2.0085,2.0085,2.0085,2.0085,2.0085,2.0085,2.0151,2.0281,2.0475,2.0722,2.1001,0.0,0.0,0.0,0.0,0.0,0.0,0.0,0.0,0.0,0.0,0.0,0.0,0.0,0.0,0.0,0.0,0.0,0.0,0.0,0.0,0.7739,0.7605,0.7236,0.7021,0.6993,0.7436,0.7359,0.6803,0.7304,0.7318,0.6862,0.7386,0.7611,0.7598,0.8727,0.9088,0.8911,0.9667,0.9982,0.9982,0.0,0.0,0.0,0.0,0.0,0.0,0.0,0.0,0.0,0.0,0.0,0.0,0.0,0.0,0.0,1.0396,1.0486,1.0559,1.0811,1.1202,1.1705,1.2359,0.0,1.2608,1.2725,0.0,0.0,0.0,0.0,0.0,0.0,0.0,0.0,0.0,1.3031,1.3534,1.4063,1.4478,1.4878,1.5371,1.572,1.6077,1.641,1.7121,1.7657,1.7883,1.8482,1.8942,1.9075,1.9075,1.9075,1.9075,1.9075,1.9142,1.9142,1.9285,1.9407,1.9605,1.9671,1.9878,2.0151,2.0151,2.0151,2.0151,2.0151,2.0151,2.0085,2.0085,2.0085,2.0085,2.0085,2.0085,2.0151,2.0475,2.0722,2.0903,0.0,0.0,0.0,0.0,0.0,0.0,0.0,0.0,0.0,0.0,0.0,0.0,0.0,0.0,0.0,0.0,0.0,0.0,0.0,0.0,0.7739,0.7605,0.6928,0.6772,0.7253,0.7601,0.7539,0.7079,0.7539,0.7822,0.7882,0.7748,0.8024,0.8615,0.9085,0.9321,0.9406,1.0003,1.0374,1.0523,1.0349,0.0,0.0,0.0,0.0,0.0,0.0,0.0,0.0,0.0,0.0,0.0,0.0,0.0,1.1025,1.0687,1.0526,1.0493,1.0522,1.0937,1.1452,1.2076,0.0,0.0,1.2647,1.2929,0.0,0.0,0.0,0.0,0.0,0.0,1.2175,1.2767,1.3058,1.3341,1.3636,0.0,1.5235,1.5352,1.5826,1.6285,1.6705,1.7311,1.7729,1.7883,1.8612,1.9065,1.9075,1.9075,1.9075,1.9075,1.9075,1.9142,1.9285,1.9285,1.9407,1.9605,1.9802,2.0074,2.041,2.041,2.041,2.041,2.041,2.0281,2.0085,2.0085,2.0085,2.0085,2.0085,2.0085,2.0151,2.0346,2.054,2.0797,0.0,0.0,0.0,0.0,0.0,0.0,0.0,0.0,0.0,0.0,0.0,0.0,0.0,0.0,0.0,0.0,0.0,0.0,0.0,0.0,0.7409,0.7768,0.6997,0.687,0.753,0.7112,0.6953,0.7096,0.761,0.7941,0.8073,0.8805,0.9183,0.9285,0.9807,1.0009,0.9987,1.0258,1.0424,1.0523,1.0498,1.0399,0.0,0.0,0.0,0.0,0.0,0.0,0.0,0.0,1.1349,1.1792,1.1866,1.1453,1.0978,1.1089,1.0935,1.0765,1.0881,1.1325,1.1743,1.1777,0.0,0.0,0.0,0.0,0.0,0.0,0.0,0.0,0.0,0.0,1.3351,1.3201,1.3614,1.4015,1.415,1.47,1.5205,1.5478,1.5778,1.6239,1.6853,1.7361,1.7791,1.8099,1.8687,1.9075,1.8942,1.8942,1.8875,1.8741,1.8942,1.9142,1.9208,1.9473,1.9736,1.9813,1.9868,2.0009,2.0216,2.0346,2.041,2.041,2.054,2.0475,2.0281,2.0281,2.0205,2.0085,2.0085,2.0151,2.0346,2.0593,2.085,2.1106,0.0,0.0,0.0,0.0,0.0,0.0,0.0,0.0,0.0,0.0,0.0,0.0,0.0,0.0,0.0,0.0,0.0,0.0,0.7118,0.7197,0.7432,0.7811,0.7107,0.7036,0.7739,0.6726,0.652,0.7214,0.7578,0.7991,0.8461,0.9322,0.9807,0.9983,1.0385,1.0523,1.0424,1.0449,1.0498,1.0572,1.0548,1.0449,0.0,0.0,0.0,0.0,0.0,0.0,0.0,0.0,1.1564,1.1964,1.2141,1.1718,1.1184,1.1424,1.1325,1.1141,1.1173,1.147,1.1767,0.0,0.0,0.0,0.0,0.0,0.0,0.0,0.0,0.0,0.0,0.0,0.0,0.0,1.4144,1.4538,1.4625,1.4911,1.5254,1.5468,1.5778,1.6243,1.6884,1.7384,1.7854,1.8114,1.8705,1.8942,1.8751,1.8674,1.8617,1.8482,1.8808,1.9075,1.9142,1.9605,1.9802,1.9802,1.9802,1.9933,2.0216,2.0346,2.041,2.0475,2.0669,2.0604,2.041,2.041,2.0346,2.0216,2.0281,2.0346,2.0529,2.0722,2.0967,2.1158,0.0,0.0,0.0,0.0,0.0,0.0,0.0,0.0,0.0,0.0,0.0,0.0,0.0,0.0,0.0,0.0,0.0,0.0,0.7797,0.7928,0.7913,0.7709,0.7187,0.721,0.7896,0.6601,0.6442,0.7499,0.7452,0.8039,0.9202,0.9141,0.9708,1.0801,1.0729,1.0705,1.0705,1.0632,1.0632,1.0681,1.0474,1.0399,1.0399,0.0,0.0,0.0,0.0,0.0,0.0,0.0,1.1903,1.2508,1.2401,1.2174,1.1884,1.1745,1.1649,1.1542,1.1287,1.1276,1.148,0.0,0.0,0.0,0.0,0.0,0.0,0.0,0.0,1.4135,1.4202,0.0,0.0,1.4608,1.4561,1.4597,1.497,1.5254,1.541,1.541,1.5816,1.6287,1.6746,1.7328,1.778,1.8083,1.8543,1.8741,1.8539,1.8482,1.8482,1.8482,1.8684,1.8942,1.9285,1.9483,1.9605,1.9605,1.9605,1.9878,2.041,2.041,2.054,2.0669,2.0669,2.0604,2.041,2.041,2.041,2.041,2.0604,2.0669,2.0669,2.0733,2.0786,2.1019,0.0,0.0,0.0,0.0,0.0,0.0,0.0,0.0,0.0,0.0,0.0,0.0,0.0,0.0,0.0,0.0,0.0,0.0,0.7099,0.7125,0.739,0.7898,0.727,0.7301,0.8158,0.7781,0.7434,0.7157,0.8266,0.9009,0.9423,1.0172,1.0666,1.0944,1.0825,1.0801,1.0825,1.0825,1.0801,1.0777,1.0753,1.0632,1.0474,0.0,0.0,0.0,0.0,0.0,0.0,0.0,0.0,0.0,1.2294,1.2174,1.2004,1.1756,1.1734,1.1778,1.1927,1.2333,0.0,0.0,0.0,0.0,0.0,0.0,0.0,0.0,0.0,1.4457,1.4367,1.4772,0.0,1.4768,1.4859,1.5029,1.5156,1.5313,1.5478,1.5604,1.5846,1.6138,1.6502,1.6855,1.7174,1.748,1.8154,1.8404,1.8087,1.8445,1.8684,1.8482,1.8808,1.9075,1.9285,1.9351,1.9417,1.9417,1.9417,1.955,1.9878,2.0053,2.0388,2.0733,2.1031,2.1031,2.0711,2.0669,2.0604,2.0604,2.0669,2.0786,2.0839,2.1094,2.1285,2.1561,0.0,0.0,0.0,0.0,0.0,0.0,0.0,0.0,0.0,0.0,0.0,0.0,0.0,0.0,0.0,0.0,0.0,0.0,0.0,0.7013,0.7276,0.7523,0.7375,0.7505,0.7934,0.8227,0.7986,0.7199,0.8318,0.8982,0.9209,1.0042,1.0547,1.0765,1.0833,1.092,1.1015,1.0991,1.0968,1.092,1.0873,1.0753,1.0621,0.0,0.0,0.0,0.0,0.0,0.0,0.0,0.0,0.0,1.2295,0.0,1.2197,1.1954,1.1979,1.2155,1.2451,0.0,0.0,0.0,0.0,0.0,0.0,0.0,0.0,0.0,0.0,1.5318,1.5419,1.5736,0.0,1.5588,1.5598,1.5614,1.5556,1.5652,1.5652,1.5672,1.5846,1.6161,1.6704,1.6925,1.7181,1.7604,1.8081,1.8274,1.7906,1.8374,1.8674,1.8617,1.8942,1.9114,1.9133,1.9388,1.9378,1.9133,1.9133,1.9228,1.9473,1.9791,2.0118,2.0453,2.0828,2.0903,2.085,2.0786,2.085,2.0914,2.0978,2.0967,2.1031,2.1146,2.1348,2.1561,0.0,0.0,0.0,0.0,0.0,0.0,0.0,0.0,0.0,0.0,0.0,0.0,0.0,0.0,0.0,0.0,0.0,0.0,0.0,0.0,0.7414,0.6925,0.7583,0.7803,0.7483,0.8161,0.8213,0.7584,0.7979,0.8379,0.8781,0.9263,0.9824,1.0498,1.0855,1.1085,1.1215,1.1132,1.1108,1.1085,1.0897,1.0825,1.0777,1.0632,0.0,0.0,0.0,0.0,0.0,0.0,0.0,0.0,1.2352,1.2437,1.2413,1.2246,1.2354,1.2555,1.2834,0.0,0.0,0.0,0.0,0.0,0.0,0.0,0.0,1.576,0.0,1.6428,1.6925,1.6909,1.6761,1.6637,1.6467,1.6296,1.6171,1.6171,1.6056,1.5788,1.6009,1.644,1.7134,1.7222,1.7436,1.7953,1.8194,1.8171,1.7849,1.8197,1.8485,1.8685,1.8926,1.8982,1.8839,1.9544,1.9501,1.8839,1.8945,1.9125,1.9285,1.9497,1.9748,2.0172,2.0324,2.054,2.0733,2.085,2.1031,2.1158,2.1336,2.1273,2.1169,2.0967,2.1031,2.1221,0.0,0.0,0.0,0.0,0.0,0.0,0.0,0.0,0.0,0.0,0.0,0.0,0.0,0.0,0.0,0.0,0.0,0.0,0.0,0.0,0.7216,0.7727,0.8204,0.8335,0.8106,0.8469,0.8522,0.8195,0.8556,0.8947,0.942,0.9902,1.047,1.1093,1.0982,1.1108,1.1421,1.1262,1.1192,1.1155,1.1062,1.0968,1.0849,1.0656,1.0597,0.0,0.0,0.0,0.0,0.0,0.0,0.0,1.201,1.2313,1.2603,1.2413,1.2401,1.2519,0.0,1.3474,0.0,0.0,0.0,0.0,0.0,0.0,0.0,1.6505,1.6607,1.6709,1.7092,1.6853,1.6694,1.6751,1.6637,1.6581,1.6637,1.6637,1.6581,1.641,1.6363,1.6321,1.6389,1.6502,1.6707,1.6894,1.7308,1.7457,1.7215,1.7647,1.7883,1.7925,1.8489,1.8596,1.8185,1.919,1.9306,1.851,1.934,1.9575,1.9264,1.9265,1.9746,2.07,2.0658,2.0797,2.1106,2.0967,2.0903,2.0967,2.1158,2.1031,2.085,2.1031,2.1031,2.1031,0.0,0.0,0.0,0.0,0.0,0.0,0.0,0.0,0.0,0.0,0.0,0.0,0.0,0.0,0.0,0.0,0.0,0.0,0.0,0.0,0.762,0.8162,0.8454,0.8554,0.8504,0.86,0.86,0.8495,0.8831,0.9073,0.923,0.989,1.0435,1.0813,1.0829,1.1062,1.1399,1.1262,1.1215,1.1239,1.1085,1.0991,1.0873,1.0681,1.0597,1.0548,1.0523,0.0,0.0,0.0,0.0,0.0,0.0,0.0,1.2462,1.2519,1.2556,1.2711,0.0,0.0,0.0,0.0,0.0,0.0,0.0,0.0,1.6699,1.7029,1.7247,1.7418,1.7523,1.7346,1.7245,1.72,1.7145,1.7145,1.7145,1.7099,1.6987,1.6797,1.6694,1.6628,1.678,1.666,1.6686,1.7022,1.7196,1.7273,1.7155,1.7481,1.7833,1.8155,1.8375,1.8394,1.8211,1.8889,1.8996,1.8562,1.9133,1.9445,1.9469,1.9544,1.9931,2.0506,2.0658,2.085,2.1031,2.1031,2.1094,2.1146,2.1273,2.1158,2.0914,2.0978,2.0914,2.0903,0.0,0.0,0.0,0.0,0.0,0.0,0.0,0.0,0.0,0.0,0.0,0.0,0.0,0.0,0.0,0.0,0.0,0.0,0.0,0.0,0.0,0.8356,0.8512,0.862,0.8672,0.8624,0.8587,0.8592,0.8933,0.0,0.0,0.0,1.0229,1.0442,1.0662,1.0968,1.133,1.1215,1.1215,1.1285,1.1108,1.0991,1.0897,1.0681,1.0597,1.0523,1.0572,1.0523,1.0478,1.0873,0.0,0.0,0.0,0.0,1.2296,1.2622,1.2745,1.2865,0.0,0.0,0.0,0.0,0.0,0.0,0.0,0.0,1.6872,1.7254,1.7709,1.8035,1.7995,1.7952,1.7854,1.7755,1.7767,1.77,1.7579,1.7479,1.7312,1.7123,1.7022,1.7081,1.7419,1.7109,1.7034,1.7371,1.7334,1.7217,1.7217,1.7405,1.7791,1.8302,1.8182,1.8134,1.8205,1.8654,1.8819,1.8687,1.8907,1.9238,1.9621,1.9995,2.0172,2.0237,2.0529,2.0786,2.0903,2.1031,2.1221,2.1325,2.1325,2.121,2.1106,2.0797,2.0666,2.0651,0.0,0.0,0.0,0.0,0.0,0.0,0.0,0.0,0.0,0.0,0.0,0.0,0.0,0.0,0.0,0.0,0.0,0.0,0.7171,0.0,0.0,0.8234,0.8457,0.8587,0.8517,0.8579,0.8579,0.8521,0.0,0.0,0.0,0.0,0.0,1.0982,0.0,1.0897,1.1444,1.1085,1.1085,1.1285,1.1215,1.1085,1.0968,1.0753,1.0632,1.0597,1.0523,1.0498,1.0512,1.0566,1.0847,0.0,0.0,0.0,1.2419,1.2726,1.2745,1.2686,0.0,0.0,0.0,0.0,0.0,0.0,0.0,0.0,1.6741,0.0,1.7498,1.7979,1.8424,1.817,1.7909,1.803,1.7975,1.7854,1.7854,1.7854,1.7744,1.7645,1.7479,1.739,1.7231,1.7244,1.7177,1.7108,1.7051,1.7006,1.6846,1.691,1.6916,1.6854,1.7344,1.7525,1.7427,1.8311,1.8687,1.8698,1.9225,1.9432,1.9313,2.0054,2.0464,2.0593,2.0669,2.0786,2.0903,2.0786,2.085,2.0967,2.0967,2.0903,2.0733,2.0733,2.0325,1.9832,0.0,0.0,0.0,0.0,0.0,0.0,0.0,0.0,0.0,0.0,0.0,0.0,0.0,0.0,0.0,0.5862,0.5847,0.6348,0.7712,0.8176,0.8387,0.8374,0.8551,0.864,0.862,0.8628,0.8604,0.8508,0.0,0.0,0.0,0.9869,1.028,0.0,0.0,0.0,0.0,1.1424,1.1583,1.1556,1.1308,1.1397,1.1615,1.1162,1.1137,1.1306,1.1211,1.1238,1.1333,1.1319,1.1252,1.1302,1.183,0.0,0.0,0.0,1.2697,0.0,0.0,0.0,0.0,0.0,0.0,0.0,0.0,0.0,1.6322,1.7002,1.7395,1.7811,1.8578,1.8452,1.829,1.8344,1.8302,1.8193,1.8193,1.779,1.7614,1.7886,1.7497,1.7267,1.7545,1.7479,1.7368,1.7301,1.7123,1.6955,1.6909,1.6864,1.6878,1.7085,1.7184,1.7338,1.7499,1.7854,1.8137,1.8412,1.9017,1.9199,1.907,1.9516,1.9716,1.98,2.0422,2.0628,2.0495,2.0726,2.0903,2.1031,2.0967,2.0839,2.0786,2.0604,2.0153,1.9669,0.0,0.0,0.0,0.0,0.0,0.0,0.0,0.0,0.0,0.0,0.0,0.0,0.0,0.0,0.0,0.0,0.6329,0.6837,0.8219,0.8444,0.8504,0.8501,0.8624,0.8672,0.8669,0.8657,0.8608,0.0,0.0,0.0,0.954,0.9761,1.013,0.0,1.0938,0.0,0.0,0.0,0.0,1.1884,1.1568,1.1718,1.2097,1.1635,1.1644,1.1873,1.167,1.1724,1.1822,1.1564,1.1334,1.1258,1.1808,1.1883,0.0,0.0,0.0,0.0,0.0,0.0,0.0,0.0,0.0,0.0,0.0,0.0,1.6215,0.0,1.74,1.7786,1.8754,1.8786,1.8614,1.8614,1.8518,1.8375,1.8193,1.7686,1.753,1.7909,1.7493,1.7342,1.7972,1.7799,1.7634,1.759,1.7301,1.7123,1.7078,1.6976,1.7091,1.7376,1.7091,1.7191,1.7664,1.7606,1.7665,1.7906,1.8449,1.8614,1.8504,1.8829,1.8736,1.8511,1.9923,2.038,2.0177,2.0561,2.0903,2.1031,2.0839,2.0775,2.0775,2.0529,2.009,1.9669,0.0,0.0,0.0,0.0,0.0,0.0,0.0,0.0,0.0,0.0,0.0,0.0,0.4275,0.4201,0.4769,0.6185,0.6363,0.702,0.8477,0.8587,0.8575,0.8508,0.8567,0.0,0.8599,0.8533,0.8508,0.0,0.0,0.0,0.9871,0.9569,1.0228,1.1598,1.1188,1.1434,1.219,0.0,0.0,0.0,1.2084,1.2039,1.2023,1.2099,1.2037,1.1848,1.1465,1.1375,1.1305,1.0607,1.0647,1.1027,1.1056,1.1455,1.1971,0.0,0.0,0.0,0.0,0.0,0.0,0.0,0.0,0.0,0.0,0.0,1.666,1.7327,1.7654,1.8093,1.9172,1.8934,1.8614,1.8614,1.8614,1.8395,1.7705,1.7716,1.7756,1.7636,1.7716,1.7943,1.8309,1.8193,1.7975,1.7711,1.759,1.7423,1.7278,1.7278,1.7222,1.7043,1.6874,1.7031,1.7536,1.7642,1.7474,1.7054,1.7539,1.7528,1.7108,1.7894,1.7771,1.7024,1.9061,1.9918,1.9929,2.0253,2.054,2.0733,2.0475,2.054,2.0669,2.0475,2.009,1.9669,0.0,0.0,0.0,0.0,0.0,0.0,0.0,0.0,0.0,0.0,0.0,0.0,0.0,0.4924,0.5343,0.6469,0.7013,0.7265,0.7188,0.7627,0.7876,0.7865,0.8335,0.8592,0.8599,0.8575,0.0,0.0,0.0,0.8862,0.9821,0.9633,1.0321,1.1744,1.154,1.1654,1.2046,1.2367,0.0,0.0,0.0,0.0,0.0,0.0,0.0,0.0,0.0,0.0,1.2246,1.1988,1.1479,1.11,1.1763,1.1763,1.166,0.0,0.0,0.0,0.0,0.0,0.0,0.0,0.0,0.0,1.5588,1.6325,1.6905,1.7115,1.7702,1.825,1.8576,1.8482,1.8327,1.8211,1.7836,1.758,1.7577,1.7259,1.7243,1.7848,1.7746,1.7798,1.8147,1.8139,1.792,1.7423,1.7468,1.7368,1.6987,1.7088,1.7078,1.7011,1.6864,1.6892,1.7052,1.7109,1.7024,1.6864,1.7034,1.6967,1.6751,1.7022,1.6943,1.6566,1.7717,1.842,1.8692,1.9127,1.9647,2.0142,1.9705,1.9909,2.0398,1.964,1.9175,1.8866,0.0,0.0,0.0,0.0,0.0,0.0,0.0,0.0,0.0,0.0,0.0,0.0,0.0,0.0,0.5966,0.6854,0.7397,0.7547,0.7166,0.7584,0.7832,0.7844,0.8335,0.8596,0.8599,0.8599,0.8575,0.0,0.0,0.0,0.0,0.967,1.0448,1.2063,1.1891,1.1951,0.0,0.0,0.0,1.298,0.0,0.0,1.3265,0.0,0.0,0.0,0.0,0.0,0.0,1.2257,1.1611,1.108,1.1685,0.0,0.0,0.0,0.0,0.0,0.0,0.0,0.0,0.0,0.0,1.4437,1.5281,0.0,1.6732,1.6871,1.7434,1.7995,1.8196,1.7955,1.7772,1.793,1.7642,1.7329,1.714,1.6938,1.7027,1.7594,1.7694,1.7798,1.8147,1.8139,1.792,1.7468,1.7468,1.7368,1.6987,1.6965,1.688,1.6663,1.6666,1.6574,1.6416,1.6451,1.6534,1.6648,1.6581,1.6524,1.6524,1.6457,1.6343,1.6249,1.6684,1.7185,1.7824,1.8311,1.8862,1.9309,1.8868,1.908,1.9572,1.8805,1.8455,1.8351,0.0,0.0,0.0,0.0,0.0,0.0,0.0,0.0,0.0,0.0,0.0,0.0,0.0,0.0,0.0,0.7308,0.7454,0.7801,0.8489,0.8497,0.846,0.8465,0.8542,0.8587,0.8599,0.8599,0.8575,0.0,0.0,0.0,0.0,0.0,1.0538,1.255,1.217,1.2294,1.2818,0.0,1.3198,1.3179,0.0,1.2798,1.2758,0.0,0.0,0.0,1.2309,1.21,0.0,1.1159,0.0,0.0,0.0,0.0,0.0,0.0,0.0,0.0,0.0,0.0,0.0,0.0,0.0,0.0,1.4767,0.0,1.6146,1.6578,1.6837,1.7225,1.8015,1.7412,1.7002,1.7635,1.7942,1.7635,1.6302,1.6714,1.7081,1.6822,1.7377,1.7943,1.8298,1.8182,1.8007,1.7875,1.7611,1.7401,1.7278,1.7067,1.6663,1.5942,1.6217,1.6125,1.567,1.5822,1.6056,1.6363,1.6161,1.6171,1.6374,1.6181,1.6114,1.6056,1.5961,1.6379,1.7284,1.7906,1.8158,1.8169,1.8158,1.8169,1.8179,1.8158,1.8158,1.8169,0.0,0.0,0.0,0.0,0.0,0.0,0.0,0.0,0.0,0.0,0.0,0.0,0.7411,0.7298,0.7136,0.6784,0.7213,0.7313,0.689,0.7296,0.7605,0.7703,0.8144,0.8479,0.8669,0.8571,0.8521,0.8508,0.0,0.0,0.0,0.0,0.0,0.0,1.1816,1.2046,1.2384,1.2918,0.0,1.2885,1.2675,1.2522,0.0,0.0,0.0,0.0,0.0,1.1604,1.125,0.0,1.1085,1.0591,0.0,0.0,0.0,0.0,0.0,0.0,1.2077,0.0,0.0,0.0,0.0,0.0,1.4332,0.0,1.5872,1.6138,1.649,1.6807,1.7133,1.7219,1.7123,1.6763,1.6468,1.6197,1.5984,1.6423,1.6873,1.7088,1.7404,1.7595,1.7417,1.744,1.7227,1.6797,1.6775,1.6765,1.6786,1.6422,1.6069,1.5735,1.5538,1.5318,1.5194,1.5147,1.5382,1.5877,1.5756,1.5864,1.6181,1.6019,1.5904,1.5788,1.5798,1.5916,1.6153,1.6694,1.7168,1.7539,1.727,1.7594,1.8105,1.7445,1.7344,1.7529,0.0,0.0,0.0,0.0,0.0,0.0,0.0,0.0,0.0,0.0,0.0,0.0,0.8083,0.7731,0.7448,0.7227,0.7291,0.7228,0.6973,0.7341,0.7624,0.7767,0.817,0.8467,0.8645,0.8608,0.8583,0.8583,0.0,0.0,0.0,0.0,0.0,0.0,0.0,0.0,0.0,0.0,0.0,0.0,1.2508,0.0,0.0,1.1932,1.1843,0.0,0.0,0.0,1.0835,1.1388,1.1087,0.0,0.0,0.0,0.0,0.0,0.0,0.0,0.0,0.0,0.0,0.0,0.0,0.0,1.3508,1.4378,1.5107,1.5314,1.5775,1.6216,1.6384,1.6491,1.6386,1.5936,1.5314,1.5141,1.5891,1.6226,1.6546,1.686,1.6968,1.6917,1.6658,1.6606,1.645,1.6083,1.6019,1.6117,1.6311,1.598,1.5696,1.5347,1.5211,1.4932,1.4553,1.4518,1.4894,1.5625,1.5461,1.5593,1.5951,1.5792,1.5622,1.5519,1.5405,1.5446,1.5604,1.5961,1.6355,1.6677,1.6524,1.6742,1.7197,1.6618,1.6529,1.6667,0.0,0.0,0.0,0.0,0.0,0.0,0.0,0.0,0.0,0.0,0.8953,0.8767,0.8647,0.798,0.7755,0.8281,0.7766,0.7577,0.7966,0.8129,0.8228,0.8303,0.8419,0.8521,0.8599,0.8657,0.8681,0.8669,0.0,0.0,0.0,0.0,0.0,0.0,0.0,0.0,0.0,0.0,0.0,1.2861,1.2389,1.2138,0.0,0.0,1.1378,1.1368,1.1381,1.1037,1.062,1.1029,1.0916,0.0,0.0,0.0,0.0,0.0,1.0649,0.0,0.0,0.0,0.0,0.0,1.2063,0.0,1.2508,1.3313,1.4084,1.4247,1.4798,1.5285,1.5568,1.5326,1.5107,1.5051,1.4395,1.4405,1.5741,1.5986,1.6112,1.6264,1.6232,1.6143,1.5952,1.5738,1.5615,1.5574,1.5464,1.55,1.5753,1.5579,1.5285,1.4716,1.4986,1.473,1.3821,1.4004,1.4473,1.5308,1.5198,1.5304,1.568,1.5495,1.5361,1.5265,1.5153,1.5249,1.5478,1.5614,1.5798,1.5856,1.5914,1.5914,1.5914,1.5914,1.5914,1.5914,1.0011,0.0,0.0,0.0,0.0,0.0,0.0,0.0,0.0,0.0,0.8863,0.8956,0.9427,0.9221,0.9076,0.9088,0.9249,0.8953,0.7988,0.8485,0.8666,0.8319,0.8382,0.8473,0.8587,0.862,0.8554,0.846,0.0,0.0,0.0,0.0,0.0,0.0,0.0,0.0,0.0,0.0,0.0,1.299,1.2365,1.1957,1.1627,1.102,1.0703,1.0636,1.0673,1.0527,1.0361,1.0921,1.0903,1.0702,0.0,0.0,0.0,1.0449,0.0,0.0,0.0,0.0,0.0,0.0,1.1823,0.0,1.2153,1.2574,1.31,1.3579,1.3512,1.3535,1.3906,1.3918,1.3746,1.3496,1.3406,1.3714,1.48,1.4946,1.5079,1.562,1.5568,1.5421,1.5137,1.5088,1.5027,1.4917,1.5118,1.5111,1.4797,1.4522,1.4379,1.4236,1.4175,1.3912,1.3349,1.361,1.3929,1.4205,1.4061,1.4546,1.5516,1.5395,1.5487,1.5783,1.5726,1.5708,1.5614,1.5672,1.574,1.574,1.5856,1.5914,1.5914,1.5914,1.5914,1.5914,1.0005,0.0,0.0,0.0,0.0,0.0,0.0,0.0,0.0,0.0,0.9363,0.9356,0.9525,0.9428,0.9295,0.9111,0.9204,0.9089,0.8672,0.8484,0.8439,0.8545,0.8322,0.8287,0.8447,0.8387,0.8345,0.8348,0.0,0.0,0.0,0.0,0.0,0.0,0.0,0.0,0.0,0.0,1.2215,1.2733,1.2473,0.0,1.1859,1.1386,1.0958,1.0633,1.0507,1.0413,1.04,1.0621,1.0621,0.0,1.083,1.0539,1.0155,0.0,1.0495,1.0582,0.0,0.0,0.0,1.0916,1.1208,0.0,0.0,1.1851,1.2377,1.274,1.2865,1.2984,1.3065,1.3037,1.2889,1.2552,1.2351,1.253,1.3345,1.3926,1.4573,1.5392,1.4971,1.459,1.4457,1.4253,1.4146,1.4049,1.4208,1.4293,1.4304,1.4143,1.4043,1.3993,1.3861,1.3661,1.3363,1.35,1.3876,1.445,1.4198,1.438,1.505,1.472,1.4754,1.5074,1.5074,1.5266,1.5546,1.5546,1.5604,1.5672,1.5662,1.5662,1.5662,1.5662,1.5662,1.5662,0.9976,0.0,0.0,0.0,0.0,0.0,0.0,0.0,0.0,0.9844,0.9968,0.9906,0.9702,0.0,0.0,0.0,0.8873,0.8864,0.9183,0.8441,0.8208,0.8703,0.842,0.8333,0.848,0.8435,0.8433,0.8532,0.0,0.0,0.0,0.0,0.0,0.0,0.0,0.0,0.0,0.0,0.0,1.2365,0.0,1.2354,1.1991,1.1623,1.1188,1.071,1.0394,1.0335,1.0417,1.036,1.0334,1.0363,1.0651,1.0234,0.0,0.0,0.0,0.0,0.0,0.0,0.0,0.0,1.0649,1.0659,0.0,0.0,0.0,1.1765,1.2214,1.2524,1.2339,1.2225,1.2017,1.1642,1.1266,1.1215,1.1745,1.2647,1.3651,1.4758,1.4107,1.359,1.3627,1.3369,1.3236,1.3202,1.3226,1.3397,1.3729,1.3831,1.3871,1.3761,1.371,1.3578,1.3389,1.3467,1.391,1.4706,1.436,1.4337,1.4556,1.4184,1.412,1.431,1.4443,1.4824,1.536,1.5439,1.5546,1.5672,1.5478,1.541,1.5478,1.541,1.541,1.541,0.9912,0.9844,0.0,0.0,0.0,0.0,0.0,0.0,0.0,0.9582,1.0239,0.0,0.0,0.0,0.0,0.0,0.0,0.0,0.8537,0.0,0.0,0.8457,0.8902,0.915,0.9193,0.9347,0.9401,0.9362,0.9529,0.0,0.0,0.0,0.0,0.0,1.0148,0.0,0.0,0.0,1.1708,0.0,1.2365,1.2029,0.0,1.071,1.0351,1.0175,0.9989,1.004,1.0189,1.0398,1.0382,1.0318,1.0417,1.038,1.0279,1.0194,0.0,0.0,0.0,0.0,1.0736,1.0621,1.0649,1.0649,1.0428,0.0,1.074,1.0779,0.0,1.0946,1.0917,0.0,0.0,1.0146,1.0108,1.0214,1.04,1.0618,1.1273,1.2593,1.2354,1.2123,1.2365,1.2531,1.2561,1.2444,1.2684,1.2753,1.2513,1.2984,1.3203,1.3203,1.3421,1.333,1.2959,1.332,1.3555,1.3652,1.3603,1.3893,1.4427,1.4377,1.4387,1.4393,1.4934,1.5154,1.5061,1.5514,1.5672,1.5672,1.5478,1.5536,1.5614,1.5478,1.541,1.541,0.9838,0.9766,0.0,0.0,0.0,0.0,0.0,0.0,0.0,1.0001,0.0,0.0,0.0,0.0,0.0,0.0,0.0,0.8921,0.0,0.0,0.0,0.8328,0.8705,0.8831,0.8673,0.8893,0.8993,0.8967,0.9391,0.0,0.0,0.0,0.0,0.0,1.0072,0.0,1.0865,0.0,1.1224,0.0,0.0,1.1394,1.0725,1.0812,1.0467,0.9881,0.9636,0.9665,0.9811,0.9866,0.9914,0.9956,1.0047,1.0017,0.9987,1.0209,0.0,0.0,0.0,1.0092,0.9952,0.9952,0.9913,0.9913,1.001,1.0059,1.0098,1.0244,0.0,0.0,0.0,0.0,0.0,0.0,0.9032,0.8964,0.9288,0.9067,0.9605,1.1588,1.1456,1.1312,1.1483,1.1683,1.1767,1.1721,1.1729,1.1899,1.2299,1.2393,1.2607,1.3075,1.3155,1.3174,1.3242,1.3418,1.3633,1.3867,1.3623,1.3603,1.3883,1.3637,1.3606,1.3789,1.3965,1.4316,1.4795,1.4924,1.5262,1.5672,1.5478,1.5478,1.5536,1.541,1.541,1.541,0.9743,0.0,0.0,0.0,0.0,0.0,0.0,0.0,0.0,0.0,0.0,0.0,1.0221,0.9939,0.0,0.0,0.8664,0.8471,0.0,0.0,0.7983,0.8187,0.8601,0.8694,0.8445,0.8754,0.8899,0.8922,0.9435,0.9705,0.0,0.0,0.0,0.0,0.0,1.0119,1.051,0.0,1.0777,1.0579,1.1031,1.0829,1.0283,1.0725,1.0459,0.991,0.9569,0.9698,0.9959,0.9712,0.9686,0.9744,0.978,0.9628,0.9489,0.995,0.0,0.0,0.9752,0.9609,0.9412,0.9395,0.9279,0.9239,0.9408,0.9417,0.9426,0.9576,0.9576,0.0,0.0,0.0,0.8921,0.8638,0.0,0.8002,0.8125,0.7976,0.8528,1.0371,1.0504,1.0498,1.077,1.0925,1.0988,1.1007,1.0916,1.1111,1.1738,1.1862,1.2224,1.2871,1.2929,1.3077,1.333,1.334,1.3494,1.3902,1.3601,1.3455,1.3455,1.3219,1.3179,1.3198,1.327,1.3714,1.4392,1.4506,1.4917,1.5498,1.542,1.541,1.541,1.541,1.541,1.541,0.9615,0.9643,0.0,0.0,0.0,0.0,0.0,0.0,0.0,0.0,0.0,0.0,0.0,0.0,0.0,0.0,0.0,0.7434,0.8365,0.0,0.7911,0.7907,0.8866,0.9271,0.0,0.9475,0.9701,0.9759,1.0042,1.0134,0.0,0.0,0.0,0.0,0.9802,0.9909,1.0242,1.0417,1.0365,1.0159,1.0542,1.0495,1.0079,1.0059,1.0155,1.0251,0.9989,1.041,1.0971,1.0446,1.0062,0.9814,0.9787,0.9383,0.8953,0.9166,0.9557,0.9776,0.9329,0.9495,0.9672,0.9142,0.8999,0.8941,0.8594,0.8561,0.8561,0.8561,0.8561,0.8528,0.8519,0.8206,0.7932,0.7847,0.7825,0.0,0.0,0.742,0.807,0.8545,0.9106,0.9666,1.0185,1.018,1.0161,1.0213,1.0409,1.0462,1.0381,1.1472,1.2167,1.2314,1.2832,1.3036,1.29,1.29,1.3066,1.332,1.3455,1.3455,1.3311,1.3565,1.3412,1.3063,1.3534,1.378,1.3892,1.4655,1.502,1.5029,1.5303,1.541,1.541,1.541,1.541,1.541,0.0,0.0,0.0,0.0,0.0,0.0,0.0,0.9574,0.0,0.0,1.0172,0.0,0.0,0.9401,0.9188,0.0,0.0,0.7954,0.8356,0.8279,0.8079,0.7726,0.8588,0.8973,0.0,0.8999,0.9169,0.9222,0.9425,0.9509,0.0,0.0,0.0,0.0,0.0,0.9939,0.0,0.0,0.0,0.0,0.0,0.9908,0.983,0.9876,0.9876,0.9875,0.9614,0.9492,0.9452,0.9201,0.8873,0.8573,0.8458,0.8306,0.8146,0.8156,0.833,0.8442,0.8229,0.8356,0.8476,0.8222,0.8259,0.83,0.8185,0.8152,0.816,0.8406,0.8054,0.7709,0.7645,0.7478,0.7258,0.0,0.6777,0.6607,0.0,0.6666,0.6999,0.7448,0.8163,0.8753,0.9161,0.9399,0.9508,0.9541,0.9532,0.983,1.0517,1.0804,1.137,1.2403,1.2529,1.2676,1.2881,1.2832,1.2802,1.2888,1.2788,1.2679,1.2638,1.2628,1.2517,1.2278,1.2355,1.277,1.3331,1.3532,1.4068,1.4834,1.4883,1.5069,1.5254,1.5362,1.541,1.541,0.8587,0.0,0.0,0.0,0.0,0.0,0.0,0.0,0.0,0.0,0.9538,0.0,0.9208,0.0,0.8664,0.0,0.8027,0.7775,0.8156,0.813,0.0,0.7609,0.8264,0.8504,0.0,0.0,0.8786,0.8866,0.9104,0.9167,0.9144,0.0,0.0,0.0,0.0,0.9548,0.9643,0.9785,0.9764,0.0,0.0,0.8744,0.8788,0.8896,0.9157,0.9468,0.9237,0.8981,0.8757,0.8543,0.8136,0.7705,0.753,0.7374,0.7224,0.7121,0.7195,0.7351,0.7272,0.7399,0.749,0.7473,0.7602,0.7697,0.7558,0.7523,0.753,0.7697,0.7175,0.6724,0.6626,0.6467,0.6293,0.0,0.0,0.5979,0.0,0.6115,0.6208,0.6825,0.7515,0.8043,0.8405,0.8771,0.8998,0.9096,0.9024,0.9364,1.0206,1.0508,1.1113,1.2128,1.2483,1.2764,1.2988,1.2832,1.2725,1.2627,1.2421,1.2332,1.2283,1.2282,1.2246,1.2144,1.2075,1.2458,1.3117,1.3108,1.3654,1.4538,1.4588,1.4775,1.502,1.5254,1.5362,1.541,0.853,0.0,0.0,0.0,0.8865,0.0,0.0,0.0,0.9139,0.0,0.9192,0.9106,0.8545,0.8039,0.775,0.787,0.715,0.6998,0.7748,0.7714,0.0,0.0,0.7985,0.8027,0.7739,0.0,0.0,0.8761,0.8993,0.9124,0.9156,0.0,0.0,0.0,0.8816,0.0,0.88,0.8948,0.8746,0.8246,0.7452,0.7078,0.7029,0.7134,0.7871,0.8877,0.8834,0.8818,0.8813,0.8411,0.7761,0.7083,0.7048,0.6643,0.62,0.6048,0.6261,0.6546,0.6535,0.6643,0.6775,0.6949,0.708,0.711,0.6806,0.6715,0.6666,0.6557,0.6062,0.5625,0.5514,0.5242,0.5077,0.0,0.0,0.5659,0.6195,0.5759,0.57,0.655,0.7054,0.7513,0.7921,0.8265,0.8588,0.8861,0.8918,0.9079,0.9384,1.0531,1.1292,1.1481,1.2635,1.3218,1.3027,1.2929,1.2725,1.248,1.248,1.2382,1.2292,1.2479,1.255,1.2568,1.2564,1.2785,1.3151,1.3314,1.3669,1.4163,1.441,1.4529,1.4715,1.5088,1.5254,1.5352,0.823,0.8373,0.8841,0.0,0.9204,0.8831,0.923,0.8889,0.0,0.0,0.8975,0.8936,0.8206,0.8111,0.8024,0.7889,0.7815,0.0,0.0,0.0,0.0,0.7847,0.7857,0.7887,0.7931,0.7711,0.779,0.8206,0.8107,0.8195,0.846,0.0,0.0,0.0,0.0,0.0,0.8594,0.9086,0.8922,0.8183,0.6675,0.6124,0.6069,0.5598,0.562,0.6059,0.7271,0.7418,0.6967,0.6887,0.6451,0.5892,0.5687,0.542,0.5153,0.5025,0.5236,0.5464,0.549,0.5826,0.6247,0.6521,0.6783,0.7013,0.7136,0.6796,0.6615,0.7084,0.6124,0.5245,0.5477,0.5334,0.5131,0.4795,0.0,0.0,0.5851,0.5492,0.5413,0.6047,0.6313,0.6735,0.7496,0.7662,0.7956,0.8417,0.8481,0.8808,0.9521,0.9675,1.0196,1.117,1.1316,1.1698,1.2323,1.2323,1.2274,1.2175,1.2076,1.2026,1.1977,1.1926,1.193,1.193,1.1926,1.2088,1.2312,1.27,1.309,1.3642,1.4004,1.43,1.4597,1.4911,1.5088,1.5137,0.8232,0.8966,0.0,1.0273,0.9649,0.9044,0.8855,0.8232,0.7784,0.7826,0.8289,0.8371,0.7725,0.7466,0.7339,0.7275,0.7133,0.0,0.7332,0.0,0.0,0.7095,0.7145,0.713,0.7043,0.7085,0.0,0.7382,0.7525,0.0,0.7645,0.0,0.0,0.0,0.0,0.7907,0.788,0.79,0.7745,0.7281,0.5577,0.4924,0.0,0.4468,0.4172,0.4168,0.5454,0.5717,0.547,0.561,0.5308,0.4879,0.4714,0.4568,0.4381,0.4207,0.4365,0.4619,0.4819,0.5257,0.5665,0.5997,0.6394,0.6748,0.6817,0.6641,0.6578,0.6835,0.6012,0.5247,0.5323,0.5184,0.4939,0.4653,0.4859,0.5144,0.5404,0.5302,0.5334,0.5763,0.5881,0.6142,0.6698,0.7093,0.7511,0.7928,0.814,0.8531,0.9125,0.9401,0.9935,1.0741,1.113,1.1563,1.1994,1.219,1.2234,1.2175,1.2076,1.1977,1.1977,1.1828,1.1778,1.1778,1.1678,1.1746,1.2017,1.2172,1.2697,1.3345,1.38,1.4001,1.4112,1.4488,1.4725,1.4902,0.8373,0.0,0.0,0.0,0.0,0.8797,0.806,0.7481,0.7048,0.6955,0.7393,0.7563,0.7051,0.6548,0.6192,0.624,0.5753,0.5675,0.6198,0.5945,0.5803,0.5995,0.6169,0.6085,0.5776,0.6284,0.6546,0.6454,0.6966,0.0,0.0,0.0,0.0,0.0,0.0,0.0,0.0,0.6244,0.6005,0.6047,0.4378,0.3781,0.3836,0.3656,0.3344,0.3123,0.3741,0.4045,0.426,0.4578,0.4399,0.4049,0.406,0.3972,0.384,0.3622,0.3663,0.391,0.4367,0.4745,0.5154,0.5555,0.6063,0.6415,0.6235,0.6365,0.6412,0.6194,0.5734,0.5329,0.5081,0.4862,0.4739,0.4862,0.4976,0.5074,0.5203,0.5266,0.0,0.0,0.5681,0.0,0.5853,0.6505,0.7073,0.7379,0.7817,0.819,0.8573,0.9322,0.992,1.0306,1.1318,1.1845,1.1865,1.2242,1.2382,1.2234,1.2126,1.2076,1.2076,1.1977,1.1877,1.1877,1.1628,1.1669,1.193,1.1877,1.2315,1.3168,1.3608,1.3672,1.3425,1.3791,1.4146,1.444,0.8369,0.0,0.0,0.0,0.0,0.6271,0.7145,0.744,0.7318,0.6613,0.6803,0.6741,0.6133,0.5797,0.5444,0.4957,0.5111,0.5155,0.4959,0.523,0.5389,0.5429,0.5459,0.5514,0.5545,0.5404,0.5448,0.5699,0.5677,0.5902,0.0,0.0,0.0,0.0,0.0,0.0,0.7091,0.592,0.5519,0.553,0.3551,0.3031,0.3473,0.3173,0.3084,0.317,0.3132,0.3126,0.3252,0.3877,0.3921,0.3785,0.3788,0.3707,0.3622,0.335,0.3394,0.3534,0.3742,0.43,0.4939,0.5231,0.581,0.6303,0.6287,0.6033,0.5808,0.6012,0.5332,0.4714,0.4837,0.4699,0.4833,0.5779,0.554,0.5523,0.6301,0.5805,0.0,0.0,0.5564,0.5536,0.5706,0.592,0.629,0.6872,0.7115,0.7584,0.8471,0.852,0.9106,1.0419,1.0398,1.083,1.1711,1.1882,1.1977,1.1977,1.2076,1.2076,1.2076,1.1977,1.1877,1.1877,1.1719,1.1663,1.1599,1.187,1.226,1.2724,1.2785,1.2811,1.2755,1.2755,1.2811,1.3079,0.7813,0.0,0.0,0.0,0.7608,0.5992,0.6366,0.6021,0.5624,0.5406,0.5608,0.5578,0.4995,0.4942,0.4745,0.4186,0.4135,0.4053,0.3963,0.404,0.409,0.4194,0.4289,0.4324,0.4291,0.4387,0.4414,0.4367,0.4543,0.484,0.5208,0.5373,0.0,0.0,0.0,0.6289,0.0,0.5505,0.5246,0.546,0.369,0.3214,0.3517,0.3087,0.2818,0.2726,0.2776,0.2595,0.2457,0.3258,0.3439,0.3306,0.3571,0.3575,0.3486,0.335,0.3439,0.3571,0.3707,0.432,0.4907,0.4964,0.5559,0.6097,0.6034,0.5846,0.5707,0.5786,0.537,0.4916,0.4812,0.4782,0.4898,0.5297,0.5091,0.5085,0.5636,0.5444,0.5381,0.0,0.0,0.0,0.589,0.5944,0.6137,0.661,0.6959,0.747,0.8206,0.8294,0.874,0.964,0.9752,1.0071,1.0617,1.1268,1.158,1.158,1.1926,1.2076,1.2076,1.1977,1.1877,1.1778,1.1669,1.1528,1.1403,1.1739,1.1997,1.2232,1.2477,1.2555,1.25,1.25,1.25,1.2581,0.0,0.7817,0.0,0.0,0.7101,0.5601,0.5465,0.4349,0.373,0.4212,0.4358,0.4319,0.3942,0.3932,0.3785,0.3375,0.3092,0.2979,0.2956,0.284,0.281,0.2946,0.3055,0.3089,0.3034,0.3393,0.3371,0.3043,0.3495,0.3878,0.4214,0.4525,0.4871,0.0,0.5516,0.5732,0.5905,0.5183,0.5104,0.5404,0.3921,0.3483,0.366,0.3087,0.2729,0.2593,0.2684,0.2462,0.2281,0.2993,0.3132,0.3046,0.3534,0.3575,0.3486,0.3442,0.3527,0.37,0.3792,0.4344,0.4803,0.4631,0.5115,0.5594,0.5358,0.5372,0.5424,0.5259,0.5221,0.5038,0.4653,0.4664,0.4679,0.4592,0.4524,0.4604,0.4929,0.4979,0.5152,0.0,0.0,0.0,0.5601,0.5756,0.5907,0.6098,0.6796,0.7362,0.7779,0.8094,0.8495,0.8989,0.9342,0.9606,0.9727,1.0793,1.13,1.13,1.1835,1.2076,1.2076,1.1927,1.1778,1.1669,1.1528,1.1427,1.1293,1.1593,1.1669,1.1756,1.2146,1.2258,1.2204,1.2258,1.2267,1.2204,0.0,0.0,0.5762,0.8273,0.5528,0.3245,0.4139,0.3232,0.2763,0.3639,0.3318,0.3058,0.3167,0.2684,0.2237,0.2093,0.2319,0.223,0.1646,0.2051,0.2277,0.2099,0.2133,0.2266,0.2549,0.2492,0.2352,0.2218,0.2639,0.3209,0.3931,0.3931,0.4227,0.4877,0.5383,0.542,0.5116,0.5097,0.513,0.5101,0.3751,0.3442,0.3718,0.2998,0.3043,0.3401,0.2909,0.2993,0.3432,0.3394,0.3306,0.3262,0.3704,0.388,0.3792,0.3486,0.3527,0.37,0.3619,0.3987,0.4291,0.391,0.4287,0.4542,0.3958,0.4024,0.4245,0.4069,0.4256,0.4292,0.3877,0.3818,0.3931,0.4349,0.4426,0.4689,0.5409,0.5001,0.4676,0.4792,0.0,0.0,0.404,0.4581,0.4862,0.4795,0.6135,0.698,0.7083,0.7643,0.8349,0.923,0.9315,0.9613,1.015,1.0926,1.13,1.13,1.1835,1.2076,1.2076,1.1828,1.1719,1.1678,1.1427,1.1318,1.1276,1.131,1.1327,1.1327,1.1412,1.143,1.1379,1.143,1.143,1.1379,0.388,0.4192,0.4591,0.5329,0.3748,0.2547,0.3156,0.2469,0.2123,0.2831,0.2236,0.1832,0.1966,0.1882,0.2037,0.2406,0.2245,0.2123,0.2101,0.176,0.1655,0.188,0.1611,0.1655,0.215,0.2016,0.1925,0.188,0.2288,0.2805,0.3371,0.3576,0.3889,0.4245,0.4115,0.3999,0.3941,0.4267,0.4216,0.3965,0.3704,0.3483,0.3306,0.3084,0.3087,0.3179,0.304,0.3081,0.3255,0.3524,0.3524,0.348,0.3792,0.388,0.3884,0.3748,0.3748,0.3854,0.4047,0.4164,0.4268,0.416,0.426,0.427,0.3812,0.3674,0.3638,0.376,0.3767,0.3704,0.3435,0.3391,0.352,0.3862,0.3856,0.3955,0.44,0.4417,0.4371,0.438,0.4583,0.4601,0.4435,0.4561,0.4739,0.487,0.564,0.6299,0.6663,0.7197,0.7839,0.8622,0.8823,0.9106,0.9427,1.0204,1.0646,1.0839,1.1474,1.1828,1.1977,1.1778,1.1619,1.1427,1.1175,1.1074,1.1074,1.1074,1.1074,1.1074,1.1175,1.1175,1.1175,1.1267,1.1326,1.1326,0.3349,0.374,0.3868,0.3767,0.2867,0.236,0.2742,0.2111,0.1764,0.2398,0.1653,0.103,0.0851,0.1075,0.1667,0.2882,0.224,0.1947,0.2369,0.1764,0.137,0.1433,0.121,0.1389,0.2016,0.1748,0.1658,0.1835,0.2109,0.2536,0.2974,0.3207,0.3365,0.3499,0.2909,0.2762,0.2981,0.3334,0.347,0.3435,0.3568,0.3435,0.3084,0.3084,0.3087,0.3043,0.3129,0.3214,0.33,0.3656,0.3788,0.3829,0.3968,0.4047,0.4089,0.404,0.4119,0.423,0.44,0.4466,0.4424,0.4299,0.4246,0.4066,0.3627,0.3352,0.3277,0.3425,0.334,0.3218,0.3043,0.2948,0.2946,0.3123,0.3135,0.3204,0.337,0.3678,0.3886,0.3973,0.4352,0.4488,0.4109,0.4168,0.426,0.4351,0.4739,0.5427,0.6374,0.6839,0.7349,0.7995,0.8398,0.8683,0.8822,0.9673,1.0183,1.0327,1.1103,1.1578,1.1728,1.1678,1.1469,1.1217,1.1023,1.0922,1.0922,1.0922,1.0922,1.0922,1.1023,1.1074,1.1124,1.1226,1.1276,1.1326,0.466,0.4047,0.3377,0.4563,0.335,0.2393,0.3001,0.2118,0.1677,0.25,0.1703,0.0807,0.009,-0.0,0.0964,0.3306,0.2259,0.1632,0.1904,0.1965,0.1543,0.058,0.0808,0.1436,0.237,0.1746,0.1611,0.2099,0.2016,0.2321,0.2885,0.2705,0.2617,0.2592,0.2047,0.2047,0.2413,0.2497,0.304,0.3824,0.3265,0.3132,0.3277,0.3004,0.309,0.3353,0.3078,0.3391,0.388,0.388,0.4056,0.4272,0.4272,0.4398,0.4497,0.44,0.4566,0.4751,0.461,0.4731,0.4769,0.4157,0.4029,0.389,0.2998,0.2923,0.2943,0.2833,0.2897,0.2905,0.2568,0.2279,0.2101,0.2018,0.2284,0.2549,0.2684,0.2898,0.312,0.3394,0.3303,0.299,0.2368,0.2993,0.3173,0.2593,0.3211,0.4391,0.6093,0.6586,0.7007,0.7474,0.8144,0.8561,0.8716,0.9621,1.0047,0.9918,1.1005,1.1418,1.1318,1.1427,1.1377,1.1124,1.1124,1.1023,1.0922,1.0922,1.0922,1.0922,1.0922,1.0972,1.1124,1.1124,1.1175,1.1326,0.1682,0.1667,0.1522,0.1534,0.119,0.1169,0.2005,0.1592,0.1453,0.2101,0.1476,0.0938,0.0896,0.0716,0.1229,0.2763,0.1719,0.1208,0.1867,0.1118,0.0663,0.076,0.0986,0.1254,0.1566,0.1703,0.1748,0.1835,0.2109,0.2492,0.2974,0.2488,0.2488,0.284,0.2566,0.2453,0.2504,0.3158,0.3255,0.3001,0.3612,0.3568,0.3129,0.3439,0.3486,0.3442,0.3663,0.3796,0.3924,0.41,0.4232,0.4316,0.4316,0.4313,0.4386,0.4596,0.4721,0.487,0.5128,0.5139,0.4939,0.4577,0.4231,0.381,0.3195,0.2975,0.2813,0.2679,0.2665,0.2602,0.2383,0.2236,0.2152,0.2154,0.2284,0.237,0.2375,0.2726,0.2901,0.2679,0.3129,0.3306,0.2812,0.286,0.3126,0.3561,0.3341,0.3781,0.5188,0.5867,0.6622,0.7384,0.7889,0.8357,0.8822,0.9278,0.9628,0.9918,1.0426,1.082,1.1023,1.0972,1.0972,1.0972,1.0667,1.0573,1.0624,1.0624,1.0624,1.0675,1.082,1.0922,1.0972,1.1175,1.1276,1.1326,0.0041,0.044,0.0712,0.0372,0.0459,0.0826,0.155,0.1232,0.1057,0.1595,0.1215,0.1117,0.1703,0.1208,0.1361,0.2761,0.1629,0.1161,0.1908,0.0944,0.0397,0.0626,0.103,0.1344,0.1524,0.1748,0.1884,0.1925,0.2154,0.2377,0.2593,0.1966,0.1921,0.2368,0.2006,0.201,0.2373,0.2763,0.281,0.2684,0.33,0.3344,0.3034,0.3524,0.3571,0.3394,0.3792,0.388,0.3832,0.4008,0.4096,0.4144,0.4144,0.4144,0.4224,0.4579,0.4777,0.4948,0.5311,0.5397,0.5282,0.4973,0.4718,0.4428,0.3889,0.3617,0.3393,0.319,0.2971,0.28,0.2578,0.2284,0.2056,0.2068,0.2016,0.1969,0.2062,0.2506,0.2724,0.246,0.3084,0.3353,0.2948,0.2773,0.2907,0.3473,0.33,0.352,0.436,0.5389,0.6374,0.7175,0.7724,0.8193,0.8627,0.8885,0.918,0.9552,0.998,1.0368,1.0777,1.0667,1.0624,1.0667,1.047,1.0368,1.0419,1.047,1.0522,1.0522,1.0667,1.082,1.0922,1.1074,1.1217,1.1326,-0.0434,0.0195,0.0723,0.0697,0.0822,0.1047,0.1412,0.0908,0.0618,0.0975,0.0917,0.1254,0.2245,0.1344,0.1361,0.2983,0.1848,0.1343,0.2001,0.1216,0.0601,0.0268,0.103,0.1658,0.202,0.1884,0.1927,0.2235,0.2016,0.1928,0.1973,0.1254,0.1119,0.1433,0.085,0.1164,0.2109,0.1657,0.2014,0.2868,0.2504,0.2635,0.3034,0.3306,0.3306,0.3258,0.3565,0.3697,0.3697,0.3697,0.3788,0.388,0.3884,0.388,0.3958,0.4353,0.4722,0.5052,0.5246,0.5514,0.5667,0.535,0.5449,0.5399,0.4838,0.4622,0.4419,0.4168,0.3764,0.337,0.3053,0.244,0.1938,0.182,0.1578,0.153,0.1756,0.2199,0.2551,0.2684,0.3132,0.3217,0.2773,0.2729,0.2729,0.2549,0.3129,0.3527,0.37,0.5168,0.6246,0.6797,0.7558,0.8028,0.8175,0.8493,0.8752,0.898,0.9665,1.0131,1.0419,1.047,1.0368,1.0265,1.0419,1.0419,1.0316,1.0419,1.0522,1.0522,1.0522,1.0675,1.0871,1.0922,1.1074,1.1276,-0.058,-0.0312,-0.0151,-0.0241,-0.004,0.0202,0.0339,0.022,0.0179,0.0399,0.049,0.0626,0.0851,0.076,0.0846,0.1144,0.0794,0.0796,0.1323,0.0619,0.0311,0.0581,0.1478,0.1839,0.1478,0.1703,0.1703,0.1523,0.1387,0.1433,0.1703,0.1389,0.1566,0.2101,0.2142,0.2233,0.2417,0.2763,0.2857,0.2776,0.304,0.3081,0.3034,0.317,0.3306,0.3394,0.3565,0.3653,0.3697,0.3697,0.37,0.3744,0.3707,0.3796,0.3958,0.4307,0.467,0.4998,0.5233,0.5602,0.5833,0.5382,0.5171,0.5011,0.4897,0.468,0.4508,0.4412,0.405,0.3638,0.3113,0.2833,0.2426,0.1771,0.163,0.169,0.1921,0.2189,0.2415,0.2684,0.3214,0.3347,0.2909,0.3217,0.3347,0.3037,0.3571,0.3968,0.4005,0.5048,0.5782,0.6204,0.6985,0.7545,0.7795,0.8062,0.8419,0.8848,0.9303,0.9655,0.9829,0.9925,0.9984,1.0051,1.0102,1.0213,1.0316,1.0419,1.0522,1.0522,1.0616,1.0667,1.0769,1.0972,1.1074,1.1175,-0.1093,-0.1009,-0.0899,-0.0948,-0.0775,-0.0628,-0.0549,-0.0525,-0.0449,-0.0225,-0.0179,-0.0179,-0.009,-0.0,0.0045,-0.0045,0.0269,0.0539,0.0764,0.0404,0.0448,0.0985,0.1299,0.1344,0.1119,0.1344,0.1345,0.1212,0.112,0.1164,0.1344,0.1299,0.1477,0.1834,0.201,0.2055,0.2103,0.2366,0.2457,0.2375,0.2506,0.2549,0.2549,0.2726,0.2815,0.2812,0.3034,0.3078,0.3078,0.3214,0.3258,0.3258,0.3442,0.353,0.3643,0.394,0.4322,0.4716,0.5027,0.5388,0.5619,0.5521,0.5391,0.5296,0.5324,0.5175,0.5031,0.4893,0.4562,0.4107,0.362,0.3185,0.2755,0.2173,0.2123,0.2172,0.2318,0.2537,0.2768,0.2907,0.3306,0.3439,0.2996,0.3258,0.3391,0.3126,0.3568,0.3836,0.3788,0.4666,0.5404,0.5836,0.6653,0.7167,0.7335,0.7766,0.8137,0.8424,0.8772,0.9053,0.9293,0.9344,0.9482,0.9732,0.9732,0.9895,1.0162,1.0265,1.0368,1.0522,1.0573,1.0675,1.0718,1.0871,1.0972,1.1023,-0.1682,-0.1595,-0.1517,-0.1439,-0.1361,-0.1258,-0.1217,-0.1156,-0.1031,-0.0809,-0.0854,-0.0899,-0.0763,-0.0763,-0.0763,-0.0763,-0.0134,0.0269,0.0225,0.0314,0.0582,0.1165,0.0761,0.0582,0.0806,0.0851,0.0897,0.099,0.0942,0.0941,0.0941,0.1031,0.112,0.121,0.1211,0.1344,0.1523,0.1433,0.1569,0.1884,0.1658,0.1703,0.1928,0.2103,0.2146,0.2099,0.2326,0.2326,0.2324,0.2504,0.264,0.2729,0.3129,0.3217,0.3239,0.345,0.3809,0.4264,0.4662,0.496,0.5194,0.5571,0.5637,0.5605,0.5668,0.558,0.5453,0.5242,0.4892,0.452,0.4023,0.3475,0.2941,0.2571,0.2621,0.2672,0.2678,0.2962,0.317,0.3214,0.3442,0.3442,0.3078,0.3214,0.3258,0.3123,0.3432,0.3612,0.3486,0.4276,0.5024,0.5545,0.6355,0.6872,0.6963,0.7506,0.7835,0.7914,0.8091,0.8378,0.8721,0.8729,0.8926,0.9226,0.932,0.9555,0.9872,0.9925,1.0154,1.0419,1.047,1.0565,1.0718,1.0718,1.082,1.0922,-0.1692,-0.168,-0.163,-0.1526,-0.1381,-0.1283,-0.1226,-0.1155,-0.112,-0.1124,-0.1077,-0.1075,-0.1031,-0.1031,-0.1031,-0.1031,-0.0808,-0.0629,-0.0539,-0.018,0.009,0.0225,0.0403,0.0448,0.0314,0.0314,0.0404,0.0494,0.0494,0.0584,0.0763,0.0763,0.0763,0.0808,0.0899,0.1033,0.1164,0.1254,0.1344,0.1389,0.1433,0.1478,0.1478,0.1523,0.1744,0.201,0.1925,0.2014,0.2144,0.2099,0.2279,0.2504,0.2504,0.2815,0.3176,0.3105,0.3322,0.3636,0.4035,0.4469,0.4832,0.4981,0.5023,0.5006,0.504,0.4927,0.4819,0.4638,0.4491,0.4177,0.345,0.3246,0.2931,0.2299,0.2422,0.2649,0.2689,0.2831,0.299,0.317,0.3435,0.348,0.3214,0.366,0.384,0.3612,0.3744,0.3836,0.3836,0.428,0.4675,0.4932,0.5867,0.6641,0.7132,0.7257,0.7408,0.7602,0.7657,0.784,0.8044,0.8269,0.8392,0.8496,0.9003,0.9269,0.9333,0.9555,0.9829,1.0102,1.0205,1.0506,1.0871,1.0871,1.0972,1.1023,-0.1857,-0.1806,-0.175,-0.1707,-0.1517,-0.1433,-0.1603,-0.1323,-0.121,-0.1481,-0.1345,-0.1208,-0.1254,-0.1208,-0.1208,-0.1208,-0.1076,-0.0987,-0.0897,-0.0584,-0.027,-0.0,-0.009,-0.0179,-0.027,-0.018,-0.0,0.018,0.018,0.0225,0.0315,0.045,0.0584,0.0719,0.0764,0.0854,0.0987,0.0987,0.1076,0.1253,0.1076,0.1122,0.1257,0.1257,0.1345,0.1524,0.1436,0.1481,0.1569,0.1566,0.1655,0.1878,0.237,0.2637,0.2829,0.2941,0.3233,0.3628,0.3911,0.4206,0.442,0.4561,0.4492,0.4401,0.4443,0.4398,0.4263,0.4098,0.4012,0.3813,0.3368,0.3218,0.2998,0.2498,0.269,0.2918,0.2952,0.3161,0.3344,0.3571,0.3612,0.3612,0.3442,0.3704,0.3836,0.3663,0.3707,0.3751,0.3751,0.4016,0.4276,0.4539,0.5658,0.652,0.7047,0.6963,0.7022,0.7228,0.7235,0.7402,0.7735,0.7813,0.7994,0.8207,0.84,0.8742,0.9111,0.9156,0.9416,0.9777,0.9829,1.0035,1.019,1.019,1.0352,1.0506,-0.1835,-0.1835,-0.1815,-0.1793,-0.1573,-0.1485,-0.1732,-0.1458,-0.1261,-0.1523,-0.1447,-0.1407,-0.1524,-0.1505,-0.1517,-0.1458,-0.1336,-0.1254,-0.1254,-0.0987,-0.0674,-0.0269,-0.0494,-0.0584,-0.0494,-0.0449,-0.0269,-0.0,-0.009,-0.0,0.0315,0.0315,0.0494,0.0809,0.0719,0.0674,0.0674,0.0629,0.0718,0.0896,0.0629,0.0629,0.0855,0.081,0.081,0.0855,0.09,0.09,0.0899,0.0897,0.1075,0.1343,0.1967,0.2326,0.2478,0.2606,0.2954,0.3423,0.3738,0.3808,0.3869,0.3959,0.3873,0.3775,0.3797,0.3782,0.3681,0.3501,0.3423,0.3377,0.3137,0.2988,0.2863,0.2687,0.2952,0.315,0.3096,0.3388,0.3653,0.3748,0.37,0.366,0.3626,0.3615,0.3615,0.3581,0.3534,0.3534,0.3581,0.3751,0.4012,0.4408,0.5529,0.6313,0.6696,0.6708,0.6745,0.6901,0.6872,0.7075,0.7419,0.7412,0.7585,0.7907,0.7842,0.814,0.8692,0.8623,0.8884,0.93,0.9424,0.9504,0.9614,0.9636,0.9769,0.9991,-0.1471,-0.165,-0.1738,-0.1465,-0.1468,-0.1434,-0.118,-0.1305,-0.123,-0.083,-0.119,-0.1579,-0.1832,-0.2009,-0.2075,-0.1951,-0.1841,-0.1748,-0.1748,-0.1433,-0.1165,-0.103,-0.0674,-0.0314,0.0134,-0.0224,-0.0269,-0.0,-0.0449,-0.0,0.126,0.045,0.0405,0.1079,0.081,0.045,0.009,0.018,0.018,0.009,-0.009,-0.0045,0.009,-0.0045,-0.0045,0.009,0.0225,0.027,0.027,0.0135,0.0673,0.1299,0.0805,0.1478,0.2337,0.1891,0.2027,0.2452,0.3152,0.3152,0.3027,0.3063,0.306,0.2974,0.2982,0.2976,0.2926,0.2797,0.2665,0.2573,0.2573,0.2436,0.2389,0.2518,0.2781,0.2957,0.2776,0.3255,0.352,0.3258,0.3442,0.3622,0.3581,0.349,0.3486,0.3578,0.3353,0.335,0.3578,0.3626,0.3972,0.4757,0.5448,0.5916,0.6081,0.6489,0.6666,0.6526,0.6666,0.6806,0.6947,0.7018,0.7117,0.7298,0.7528,0.7657,0.7704,0.7896,0.816,0.8433,0.8869,0.9274,0.9593,0.9753,0.9865,0.9969,-0.157,-0.1653,-0.1694,-0.1777,-0.1546,-0.1366,-0.1405,-0.1309,-0.1295,-0.1483,-0.1509,-0.1696,-0.2163,-0.2277,-0.2307,-0.2312,-0.209,-0.1916,-0.1863,-0.1653,-0.1395,-0.1032,-0.0899,-0.0674,-0.0359,-0.0494,-0.0269,0.0449,-0.0314,-0.0494,-0.0135,0.0405,0.0449,-0.0,-0.0,-0.0045,-0.0135,-0.045,-0.0494,-0.0315,-0.0629,-0.081,-0.0855,-0.0942,-0.0853,-0.0674,-0.0628,-0.0494,-0.0314,-0.0179,0.0134,0.0403,0.0492,0.085,0.1208,0.1119,0.1299,0.1618,0.1961,0.2219,0.242,0.2549,0.2506,0.2422,0.2422,0.2422,0.2377,0.2286,0.2286,0.2241,0.2105,0.2105,0.215,0.2194,0.2284,0.2417,0.2551,0.2862,0.3037,0.3078,0.3262,0.3398,0.3486,0.335,0.335,0.3486,0.3306,0.3262,0.3486,0.3575,0.3836,0.4232,0.4709,0.5275,0.6007,0.6099,0.627,0.652,0.6568,0.666,0.6793,0.6872,0.695,0.7005,0.7148,0.7345,0.7527,0.7641,0.7802,0.8078,0.8331,0.8517,0.8669,0.8832,0.9146,0.9465,-0.1529,-0.1607,-0.1685,-0.1763,-0.1584,-0.1452,-0.1525,-0.1433,-0.1459,-0.1826,-0.1662,-0.1807,-0.247,-0.266,-0.269,-0.2614,-0.2364,-0.219,-0.2119,-0.1859,-0.1595,-0.1231,-0.1086,-0.0955,-0.0878,-0.0738,-0.0304,0.0351,-0.052,-0.0956,-0.0968,-0.0,0.0175,-0.0358,-0.0664,-0.071,-0.0539,-0.1078,-0.1078,-0.0808,-0.1123,-0.1303,-0.1393,-0.1435,-0.1345,-0.1212,-0.121,-0.1032,-0.0808,-0.0627,-0.0447,-0.0268,-0.0045,-0.0,0.0089,0.0269,0.0537,0.0851,0.0986,0.139,0.1837,0.2014,0.1971,0.1884,0.1884,0.1884,0.1884,0.1884,0.1928,0.1928,0.1839,0.1839,0.1884,0.1928,0.1928,0.2018,0.2239,0.2506,0.2682,0.2812,0.3037,0.3214,0.3306,0.3214,0.3214,0.3306,0.3173,0.3173,0.335,0.3527,0.3704,0.3836,0.4148,0.4714,0.5631,0.5707,0.5916,0.627,0.6398,0.6532,0.6623,0.6793,0.6878,0.6914,0.6985,0.7134,0.7328,0.7328,0.7455,0.7655,0.7835,0.7922,0.7982,0.8165,0.8523,0.8895,-0.1217,-0.1529,-0.1683,-0.1368,-0.1539,-0.1635,-0.1452,-0.1696,-0.1835,-0.164,-0.161,-0.1948,-0.28,-0.3206,-0.3259,-0.2924,-0.2778,-0.2659,-0.262,-0.2112,-0.176,-0.1717,-0.1243,-0.1117,-0.1292,-0.0799,-0.0479,-0.0417,-0.1158,-0.1242,-0.0711,-0.0843,-0.0413,0.0403,-0.1117,-0.1552,-0.1207,-0.1567,-0.1567,-0.1432,-0.1567,-0.1521,-0.1433,-0.1567,-0.1523,-0.1389,-0.1389,-0.1299,-0.1208,-0.1344,-0.0985,-0.0582,-0.0985,-0.103,-0.094,-0.0584,-0.0179,0.0224,0.0449,0.0807,0.1164,0.1523,0.1478,0.1389,0.1389,0.1389,0.1433,0.1569,0.1478,0.1478,0.1748,0.1703,0.1658,0.1794,0.1794,0.1794,0.1794,0.2194,0.2504,0.2504,0.2904,0.3214,0.3214,0.3078,0.3034,0.317,0.2998,0.2998,0.317,0.3442,0.3619,0.3697,0.3972,0.4328,0.4801,0.5399,0.5701,0.5723,0.6153,0.6453,0.652,0.6623,0.6793,0.6914,0.6985,0.6979,0.6979,0.6979,0.6979,0.7054,0.7348,0.7558,0.7643,0.7996,0.82,0.8287,-0.1657,-0.1833,-0.1936,-0.1859,-0.1938,-0.2125,-0.258,-0.2539,-0.251,-0.2686,-0.2203,-0.1965,-0.2437,-0.2697,-0.2805,-0.2691,-0.2689,-0.2566,-0.227,-0.2049,-0.1949,-0.1977,-0.167,-0.1621,-0.1845,-0.1345,-0.0948,-0.068,-0.134,-0.1458,-0.1118,-0.1143,-0.1114,-0.1021,-0.0928,-0.0971,-0.1147,-0.1147,-0.1226,-0.1347,-0.1429,-0.1623,-0.1842,-0.1887,-0.1835,-0.1839,-0.1839,-0.1748,-0.1614,-0.1569,-0.1478,-0.1344,-0.1074,-0.0672,-0.0314,-0.0269,-0.0045,0.0179,0.018,0.0494,0.0898,0.1165,0.1208,0.1208,0.1208,0.1208,0.1208,0.1254,0.1299,0.1344,0.1299,0.1344,0.1389,0.1433,0.1433,0.1478,0.1523,0.1923,0.2235,0.2235,0.2682,0.2996,0.3034,0.2996,0.2951,0.3034,0.3081,0.3129,0.3214,0.3442,0.3619,0.3697,0.3788,0.3968,0.4324,0.4923,0.5443,0.5895,0.6067,0.6233,0.652,0.6623,0.6793,0.6914,0.6985,0.6979,0.6979,0.6979,0.6979,0.7034,0.7298,0.7425,0.7482,0.7745,0.8055,0.8334,-0.1947,-0.2045,-0.2142,-0.22,-0.2299,-0.2537,-0.3117,-0.3014,-0.2907,-0.2988,-0.254,-0.2329,-0.2625,-0.2638,-0.2676,-0.2777,-0.2745,-0.2606,-0.2288,-0.2287,-0.2299,-0.2211,-0.2099,-0.2137,-0.2254,-0.1945,-0.1715,-0.1599,-0.1827,-0.1825,-0.167,-0.1564,-0.1546,-0.1564,-0.1114,-0.1041,-0.1217,-0.1217,-0.1294,-0.1408,-0.1488,-0.1652,-0.1891,-0.1806,-0.1814,-0.1839,-0.1794,-0.1703,-0.1614,-0.1524,-0.166,-0.1661,-0.0942,-0.0449,-0.018,-0.027,-0.0225,-0.009,0.009,0.036,0.0629,0.0763,0.0897,0.0942,0.0942,0.0942,0.0942,0.0942,0.1076,0.1166,0.1074,0.1119,0.1208,0.1208,0.1208,0.1254,0.1254,0.1655,0.1923,0.1967,0.2417,0.2773,0.2812,0.2865,0.2909,0.2948,0.3126,0.3214,0.3214,0.3398,0.3575,0.3697,0.3744,0.3924,0.424,0.4666,0.5096,0.5626,0.5841,0.6099,0.6398,0.6532,0.6708,0.6829,0.6943,0.6979,0.6979,0.6979,0.6979,0.7027,0.7245,0.7335,0.7412,0.7579,0.7829,0.8091,-0.2147,-0.2275,-0.2368,-0.2428,-0.2596,-0.2867,-0.3208,-0.3233,-0.313,-0.2845,-0.2768,-0.2867,-0.3175,-0.2911,-0.2845,-0.3072,-0.2948,-0.2746,-0.2573,-0.2735,-0.2734,-0.246,-0.2564,-0.2636,-0.2537,-0.2537,-0.2612,-0.2763,-0.2513,-0.2363,-0.2244,-0.2083,-0.1824,-0.1514,-0.164,-0.1605,-0.143,-0.1632,-0.1669,-0.1623,-0.1663,-0.1712,-0.1701,-0.1577,-0.1578,-0.1595,-0.1463,-0.1377,-0.1337,-0.1387,-0.1527,-0.1531,-0.0674,-0.0405,-0.036,-0.036,-0.0494,-0.045,0.0225,0.0405,0.0405,0.0405,0.0494,0.0584,0.0674,0.0674,0.0674,0.0674,0.081,0.0944,0.0941,0.094,0.0985,0.1074,0.1075,0.1075,0.1075,0.1344,0.1614,0.1748,0.215,0.2462,0.246,0.2732,0.2912,0.2912,0.3084,0.317,0.3214,0.3306,0.3483,0.3697,0.3836,0.4104,0.446,0.4535,0.4792,0.5145,0.5577,0.5922,0.6227,0.6398,0.6532,0.6666,0.6907,0.6979,0.6979,0.6979,0.6979,0.7021,0.7167,0.7293,0.7412,0.7482,0.7572,0.7712,-0.2673,-0.2805,-0.2838,-0.2798,-0.297,-0.3204,-0.3541,-0.3602,-0.3569,-0.3508,-0.3241,-0.3105,-0.3175,-0.3076,-0.3006,-0.2937,-0.3039,-0.3105,-0.313,-0.3159,-0.3105,-0.289,-0.2995,-0.3022,-0.2893,-0.2786,-0.2678,-0.2576,-0.2903,-0.2972,-0.275,-0.2874,-0.2775,-0.2478,-0.2473,-0.2152,-0.1637,-0.178,-0.1769,-0.1599,-0.1568,-0.1727,-0.1992,-0.1765,-0.1744,-0.1819,-0.1696,-0.1612,-0.1627,-0.1551,-0.1211,-0.0764,-0.0672,-0.0404,-0.009,-0.009,0.0045,0.018,0.036,0.0405,0.0405,0.0405,-0.0,-0.0225,0.0315,0.045,0.0494,0.0674,0.0629,0.0539,0.0539,0.0674,0.0763,0.0763,0.0808,0.0808,0.0808,0.1121,0.1389,0.1389,0.1837,0.215,0.2326,0.2684,0.2912,0.2912,0.2996,0.3078,0.3214,0.3306,0.3483,0.3697,0.3836,0.3972,0.4196,0.4412,0.4801,0.5404,0.5534,0.5793,0.6184,0.6264,0.6319,0.6453,0.6689,0.6768,0.6768,0.6937,0.6979,0.7021,0.7167,0.7293,0.7412,0.7482,0.7655,0.7878,-0.3006,-0.3105,-0.3171,-0.3064,-0.3266,-0.3508,-0.3672,-0.3705,-0.3672,-0.3565,-0.3401,-0.3303,-0.3335,-0.3204,-0.3105,-0.3097,-0.3171,-0.3274,-0.3429,-0.3516,-0.3513,-0.3357,-0.3575,-0.3612,-0.3335,-0.34,-0.3243,-0.2888,-0.3216,-0.3286,-0.3033,-0.3157,-0.305,-0.2808,-0.2841,-0.2564,-0.2083,-0.2237,-0.2081,-0.1742,-0.1747,-0.1737,-0.175,-0.1599,-0.1574,-0.1605,-0.1491,-0.1457,-0.144,-0.1326,-0.1076,-0.0809,-0.0853,-0.0629,-0.0315,-0.0315,-0.0225,-0.009,-0.0,0.009,0.018,0.0045,-0.036,-0.0539,0.009,0.027,0.0315,0.036,0.0405,0.036,0.0225,0.0315,0.045,0.0674,0.0719,0.0719,0.0719,0.0943,0.1121,0.1208,0.1569,0.1927,0.2279,0.2551,0.2732,0.2821,0.2996,0.3126,0.3214,0.3306,0.3483,0.3697,0.3788,0.3924,0.4192,0.4324,0.467,0.5149,0.5275,0.5577,0.6007,0.6056,0.619,0.6319,0.6489,0.6605,0.6725,0.681,0.6894,0.7021,0.7167,0.7251,0.7335,0.7405,0.7572,0.7697,-0.3241,-0.3344,-0.3377,-0.3294,-0.3565,-0.3775,-0.3705,-0.3705,-0.3635,-0.3462,-0.3462,-0.3462,-0.3532,-0.3335,-0.327,-0.3392,-0.3368,-0.3438,-0.3667,-0.3835,-0.3876,-0.3796,-0.414,-0.4155,-0.3809,-0.4025,-0.3883,-0.3311,-0.3499,-0.3499,-0.3319,-0.3386,-0.3285,-0.306,-0.3188,-0.306,-0.2757,-0.284,-0.2617,-0.217,-0.2173,-0.195,-0.166,-0.1656,-0.1539,-0.1432,-0.1408,-0.1377,-0.1272,-0.1192,-0.1121,-0.1168,-0.1168,-0.0989,-0.0808,-0.0763,-0.0719,-0.0674,-0.0494,-0.027,-0.018,-0.036,-0.0539,-0.0584,-0.0225,0.0045,0.0135,0.0135,0.0225,0.027,0.0045,-0.0,0.0135,0.0584,0.0674,0.0719,0.0719,0.081,0.0899,0.1031,0.1389,0.1746,0.219,0.2326,0.2506,0.264,0.2907,0.3126,0.317,0.3262,0.3435,0.3612,0.3656,0.3832,0.4188,0.4228,0.4408,0.4762,0.4975,0.5318,0.5707,0.5841,0.597,0.6056,0.6233,0.6398,0.6556,0.6598,0.6725,0.6937,0.7076,0.7125,0.7167,0.7328,0.7447,0.7489,-0.3504,-0.3513,-0.3517,-0.3602,-0.3948,-0.4089,-0.3742,-0.3695,-0.3686,-0.3667,-0.3672,-0.3672,-0.3672,-0.3639,-0.37,-0.3891,-0.3858,-0.3858,-0.4031,-0.4062,-0.4096,-0.4146,-0.4306,-0.4311,-0.4118,-0.4329,-0.4086,-0.3373,-0.3743,-0.3915,-0.3897,-0.4076,-0.4136,-0.4107,-0.4247,-0.4118,-0.3796,-0.3626,-0.346,-0.3245,-0.2904,-0.2762,-0.2704,-0.2624,-0.2344,-0.2034,-0.2236,-0.2058,-0.1736,-0.1679,-0.1524,-0.1344,-0.1344,-0.1299,-0.121,-0.1075,-0.0897,-0.0674,-0.0674,-0.0629,-0.0584,-0.045,-0.0539,-0.0674,-0.0629,-0.027,0.0135,0.0539,0.0315,0.0045,-0.0,-0.0,0.009,0.0405,0.0584,0.0719,0.0719,0.0719,0.0764,0.0899,0.1346,0.1658,0.1837,0.2062,0.2241,0.2504,0.2549,0.2726,0.3034,0.3034,0.3126,0.3258,0.3486,0.3622,0.3711,0.3884,0.4144,0.4548,0.4622,0.4884,0.528,0.5491,0.5496,0.5458,0.5755,0.5879,0.5959,0.6179,0.6392,0.6562,0.6732,0.6852,0.707,0.7328,0.7412,0.7412,-0.3602,-0.37,-0.3737,-0.3672,-0.3812,-0.3916,-0.3737,-0.3761,-0.3821,-0.3826,-0.3831,-0.3863,-0.3863,-0.3901,-0.3999,-0.4221,-0.4091,-0.4091,-0.4296,-0.4282,-0.4306,-0.4353,-0.4537,-0.4503,-0.4275,-0.4411,-0.4279,-0.3807,-0.4111,-0.4207,-0.4073,-0.4207,-0.4266,-0.4184,-0.4368,-0.4408,-0.4327,-0.4332,-0.4228,-0.4038,-0.3732,-0.3463,-0.3232,-0.312,-0.2851,-0.2552,-0.2518,-0.2311,-0.2031,-0.1945,-0.1839,-0.1703,-0.1658,-0.1569,-0.1433,-0.1299,-0.1165,-0.1032,-0.0942,-0.0942,-0.0942,-0.0807,-0.0897,-0.0942,-0.0854,-0.0584,-0.0315,-0.0,0.0045,-0.0045,-0.018,-0.009,0.0045,0.018,0.045,0.0719,0.0719,0.0719,0.0764,0.09,0.1166,0.1389,0.1569,0.1794,0.2018,0.2196,0.2241,0.2373,0.2591,0.2679,0.2812,0.3078,0.3262,0.3483,0.366,0.3744,0.3924,0.4148,0.436,0.4709,0.5193,0.5323,0.5371,0.529,0.5458,0.5626,0.5755,0.5922,0.6136,0.6349,0.6483,0.6611,0.6732,0.6943,0.707,0.7196]},{"header":{"parameterUnit":"m.s-1","parameterCategory":1,"la1":30.6,"la2":28.766,"lo1":-90.7593,"lo2":-88.6598,"dy":0.0162,"dx":0.0183,"nx":116,"ny":114,"refTime":"2023-08-01T12:00:00:Z","depth":0,"parameterNumber":3,"parameterNumberName":"V-component_of_WINDS"},"data":[0.0,0.0,0.0,0.0,0.0,0.0,0.0,0.0,0.0,0.0,0.0,0.0,0.0,0.0,0.0,0.0,0.0,0.0,0.0,0.0,0.0,0.0,0.0,0.0,0.0,0.0,0.0,0.0,0.0,0.0,0.0,0.0,0.0,0.0,0.0,0.0,0.0,0.0,0.0,0.0,0.0,0.0,0.0,0.0,0.0,0.0,0.0,0.0,0.0,0.0,0.0,0.0,0.0,0.0,0.0,0.0,0.0,0.0,0.0,0.0,0.0,0.0,0.0,0.0,0.0,0.0,0.0,0.0,0.0,0.0,0.0,0.0,0.0,0.0,0.0,0.0,0.0,0.0,0.0,0.0,0.0,0.0,0.0,0.0,0.0,0.0,0.0,0.0,0.0,0.0,0.0,0.0,0.0,0.0,0.0,0.0,0.0,0.0,0.0,0.0,0.0,0.0,0.0,0.0,0.0,0.0,0.0,0.0,0.0,0.0,0.0,0.0,0.0,0.0,0.0,0.0,0.0,0.0,0.0,0.0,0.0,0.0,0.0,0.0,0.0,0.0,0.0,0.0,0.0,0.0,0.0,0.0,0.0,0.0,0.0,0.0,0.0,0.0,0.0,0.0,0.0,0.0,0.0,0.0,0.0,0.0,0.0,0.0,0.0,0.0,0.0,0.0,0.0,0.0,0.0,0.0,0.0,0.0,0.0,0.0,0.0,0.0,0.0,0.0,0.0,0.0,0.0,0.0,0.0,0.0,0.0,0.0,0.0,0.0,0.0,0.0,0.0,0.0,0.0,0.0,0.0,0.0,0.0,0.0,0.0,0.0,0.0,0.0,0.0,0.0,0.0,0.0,0.0,0.0,0.0,0.0,0.0,0.0,0.0,0.0,0.0,0.0,0.0,0.0,0.0,0.0,0.0,0.0,0.0,0.0,0.0,0.0,0.0,0.0,0.0,0.0,0.0,0.0,0.0,0.0,0.0,0.0,0.0,0.0,0.0,0.0,0.0,0.0,0.0,0.0,0.0,0.0,0.0,0.0,0.0,0.0,0.0,0.0,0.0,0.0,0.0,0.0,0.0,0.0,0.0,0.0,0.0,0.0,0.0,0.0,0.0,0.0,0.0,0.0,0.0,0.0,0.0,0.0,0.0,0.0,0.0,0.0,0.0,0.0,0.0,0.0,0.0,0.0,0.0,0.0,0.0,0.0,0.0,0.0,0.0,0.0,0.0,0.0,0.0,0.0,0.0,0.0,0.0,0.0,0.0,0.0,0.0,0.0,0.0,0.0,0.0,0.0,0.0,0.0,0.0,0.0,0.0,0.0,0.0,0.0,0.0,0.0,0.0,0.0,0.0,0.0,0.0,0.0,0.0,0.0,0.0,0.0,0.0,0.0,0.0,0.0,0.0,0.0,0.0,0.0,0.0,0.0,0.0,0.0,0.0,0.0,0.0,0.0,0.0,0.0,0.0,0.0,0.0,0.0,0.0,0.0,0.0,0.0,0.0,0.0,0.0,0.0,0.0,0.0,0.0,0.0,0.0,0.0,0.0,0.0,0.0,0.0,0.0,0.0,0.0,0.0,0.0,0.0,0.0,0.0,0.0,0.0,0.0,0.0,0.0,0.0,0.0,0.0,0.0,0.0,0.0,0.0,0.0,0.0,0.0,0.0,0.0,0.0,0.0,0.0,0.0,0.0,0.0,0.0,0.0,0.0,0.0,0.0,0.0,0.0,0.0,0.0,0.0,0.0,0.0,0.0,0.0,0.0,0.0,0.0,0.0,0.0,0.0,0.0,0.0,0.0,0.0,0.0,0.0,0.0,0.0,0.0,0.0,0.0,0.0,0.0,0.0,0.0,0.0,0.0,0.0,0.0,0.0,0.0,0.0,0.0,0.0,0.0,0.0,0.0,0.0,0.0,0.0,0.0,0.0,0.0,0.0,0.0,0.0,0.0,0.0,0.0,0.0,0.0,0.0,0.0,0.0,0.0,0.0,0.0,0.0,0.0,0.0,0.0,0.0,0.0,0.0,0.0,0.0,0.0,0.0,0.0,0.0,0.0,0.0,0.0,0.0,0.0,0.0,0.0,0.0,0.0,0.0,0.0,0.0,0.0,0.0,0.0,0.0,0.0,0.0,0.0,0.0,0.0,0.0,0.0,0.0,0.0,0.0,0.0,0.0,0.0,0.0,0.0,0.0,0.0,0.0,0.0,0.0,0.0,0.0,0.0,0.0,0.0,0.0,0.0,0.0,0.0,0.0,0.0,0.0,0.0,0.0,0.0,0.0,0.0,0.0,0.0,0.0,0.0,0.0,0.0,0.0,0.0,0.0,0.0,0.0,0.0,0.0,0.0,0.0,0.0,0.0,0.0,0.0,0.0,0.0,0.0,0.0,0.0,0.0,0.0,0.0,0.0,0.0,0.0,0.0,0.0,0.0,0.0,0.0,0.0,0.0,0.0,0.0,0.0,0.0,0.0,0.0,0.0,0.0,0.0,0.0,0.0,0.0,0.0,0.0,0.0,0.0,0.0,0.0,0.0,0.0,0.0,0.0,0.0,0.0,0.0,0.0,0.0,0.0,0.0,0.0,0.0,0.0,0.0,0.0,0.0,0.0,0.0,0.0,0.0,0.0,0.0,0.0,0.0,0.0,0.0,0.0,0.0,0.0,0.0,0.0,0.0,0.0,0.0,0.0,0.0,0.0,0.0,0.0,0.0,0.0,0.0,0.0,0.0,0.0,0.0,0.0,0.0,0.0,0.0,0.0,0.0,0.0,0.0,0.0,0.0,0.0,0.0,0.0,0.0,0.0,0.0,0.0,0.0,0.0,0.0,0.0,0.0,0.0,0.0,0.0,0.0,0.0,0.0,0.0,0.0,0.0,0.0,0.0,0.0,0.0,0.0,0.0,0.0,0.0,0.0,0.0,0.0,0.0,0.0,0.0,0.0,0.0,0.0,0.0,0.0,0.0,0.0,0.0,0.0,0.0,0.0,0.0,0.0,0.0,0.0,0.0,0.0,0.0,0.0,0.0,0.0,0.0,0.0,0.0,0.0,0.0,0.0,0.0,0.0,0.0,0.0,0.0,0.0,0.0,0.0,0.0,0.0,0.0,0.0,0.0,0.0,0.0,0.0,0.0,0.0,0.0,0.0,0.0,0.0,0.0,0.0,0.0,0.0,0.0,0.0,0.0,0.0,0.0,0.0,0.0,0.0,0.0,0.0,0.0,0.0,0.0,0.0,0.0,0.0,0.0,0.0,0.0,0.0,0.0,0.0,0.0,0.0,0.0,0.0,0.0,0.0,0.0,0.0,0.0,0.0,0.0,0.0,0.0,0.0,0.0,0.0,0.0,0.0,0.0,0.0,0.0,0.0,0.0,0.0,0.0,0.0,0.0,0.0,0.0,0.0,0.0,0.0,0.0,0.0,0.0,0.0,0.0,0.0,0.0,0.0,0.0,0.0,0.0,0.0,0.0,0.0,0.0,0.0,0.0,0.0,0.0,0.0,0.0,0.0,0.0,0.0,0.0,0.0,0.0,0.0,0.0,0.0,0.0,0.0,0.0,0.0,0.0,0.0,0.0,0.0,0.0,0.0,0.0,0.0,0.0,0.0,0.0,0.0,0.0,0.0,0.0,0.0,0.0,0.0,0.0,0.0,0.0,0.0,0.0,0.0,0.0,0.0,0.0,0.0,0.0,0.0,0.0,0.0,0.0,0.0,0.0,0.0,0.0,0.0,0.0,0.0,0.0,0.0,0.0,0.0,0.0,0.0,0.0,0.0,0.0,0.0,0.0,0.0,0.0,0.0,0.0,0.0,0.0,0.0,0.0,0.0,0.0,0.0,0.0,0.0,0.0,0.0,0.0,0.0,0.0,0.0,0.0,0.0,0.0,0.0,0.0,0.0,0.0,0.0,0.0,0.0,0.0,0.0,0.0,0.0,0.0,0.0,0.0,0.0,0.0,0.0,0.0,0.0,0.0,0.0,0.0,0.0,0.0,0.0,0.0,0.0,0.0,0.0,0.0,0.0,0.0,0.0,0.0,0.0,0.0,0.0,0.0,0.0,0.0,0.0,0.0,0.0,0.0,0.0,0.0,0.0,0.0,0.0,0.0,0.0,0.0,0.0,0.0,0.0,0.0,0.0,0.0,0.0,0.0,0.0,0.0,0.0,0.0,0.0,0.0,0.0,0.0,0.0,0.0,0.0,0.0,0.0,0.0,0.0,0.0,0.0,0.0,0.0,0.0,0.0,0.0,0.0,0.0,0.0,0.0,0.0,0.0,0.0,0.0,0.0,0.0,0.0,0.0,0.0,0.0,0.0,0.0,0.0,0.0,0.0,0.0,0.0,0.0,0.0,0.0,0.0,0.0,0.0,0.0,0.0,0.0,0.0,0.0,0.0,0.0,0.0,0.0,0.0,0.0,0.0,0.0,0.0,0.0,0.0,0.0,0.0,0.0,0.0,0.0,0.0,0.0,0.0,0.0,0.0,0.0,0.0,0.0,0.0,0.0,0.0,0.0,0.0,0.0,0.0,0.0,0.0,0.0,0.0,0.0,0.0,0.0,0.0,0.0,0.0,0.0,0.0,0.0,0.0,0.0,0.0,0.0,0.0,0.0,0.0,0.0,0.0,0.0,0.0,0.0,0.0,0.0,0.0,0.0,0.0,0.0,0.0,0.0,0.0,0.0,0.0,0.0,0.0,0.0,0.0,0.0,0.0,0.0,0.0,0.0,0.0,0.0,0.0,0.0,0.0,0.0,0.0,0.0,0.0,0.0,0.0,0.0,0.0,0.0,0.0,0.0,0.0,0.0,0.0,0.0,0.0,0.0,0.0,0.0,0.0,0.0,0.0,0.0,0.0,0.0,0.0,0.0,0.0,0.0,0.0,0.0,0.0,0.0,0.0,0.0,0.0,0.0,0.0,0.0,0.0,0.0,0.0,0.0,0.0,0.0,0.0,0.0,0.0,0.0,0.0,0.0,0.0,0.0,0.0,0.0,0.0,0.0,0.0,0.0,0.0,0.0,0.0,0.0,0.0,0.0,0.0,0.0,0.0,0.0,0.0,0.0,0.0,0.0,0.0,0.0,0.0,0.0,0.0,0.0,0.0,0.0,0.0,0.0,0.0,0.0,0.0,0.0,0.0,0.0,0.0,0.0,0.0,0.0,0.0,0.0,0.0,0.0,0.0,0.0,0.0,0.0,0.0,0.0,0.0,0.0,0.0,0.0,0.0,0.0,0.0,0.0,0.0,0.0,0.0,0.0,0.0,0.0,0.0,0.0,0.0,0.0,0.0,0.0,0.0,0.0,0.0,0.0,0.0,0.0,0.0,0.0,0.0,0.0,0.0,0.0,0.0,0.0,0.0,0.0,0.0,0.0,0.0,0.0,0.0,0.0,0.0,0.0,0.0,0.0,0.0,0.0,0.0,0.0,0.0,0.0,0.0,0.0,0.0,0.0,0.0,0.0,0.0,0.0,0.0,0.0,0.0,0.0,0.0,0.0,0.0,0.0,0.0,0.0,0.0,0.0,0.0,0.0,0.0,0.0,0.0,0.0,0.0,0.0,0.0,0.0,0.0,0.0,0.0,0.0,0.0,0.0,0.0,0.0,0.0,0.0,0.0,0.0,0.0,0.0,0.0,0.0,0.0,0.0,0.0,0.0,0.0,0.0,0.0,0.0,0.0,0.0,0.0,0.0,0.0,0.0,0.0,0.0,0.0,0.0,0.0,0.0,0.0,0.0,0.0,0.0,0.0,0.0,0.0,0.0,0.0,0.0,0.0,0.0,0.0,0.0,0.0,0.0,0.0,0.0,0.0,0.0,0.0,0.0,0.0,0.0,0.0,0.0,0.0,0.0,0.0,0.0,0.0,0.0,0.0,0.0,0.0,0.0,0.0,0.0,0.0,0.0,0.0,0.0,0.0,0.0,0.0,0.0,0.0,0.0,0.0,0.0,0.0,0.0,0.0,0.0,0.0,0.0,0.0,0.0,0.0,0.0,0.0,0.0,0.0,0.0,0.0,0.0,0.0,0.0,0.0,0.0,0.0,0.0,0.0,0.0,0.0,0.0,0.0,0.0,0.0,0.0,0.0,0.0,0.0,0.0,0.0,0.0,0.0,-0.7274,-0.6748,0.0,0.0,0.0,0.0,0.0,0.0,0.0,0.0,0.0,0.0,0.0,0.0,0.0,0.0,0.0,0.0,0.0,0.0,0.0,0.0,0.0,0.0,0.0,0.0,0.0,0.0,0.0,0.0,0.0,0.0,0.0,0.0,0.0,0.0,0.0,0.0,0.0,0.0,0.0,0.0,0.0,0.0,0.0,0.0,0.0,0.0,0.0,0.0,0.0,0.0,0.0,0.0,0.0,0.0,0.0,0.0,0.0,0.0,0.0,0.0,0.0,0.0,0.0,0.0,0.0,0.0,0.0,0.0,0.0,0.0,0.0,0.0,0.0,0.0,0.0,0.0,0.0,0.0,0.0,0.0,0.0,0.0,0.0,0.0,0.0,0.0,0.0,0.0,0.0,0.0,0.0,0.0,0.0,0.0,0.0,0.0,0.0,0.0,0.0,0.0,0.0,0.0,0.0,0.0,0.0,0.0,0.0,0.0,0.0,0.0,0.0,0.0,0.0,0.0,-0.9367,-0.8496,0.0,0.0,0.0,0.0,0.0,0.0,0.0,0.0,0.0,0.0,0.0,0.0,0.0,0.0,0.0,0.0,0.0,0.0,0.0,0.0,0.0,0.0,0.0,0.0,0.0,0.0,0.0,0.0,0.0,0.0,0.0,0.0,0.0,0.0,0.0,0.0,0.0,0.0,0.0,0.0,0.0,0.0,0.0,0.0,0.0,0.0,0.0,0.0,0.0,0.0,0.0,0.0,0.0,0.0,0.0,0.0,0.0,0.0,0.0,0.0,0.0,0.0,0.0,0.0,0.0,0.0,0.0,0.0,0.0,0.0,0.0,0.0,0.0,0.0,0.0,0.0,0.0,0.0,0.0,0.0,0.0,0.0,0.0,0.0,0.0,0.0,0.0,0.0,0.0,0.0,0.0,0.0,0.0,0.0,0.0,0.0,0.0,0.0,0.0,0.0,0.0,0.0,0.0,0.0,0.0,0.0,0.0,0.0,-1.3529,-1.3644,-1.3868,-1.3865,-1.3748,-1.3403,-1.1562,-1.0552,-1.019,-1.0015,0.0,0.0,0.0,0.0,0.0,0.0,0.0,0.0,0.0,0.0,0.0,0.0,0.0,0.0,0.0,0.0,0.0,0.0,0.0,0.0,0.0,0.0,-0.9825,-0.9819,-0.9702,-0.962,0.0,0.0,0.0,0.0,0.0,0.0,0.0,0.0,0.0,0.0,0.0,0.0,-1.5462,-1.5285,-1.5134,-1.501,-1.5405,0.0,0.0,0.0,0.0,0.0,0.0,0.0,0.0,0.0,0.0,0.0,0.0,0.0,0.0,0.0,0.0,0.0,0.0,0.0,0.0,0.0,0.0,0.0,0.0,0.0,0.0,0.0,0.0,0.0,0.0,0.0,0.0,0.0,0.0,0.0,0.0,0.0,0.0,0.0,0.0,0.0,0.0,0.0,-1.1189,-1.1349,0.0,0.0,0.0,0.0,0.0,0.0,0.0,0.0,0.0,0.0,0.0,0.0,0.0,-1.4561,-1.5461,-1.5234,-1.552,-1.6212,-1.5947,-1.5825,-1.5837,-1.5475,-1.5089,-1.4666,-1.4122,0.0,-1.2511,-1.2179,0.0,0.0,0.0,0.0,0.0,0.0,0.0,0.0,0.0,0.0,0.0,0.0,0.0,0.0,0.0,0.0,0.0,0.0,0.0,0.0,0.0,-0.9825,-0.9875,-1.0217,-1.0194,-1.034,0.0,0.0,0.0,0.0,0.0,0.0,0.0,0.0,0.0,0.0,-1.5003,-1.5537,-1.6097,-1.6034,-1.6225,-1.6548,-1.6701,-1.6315,-1.5578,-1.5544,0.0,0.0,0.0,0.0,0.0,0.0,0.0,0.0,0.0,0.0,0.0,0.0,0.0,0.0,0.0,0.0,0.0,0.0,0.0,0.0,0.0,0.0,0.0,0.0,0.0,0.0,0.0,0.0,0.0,0.0,0.0,0.0,0.0,0.0,0.0,0.0,0.0,0.0,0.0,-1.1508,-1.2304,-1.295,-1.3009,-1.2987,0.0,0.0,0.0,0.0,0.0,0.0,0.0,0.0,0.0,-1.601,-1.6336,-1.6896,-1.7744,-1.7583,-1.7668,-1.7989,-1.7856,-1.7709,-1.7561,-1.7454,-1.7163,-1.6826,-1.6723,-1.6392,-1.5739,-1.4047,-1.3254,-1.2957,0.0,0.0,0.0,0.0,-0.9874,-0.9983,0.0,0.0,0.0,0.0,0.0,0.0,0.0,0.0,0.0,0.0,0.0,0.0,-1.0113,-1.0191,-1.0418,-1.0879,-1.0865,-1.1084,-1.1658,0.0,0.0,0.0,0.0,0.0,0.0,0.0,0.0,-1.5401,-1.5827,-1.6316,-1.683,-1.6869,-1.7233,-1.7833,-1.7802,-1.7086,-1.5946,-1.5955,-1.5858,0.0,0.0,0.0,0.0,0.0,0.0,0.0,0.0,0.0,0.0,0.0,0.0,0.0,0.0,0.0,0.0,0.0,0.0,0.0,0.0,0.0,0.0,0.0,0.0,0.0,0.0,0.0,0.0,0.0,0.0,0.0,0.0,0.0,0.0,0.0,0.0,0.0,0.0,-1.2375,-1.3267,-1.4274,-1.431,-1.436,0.0,0.0,0.0,0.0,0.0,0.0,-1.5644,-1.6243,-1.6877,-1.7516,-1.8089,-1.8652,-1.9106,-1.9176,-1.9211,-1.9211,-1.9165,-1.9015,-1.878,-1.8852,-1.8714,-1.8495,-1.8528,-1.8435,-1.8088,-1.5985,-1.4916,-1.4499,-1.3946,-1.3552,-1.3204,-1.2362,-1.2164,-1.2283,0.0,0.0,0.0,0.0,0.0,0.0,0.0,0.0,0.0,0.0,0.0,-1.1022,-1.0942,-1.1397,-1.1708,-1.174,-1.1559,-1.1523,-1.1689,-1.2484,0.0,0.0,0.0,0.0,0.0,0.0,0.0,-1.7073,-1.6795,-1.7037,-1.7738,-1.7659,-1.797,-1.8552,-1.8552,-1.8135,-1.7372,-1.7263,-1.6821,-1.6141,0.0,0.0,0.0,0.0,0.0,0.0,0.0,0.0,0.0,0.0,0.0,0.0,0.0,0.0,0.0,0.0,0.0,0.0,0.0,0.0,0.0,0.0,0.0,0.0,0.0,0.0,0.0,0.0,0.0,0.0,0.0,0.0,0.0,0.0,0.0,0.0,0.0,0.0,0.0,-1.4599,-1.5605,0.0,0.0,0.0,0.0,-1.6154,-1.6023,-1.6207,-1.6864,-1.7085,-1.7386,-1.7868,-1.8782,-1.9142,-1.8933,-1.9521,-1.9867,-1.9867,-1.9601,-1.9409,-1.9248,-1.9125,-1.9048,-1.8937,-1.8996,-1.8845,-1.8541,-1.8088,-1.7733,-1.7411,-1.6759,-1.6416,-1.6112,-1.4885,-1.4437,-1.4336,0.0,0.0,0.0,0.0,0.0,0.0,0.0,0.0,0.0,-1.0046,-1.1073,-1.1614,-1.0943,-1.142,-1.1965,-1.235,-1.2353,-1.2582,-1.3148,-1.3546,0.0,0.0,0.0,0.0,0.0,0.0,-1.7082,-1.714,-1.8025,-1.8516,-1.8654,-1.909,-1.9399,-1.9554,-1.9513,-1.9311,-1.8985,-1.8729,-1.8189,-1.7444,-1.6963,-1.6312,0.0,0.0,0.0,0.0,0.0,0.0,0.0,0.0,0.0,0.0,0.0,0.0,0.0,0.0,0.0,0.0,0.0,0.0,0.0,0.0,0.0,0.0,0.0,0.0,0.0,0.0,0.0,0.0,0.0,0.0,0.0,0.0,0.0,0.0,0.0,0.0,0.0,-1.5857,-1.6382,0.0,-1.7146,-1.713,-1.707,-1.7019,-1.7291,-1.7556,-1.7816,-1.8307,-1.8862,-1.9377,-2.0159,-2.0662,-2.0781,-2.1093,-2.1204,-2.1112,-2.0926,-2.0832,-2.0772,-2.0631,-2.0549,-2.0563,-2.0468,-2.0359,-2.0263,-2.007,-1.9195,-1.8012,-1.7718,-1.7585,-1.7501,-1.6842,-1.665,-1.666,0.0,0.0,0.0,0.0,0.0,0.0,0.0,0.0,0.0,-1.0448,-1.1486,-1.2126,-1.1718,-1.2224,-1.2734,-1.3139,-1.3187,-1.3431,-1.4009,-1.4163,0.0,0.0,0.0,0.0,0.0,-1.7826,-1.8174,-1.7905,-1.9187,-1.9722,-1.9578,-2.0058,-2.0362,-2.0467,-2.0433,-2.0447,-2.0542,-2.0351,-1.9624,-1.8571,-1.8098,-1.759,-1.701,0.0,0.0,0.0,0.0,0.0,0.0,0.0,0.0,0.0,0.0,0.0,0.0,0.0,0.0,0.0,0.0,0.0,0.0,0.0,0.0,0.0,0.0,0.0,0.0,0.0,0.0,0.0,0.0,0.0,0.0,0.0,0.0,0.0,0.0,0.0,-1.5646,-1.6937,-1.7391,-1.7676,-1.7978,-1.7998,-1.796,-1.7857,-1.8212,-1.8534,-1.8784,-1.9298,-1.9807,-2.033,-2.108,-2.1558,-2.1704,-2.1993,-2.2091,-2.1949,-2.1793,-2.1746,-2.1746,-2.152,-2.1423,-2.1471,-2.1277,-2.118,-2.118,-2.1082,-2.0325,-1.9114,-1.8541,-1.8308,-1.8163,-1.7533,-1.735,-1.7421,0.0,0.0,0.0,0.0,0.0,0.0,0.0,0.0,-1.0402,-1.1111,-1.1813,-1.2547,-1.3317,-1.3817,-1.4096,-1.4105,-1.4033,-1.4037,-1.4114,-1.4265,0.0,0.0,0.0,0.0,-1.7595,-1.9047,-1.972,-1.9547,-2.0274,-2.0611,-2.0534,-2.0569,-2.0796,-2.1254,-2.1254,-2.1528,-2.1998,-2.1998,-2.1038,-1.9487,-1.9509,-1.9438,-1.917,0.0,0.0,0.0,0.0,0.0,0.0,0.0,0.0,0.0,0.0,0.0,0.0,0.0,0.0,0.0,0.0,0.0,0.0,0.0,0.0,0.0,0.0,0.0,0.0,0.0,0.0,0.0,0.0,0.0,0.0,0.0,0.0,0.0,-1.5862,-1.6074,-1.6613,-1.7813,-1.8613,-1.9026,-1.8822,-1.8851,-1.8851,-1.8851,-1.8817,-1.9116,-1.981,-1.9944,-2.0191,-2.0698,-2.147,-2.1728,-2.152,-2.2087,-2.2324,-2.2184,-2.2044,-2.1996,-2.201,-2.1616,-2.1471,-2.1643,-2.134,-2.1229,-2.1229,-2.1229,-2.1131,-2.0877,-1.9454,-1.8699,-1.8338,-1.7068,-1.6622,-1.6654,0.0,0.0,0.0,0.0,0.0,0.0,0.0,-1.0589,-1.1096,-1.1241,-1.2365,-1.3188,-1.3315,-1.3884,-1.4208,-1.4109,-1.4119,-1.4177,-1.4234,0.0,0.0,0.0,0.0,0.0,-1.9344,-1.9712,-2.005,-2.0447,-2.1231,-2.1522,-2.1298,-2.1832,-2.2081,-2.2071,-2.2071,-2.2107,-2.2152,-2.2152,-2.1797,-2.1233,-2.0661,-2.0081,-1.9476,0.0,0.0,0.0,0.0,0.0,0.0,0.0,0.0,0.0,0.0,0.0,0.0,0.0,0.0,0.0,0.0,0.0,0.0,0.0,0.0,0.0,0.0,0.0,0.0,0.0,0.0,0.0,0.0,0.0,0.0,0.0,0.0,-1.6053,-1.6468,-1.709,-1.7798,-1.8582,-1.9014,-1.9213,-1.9176,-1.9651,-1.9953,-1.9953,-2.0391,-2.0743,-2.0958,-2.133,-2.1582,-2.1643,-2.225,-2.2448,-2.2175,-2.2423,-2.2417,-2.2184,-2.1996,-2.2124,-2.2637,-2.1856,-2.1849,-2.238,-2.1842,-2.1664,-2.1664,-2.1664,-2.152,-2.1251,-2.0567,-2.0289,-2.0237,-1.9633,-1.9323,-1.9177,0.0,0.0,0.0,0.0,0.0,0.0,0.0,-1.0493,-1.0943,-1.1228,-1.2252,-1.3039,-1.3268,-1.3907,-1.4265,-1.415,-1.419,-1.4368,-1.4782,0.0,0.0,0.0,0.0,-1.9235,-2.0045,-2.0648,-2.1078,-2.1348,-2.2159,-2.2404,-2.22,-2.2583,-2.2685,-2.2487,-2.246,-2.2366,-2.2259,-2.2562,-2.2478,-2.2101,-2.1915,-2.1344,-2.0505,-2.0147,-1.9475,-1.8741,-1.8392,-1.7757,-1.6977,-1.6326,0.0,0.0,0.0,0.0,0.0,0.0,0.0,0.0,0.0,0.0,0.0,0.0,0.0,0.0,0.0,0.0,0.0,0.0,0.0,0.0,0.0,0.0,0.0,0.0,-1.6757,-1.7219,-1.7479,-1.7911,-1.8477,-1.9169,-1.9376,-1.9553,-1.9767,-2.0188,-2.0567,-2.0809,-2.1178,-2.1503,-2.1768,-2.2069,-2.2336,-2.2484,-2.2744,-2.2913,-2.294,-2.2955,-2.3036,-2.3164,-2.2971,-2.3105,-2.354,-2.293,-2.2908,-2.3328,-2.2881,-2.2679,-2.2679,-2.263,-2.2482,-2.2151,0.0,0.0,0.0,0.0,-1.9941,-2.001,0.0,0.0,0.0,0.0,0.0,0.0,0.0,-1.0112,-1.0373,-1.1103,-1.1812,-1.249,-1.3232,-1.3901,-1.4273,-1.4224,-1.4301,-1.476,0.0,0.0,0.0,-1.819,-1.9536,-2.03,-2.0277,-2.1675,-2.2361,-2.2233,-2.2959,-2.3217,-2.2995,-2.2944,-2.279,-2.2605,-2.2525,-2.2483,-2.2479,-2.3122,-2.3071,-2.2615,-2.3216,-2.2828,-2.1845,-2.1109,-2.0782,-2.0633,-1.9981,-1.9764,-1.9586,-1.8218,0.0,0.0,0.0,0.0,0.0,0.0,0.0,0.0,0.0,0.0,0.0,0.0,0.0,0.0,0.0,0.0,0.0,0.0,0.0,0.0,0.0,0.0,0.0,0.0,-1.7844,-1.8728,-1.8767,-1.8782,-1.901,-1.9551,-1.9765,-2.0019,-2.0527,-2.0706,-2.101,-2.1539,-2.1643,-2.1898,-2.2433,-2.2463,0.0,0.0,0.0,-2.3235,-2.3688,-2.3665,-2.3897,-2.4469,-2.4319,-2.4362,-2.4583,-2.4247,-2.4247,-2.4418,-2.4095,-2.3965,-2.3914,-2.3798,-2.3644,-2.3324,-2.1396,-2.0462,-2.0157,-1.9482,-1.9541,-1.99,0.0,0.0,0.0,0.0,0.0,0.0,0.0,-1.0152,-1.0448,-1.1179,-1.1861,-1.2568,-1.3299,-1.3917,-1.4319,-1.4356,-1.4912,-1.5909,0.0,0.0,-1.8663,-1.9945,-2.0154,-2.0806,-2.207,-2.235,-2.2708,-2.3152,-2.3312,-2.3241,-2.2995,-2.2944,-2.2816,-2.2685,-2.2552,-2.2801,-2.3277,-2.3354,-2.3646,-2.4069,-2.4222,-2.3418,-2.2106,-2.1864,-2.1401,-2.0838,-2.0639,-2.0234,-1.9746,-1.9462,-1.9378,-1.9244,-1.8276,0.0,0.0,0.0,0.0,0.0,0.0,0.0,0.0,0.0,0.0,0.0,0.0,0.0,0.0,0.0,0.0,0.0,0.0,0.0,0.0,-1.8401,-1.9036,-1.9726,-2.0339,-2.0503,-2.0352,-1.9822,-2.0352,-2.0766,-2.0903,-2.1886,-2.2526,-2.2525,-2.302,-2.3338,-2.3357,-2.3316,-2.3288,-2.3275,-2.367,-2.3807,-2.3688,-2.4124,-2.4305,-2.4319,-2.4219,0.0,-2.5057,-2.4495,-2.4589,-2.5146,-2.4481,-2.4219,-2.4219,-2.4067,-2.3965,-2.3715,-2.2442,-2.1766,-2.1449,-2.0962,-2.0766,-2.0713,0.0,0.0,0.0,0.0,0.0,0.0,0.0,-1.0159,-1.0421,-1.1204,-1.1914,-1.2624,-1.3374,-1.4058,-1.4641,-1.5062,-1.6193,0.0,0.0,-1.8489,-1.9261,-2.0403,-2.0681,-2.1367,-2.262,-2.2971,-2.3279,-2.3494,-2.3471,-2.3313,-2.3045,-2.2944,-2.3033,-2.3237,-2.3117,-2.3414,-2.4071,-2.4371,-2.4478,-2.4481,-2.4835,-2.4079,-2.2694,-2.3046,-2.2962,-2.258,-2.217,-2.1814,-2.1418,-2.0663,-2.0444,-2.0344,-1.9478,-1.9193,-1.8876,0.0,0.0,0.0,0.0,0.0,0.0,0.0,0.0,0.0,0.0,0.0,0.0,0.0,0.0,-1.7258,0.0,0.0,-1.9079,-1.9444,-2.0142,-2.0712,-2.1042,-2.1467,-2.1559,-2.1075,-2.1296,-2.1668,-2.2026,-2.2626,-2.3076,-2.3269,-2.3601,-2.3889,-2.4103,-2.3761,-2.3792,-2.431,-2.417,-2.4352,-2.4932,-2.5069,-2.5351,-2.5669,-2.5515,-2.5621,-2.5974,-2.5592,-2.5673,-2.6064,-2.5578,-2.5383,-2.5383,-2.5137,-2.4927,-2.4699,-2.3813,-2.3128,-2.2636,-2.2339,-2.1928,-2.1522,0.0,0.0,0.0,0.0,0.0,0.0,0.0,0.0,0.0,-1.098,-1.1718,-1.2444,-1.3195,-1.394,-1.4748,0.0,0.0,0.0,0.0,-1.8867,-1.968,-2.0334,-2.1025,-2.1784,-2.2638,-2.3371,-2.3696,-2.3585,-2.3517,-2.336,-2.3119,-2.2995,-2.3267,-2.386,-2.3721,-2.4074,-2.49,-2.5402,-2.5323,-2.4905,-2.5494,-2.4974,-2.3885,-2.4553,-2.4553,-2.4036,-2.3388,-2.3231,-2.3072,-2.1664,-2.1255,-2.1154,-2.0237,-1.9934,-1.9641,-1.8294,-1.779,0.0,0.0,0.0,0.0,0.0,0.0,0.0,0.0,0.0,-1.7089,-1.7691,-1.8268,-1.8841,-1.9485,-2.0088,-2.0505,-2.0553,-2.1228,-2.1739,-2.175,-2.2298,-2.2716,-2.2647,-2.2424,-2.2507,-2.3065,-2.3331,-2.3629,-2.4033,-2.4157,-2.4415,-2.4837,-2.4327,-2.4477,-2.5429,-2.4852,-2.5051,-2.6208,-2.6075,-2.6308,-2.6951,-2.6846,-2.6779,-2.6712,-2.663,-2.6645,-2.6779,-2.6578,-2.651,-2.6404,-2.6096,-2.5893,-2.5728,-2.5077,-2.4431,-2.387,-2.3428,-2.2916,-2.238,0.0,0.0,0.0,0.0,0.0,0.0,0.0,0.0,0.0,-1.0234,-1.0886,-1.1616,-1.2357,-1.3095,-1.414,0.0,0.0,0.0,-1.8051,-1.8871,-1.9583,-2.0192,-2.091,-2.1702,-2.2497,-2.3239,-2.3585,-2.3517,-2.3517,-2.3383,-2.3193,-2.3102,-2.344,-2.4049,-2.386,-2.4528,-2.5763,-2.5703,-2.5995,-2.6454,-2.6539,-2.6471,-2.6303,-2.6354,-2.5028,-2.3145,-2.3062,-2.312,-2.3076,-2.2178,-2.1922,-2.186,-2.1105,-2.0744,-2.0462,-1.9803,0.0,-1.9256,-1.8493,-1.8095,-1.8074,-1.8772,-1.8739,-1.8619,0.0,0.0,-1.9542,-1.9682,-2.0178,-2.0764,-2.1392,-2.1528,-2.1745,-2.2465,-2.2509,-2.268,-2.325,-2.3406,-2.3686,-2.4253,-2.3723,-2.3319,-2.3286,-2.4337,-2.5047,-2.5053,-2.5469,-2.5788,-2.5864,-2.5636,-2.5574,-2.56,-2.5819,-2.6012,-2.6208,-2.6542,-2.6707,-2.6832,-2.6779,-2.6712,-2.651,-2.6712,-2.6779,-2.6779,-2.6578,-2.6418,-2.6326,-2.6165,-2.6056,-2.6002,-2.57,-2.5535,-2.5285,-2.4097,-2.3499,-2.3341,0.0,0.0,0.0,0.0,0.0,0.0,0.0,0.0,0.0,0.0,0.0,-1.1724,-1.2983,-1.4195,0.0,0.0,0.0,0.0,-1.743,-1.8141,-1.8856,-1.954,-2.0191,-2.1157,-2.2476,-2.2772,-2.3119,-2.3562,-2.3517,-2.3401,-2.3193,-2.3144,-2.3718,-2.4784,-2.459,-2.5367,-2.6768,-2.6497,-2.6554,-2.6792,-2.6742,-2.6184,-2.5456,-2.588,-2.4822,-2.3201,-2.3684,-2.3718,0.0,0.0,-2.2315,-2.2248,-2.1748,-2.158,-2.1429,-2.0747,-2.0555,0.0,-1.9664,-1.9302,-1.9214,0.0,-1.9239,-1.9224,-1.9631,-1.9941,-2.0362,-2.1183,-2.1585,-2.1907,-2.2114,-2.2449,-2.262,0.0,-2.3052,-2.3591,-2.37,-2.4053,-2.4554,-2.5211,-2.4751,-2.446,-2.4688,-2.5222,-2.5632,-2.5887,-2.6016,-2.6077,-2.5863,-2.5832,-2.592,-2.6279,-2.6321,-2.6599,-2.7121,-2.7049,-2.7078,-2.7144,-2.7078,-2.6922,-2.6765,-2.6884,-2.6899,-2.6779,-2.6712,-2.6592,-2.6418,-2.6365,-2.6258,-2.6111,-2.6002,-2.5893,-2.5728,-2.5009,-2.4486,-2.4116,0.0,0.0,0.0,0.0,0.0,0.0,0.0,0.0,0.0,0.0,0.0,0.0,0.0,0.0,0.0,0.0,0.0,0.0,0.0,-1.7302,-1.7988,-1.8723,-1.9345,-2.0366,-2.1788,-2.1962,-2.2439,-2.3245,-2.32,-2.3193,-2.3265,-2.3217,-2.3847,-2.5032,-2.4858,-2.5548,-2.6797,-2.6756,-2.658,-2.6345,-2.6468,-2.5722,-2.4605,-2.5133,-2.4672,-2.3786,-2.416,-2.4057,0.0,0.0,-2.2571,-2.2508,-2.2226,-2.2023,-2.1821,-2.1495,-2.1322,-2.1181,-2.0763,0.0,0.0,-2.0306,-2.0291,-2.0401,-2.0983,-2.1224,-2.1626,-2.2655,-2.2949,-2.303,-2.3211,-2.3586,-2.3677,-2.3162,-2.3875,-2.4398,-2.4107,-2.4508,-2.5035,-2.5548,-2.5306,-2.5393,-2.6089,-2.6056,-2.6122,-2.6625,-2.6719,-2.6672,-2.6517,-2.6547,-2.6728,-2.7149,-2.6969,-2.716,-2.779,-2.7473,-2.7335,-2.7401,-2.7284,-2.7181,-2.7041,-2.7003,-2.6951,-2.6779,-2.6779,-2.6712,-2.6578,-2.651,-2.6365,-2.6165,-2.6111,-2.6002,-2.5893,-2.5702,-2.53,-2.4898,0.0,0.0,0.0,0.0,0.0,0.0,0.0,0.0,0.0,0.0,0.0,0.0,0.0,0.0,0.0,0.0,0.0,0.0,0.0,-1.647,-1.7143,-1.781,-1.8537,-1.929,-2.0055,-2.0769,-2.1518,-2.2343,-2.2343,-2.2709,-2.3383,-2.3383,-2.3737,-2.4329,-2.4329,-2.4681,-2.531,-2.6011,-2.5742,-2.4932,-2.5699,-2.5497,-2.4692,-2.4666,-2.4795,-2.4947,-2.4109,0.0,0.0,0.0,-2.2772,-2.2608,-2.2581,-2.1871,0.0,-2.2112,-2.1898,-2.1524,-2.215,0.0,-2.1454,-2.2681,-2.2898,-2.299,-2.3783,-2.3917,-2.395,-2.4176,-2.4257,-2.4475,-2.5179,-2.5162,-2.5172,-2.5526,-2.5357,-2.5098,-2.4831,-2.4886,-2.5021,-2.5123,-2.5278,-2.5901,0.0,-2.6875,-2.6805,-2.7303,-2.7869,-2.8174,-2.8286,-2.8334,-2.8253,-2.8155,-2.8042,-2.791,-2.779,-2.7675,-2.7524,-2.7401,-2.7401,-2.7335,-2.7181,-2.7041,-2.6951,-2.6779,-2.6779,-2.6779,-2.6779,-2.6578,-2.6418,-2.6286,-2.6165,-2.6002,-2.5893,-2.5893,-2.577,-2.5646,0.0,0.0,0.0,0.0,0.0,0.0,0.0,0.0,0.0,0.0,0.0,0.0,0.0,0.0,0.0,0.0,0.0,0.0,0.0,-1.5611,-1.6309,-1.698,-1.7709,-1.8682,-1.9907,-2.0235,-2.0735,-2.1512,-2.1993,-2.2384,-2.2692,-2.3135,-2.3785,-2.4555,-2.437,-2.4734,-2.5464,-2.5527,-2.5379,-2.5149,-2.538,-2.5328,-2.5097,-2.5164,-2.5349,-2.5496,0.0,0.0,0.0,0.0,-2.3369,-2.3165,-2.294,-2.2599,-2.2324,-2.2625,-2.2522,-2.2461,-2.3083,0.0,-2.2897,-2.3591,-2.3842,-2.3909,-2.3999,-2.4146,-2.4376,-2.4796,-2.5011,-2.5128,-2.5247,-2.5509,-2.5494,-2.4944,-2.5056,-2.5123,-2.4661,-2.4886,-2.5362,-2.6214,-2.6214,0.0,0.0,0.0,0.0,-2.8434,-2.8109,-2.7891,-2.786,-2.8198,-2.8148,-2.7529,-2.7893,-2.8088,-2.7905,-2.7725,-2.7575,-2.7524,-2.7437,-2.7401,-2.735,-2.7107,-2.7003,-2.6951,-2.6846,-2.6779,-2.6779,-2.6712,-2.6592,-2.6418,-2.6272,-2.6165,-2.6002,-2.5948,-2.5893,-2.5839,0.0,0.0,0.0,0.0,0.0,0.0,0.0,0.0,0.0,0.0,0.0,0.0,0.0,0.0,0.0,0.0,0.0,0.0,0.0,0.0,-1.5527,-1.6211,-1.6643,-1.7462,-1.8681,-1.9022,-1.9558,-2.0342,-2.109,-2.1628,-2.1956,-2.2367,-2.286,-2.3427,-2.3537,-2.3897,-2.441,-2.4804,-2.4953,-2.5015,-2.4925,-2.4971,-2.5059,-2.486,-2.5093,0.0,0.0,0.0,0.0,0.0,-2.3821,-2.3566,-2.3259,-2.3,-2.2764,-2.2563,-2.2608,-2.2789,-2.3134,-2.3374,-2.3621,-2.3994,-2.4443,-2.4807,-2.4913,-2.5078,-2.5261,-2.5631,-2.5899,-2.6015,-2.5765,-2.5979,-2.5936,-2.494,-2.5034,-2.5124,-2.4891,-2.5152,-2.5781,-2.6893,-2.6892,-2.7358,0.0,0.0,0.0,-2.881,-2.8108,-2.769,-2.7875,-2.8261,-2.8196,-2.7655,-2.8102,-2.8235,-2.8054,-2.784,-2.7675,-2.7625,-2.7539,-2.7437,-2.7401,-2.7196,-2.7107,-2.7003,-2.6899,-2.6846,-2.6779,-2.6779,-2.6712,-2.651,-2.6418,-2.6272,-2.6111,-2.6002,-2.5948,-2.5893,0.0,0.0,0.0,0.0,0.0,0.0,0.0,0.0,0.0,0.0,0.0,0.0,0.0,0.0,0.0,0.0,0.0,0.0,0.0,0.0,0.0,-1.5551,-1.547,-1.5789,-1.6586,-1.7333,-1.8106,-1.893,-1.9722,-2.0494,-2.1249,-2.1207,-2.1167,-2.1126,-2.1893,-2.221,-2.2234,-2.3768,-2.4382,-2.4364,-2.4292,-2.4435,-2.4633,-2.3885,0.0,0.0,0.0,0.0,0.0,0.0,0.0,0.0,-2.3544,-2.3074,-2.2521,-2.1992,-2.2211,-2.2569,-2.2483,-2.3022,-2.368,-2.4058,-2.481,-2.5663,-2.6421,-2.659,-2.6607,-2.664,-2.6875,-2.6989,0.0,0.0,-2.6419,-2.5603,-2.5307,-2.5258,-2.5466,-2.5701,-2.6209,0.0,0.0,0.0,0.0,0.0,0.0,-2.8528,-2.7938,-2.7814,-2.8414,-2.8541,-2.8541,-2.8396,-2.8541,-2.8477,-2.8186,-2.8084,-2.7916,-2.7715,-2.773,-2.7643,-2.749,-2.7505,-2.7351,-2.7106,-2.7076,-2.6943,-2.6823,-2.6794,-2.6712,-2.651,-2.651,-2.6379,-2.6167,-2.6167,-2.6073,-2.5992,0.0,0.0,0.0,0.0,0.0,0.0,0.0,0.0,0.0,0.0,0.0,0.0,0.0,0.0,0.0,0.0,0.0,0.0,0.0,0.0,0.0,0.0,0.0,0.0,0.0,0.0,0.0,0.0,-1.9417,-2.0263,-2.0553,-2.0956,-2.1167,-2.1247,-2.1358,-2.1402,-2.1434,-2.2394,-2.2774,-2.2822,0.0,-2.4216,-2.4865,0.0,0.0,0.0,0.0,0.0,0.0,0.0,0.0,0.0,0.0,-2.3028,-2.2782,-2.2539,-2.2495,-2.2661,-2.3209,-2.3443,-2.368,-2.4306,-2.4675,-2.5108,-2.5951,-2.6185,-2.6402,-2.7063,-2.7279,-2.7057,0.0,0.0,0.0,-2.4987,-2.5648,0.0,-2.5459,-2.6139,0.0,-2.7436,0.0,-2.8211,-2.8835,-2.8386,0.0,0.0,-2.8139,-2.8138,-2.8858,-2.8716,-2.8573,-2.8525,-2.8573,-2.8477,-2.8186,-2.8475,-2.8822,-2.9252,-2.9109,-2.9071,-2.9032,-2.8964,-2.8788,-2.8542,-2.7979,-2.7652,-2.7461,-2.6982,-2.6779,-2.6712,-2.6578,-2.6705,-2.6985,-2.6805,-2.699,-2.7228,0.0,0.0,0.0,0.0,0.0,0.0,0.0,0.0,0.0,0.0,0.0,0.0,0.0,0.0,0.0,0.0,0.0,0.0,0.0,0.0,0.0,0.0,0.0,0.0,0.0,0.0,0.0,0.0,0.0,0.0,-1.8725,-1.9004,-1.9326,-1.9703,-1.9946,-2.0243,-2.0578,-2.1359,0.0,0.0,0.0,0.0,0.0,0.0,0.0,0.0,0.0,0.0,0.0,0.0,0.0,-2.3681,-2.3277,-2.2995,-2.2816,-2.279,0.0,-2.2681,-2.3148,-2.3436,-2.3739,-2.4108,-2.4466,-2.4855,-2.5312,-2.5807,-2.6243,-2.6626,-2.7217,0.0,-2.6582,0.0,0.0,0.0,0.0,0.0,-2.5803,-2.6396,-2.7196,0.0,-2.8355,0.0,-2.9044,-2.8835,-2.8726,0.0,-2.8216,-2.8122,-2.8858,-2.8621,-2.8541,-2.8573,-2.8541,-2.8381,-2.8186,-2.8404,-2.8783,-2.9222,-2.9237,-2.9349,-2.9456,-2.9456,-2.9401,-2.9193,-2.8674,-2.8418,-2.821,-2.7821,-2.7621,-2.7607,-2.7538,-2.759,-2.7795,-2.7626,-2.7683,-2.778,0.0,0.0,0.0,0.0,0.0,0.0,0.0,0.0,0.0,0.0,0.0,0.0,0.0,0.0,0.0,0.0,0.0,0.0,0.0,0.0,0.0,0.0,0.0,0.0,0.0,0.0,0.0,0.0,0.0,0.0,0.0,0.0,0.0,0.0,0.0,0.0,0.0,0.0,0.0,0.0,0.0,0.0,0.0,0.0,0.0,0.0,0.0,0.0,0.0,0.0,-2.4136,-2.3681,-2.3283,-2.297,-2.2738,-2.285,-2.2816,-2.2712,-2.2712,-2.3177,-2.3677,-2.3622,-2.4064,-2.455,-2.4594,-2.5402,-2.6103,-2.5932,0.0,-2.7816,-2.7091,-2.6781,-2.6371,-2.5576,0.0,-2.5284,-2.6262,-2.6676,-2.7311,-2.8591,-2.8764,-2.8842,-2.9045,-2.9075,-2.9121,-2.9075,-2.8325,-2.8108,-2.8637,-2.8493,-2.8444,-2.8589,-2.8493,-2.8394,-2.8373,-2.8324,-2.8445,-2.8682,-2.8854,-2.9064,-2.9347,-2.96,-2.9645,-2.9535,-2.9341,-2.9116,-2.8931,-2.8779,-2.8679,-2.8606,-2.8637,-2.8668,-2.8626,-2.8441,-2.8311,-2.8122,0.0,0.0,0.0,0.0,0.0,0.0,0.0,0.0,0.0,0.0,-0.9717,0.0,0.0,0.0,0.0,0.0,0.0,0.0,0.0,0.0,0.0,0.0,0.0,0.0,0.0,0.0,0.0,0.0,0.0,0.0,0.0,0.0,0.0,0.0,0.0,0.0,0.0,0.0,0.0,0.0,0.0,0.0,0.0,0.0,0.0,0.0,0.0,0.0,0.0,0.0,-2.4372,-2.385,-2.3307,-2.2952,-2.279,-2.2816,-2.2816,-2.279,-2.2868,-2.2955,-2.3059,-2.3033,-2.312,-2.3397,-2.4066,-2.5014,0.0,0.0,-2.7391,-2.769,-2.6089,-2.6696,-2.6795,-2.4985,0.0,0.0,0.0,0.0,-2.776,0.0,0.0,0.0,0.0,0.0,0.0,0.0,-2.8887,-2.8871,-2.8858,-2.8573,-2.8396,-2.8444,-2.8541,-2.8755,-2.9177,-2.9077,-2.9261,-2.972,-2.9682,-2.9582,-2.954,-3.0103,-3.0287,-3.0149,-3.0078,-2.9711,-2.9042,-2.8931,-2.8554,-2.8075,-2.8519,-2.8943,-2.9217,-2.9217,-2.9297,-2.9412,0.0,0.0,0.0,0.0,0.0,0.0,0.0,0.0,0.0,0.0,-0.9563,-0.9507,0.0,0.0,0.0,0.0,0.0,0.0,0.0,0.0,0.0,0.0,0.0,0.0,0.0,0.0,0.0,0.0,0.0,0.0,0.0,0.0,0.0,0.0,0.0,0.0,0.0,0.0,0.0,0.0,0.0,0.0,0.0,0.0,0.0,0.0,0.0,0.0,0.0,0.0,-2.395,-2.36,-2.3356,-2.3182,-2.3052,-2.2927,-2.2995,-2.307,-2.307,-2.302,-2.297,-2.2995,-2.2944,-2.3006,-2.3423,0.0,0.0,0.0,-2.633,-2.6806,-2.5729,0.0,0.0,0.0,0.0,0.0,0.0,0.0,0.0,0.0,0.0,0.0,0.0,-2.8987,-2.8952,-2.8982,-2.9152,-2.909,-2.8904,-2.8732,-2.8653,-2.8653,-2.8621,-2.8728,-2.8971,-2.8824,-2.8961,-2.9305,-2.9388,-2.941,-2.9486,-3.0167,-3.041,-3.0327,-3.0569,-3.0424,-2.9957,-2.9943,-2.9652,-2.9347,-2.9667,-2.9915,-2.9985,-2.9925,-2.9932,-2.9983,0.0,0.0,0.0,0.0,0.0,0.0,0.0,-0.991,-0.9768,-0.953,-0.9394,-0.9321,-0.9265,-0.9273,-0.9261,0.0,0.0,0.0,0.0,0.0,0.0,0.0,0.0,0.0,0.0,0.0,0.0,-1.3894,0.0,0.0,0.0,0.0,0.0,0.0,-1.4808,0.0,0.0,0.0,0.0,0.0,0.0,0.0,0.0,0.0,0.0,0.0,0.0,0.0,0.0,0.0,-2.3291,-2.307,-2.3258,-2.3352,-2.3312,-2.2981,-2.3076,-2.3289,-2.3241,-2.3102,-2.2995,-2.3028,-2.2995,-2.2919,-2.2977,-2.3799,0.0,0.0,-2.5308,-2.5937,-2.5478,0.0,0.0,0.0,0.0,0.0,0.0,0.0,0.0,0.0,0.0,0.0,0.0,-2.899,0.0,-2.9182,-2.9259,-2.9213,-2.8904,-2.8904,-2.8904,-2.8904,-2.8748,-2.8621,-2.8573,-2.8493,-2.8461,-2.8559,-2.8728,-2.8845,-2.8931,-2.9749,-2.9993,-2.9941,-3.0686,-3.0778,-3.05,-3.0763,-3.0793,-3.0616,-3.0822,-3.0881,-3.0792,-3.0613,-3.0493,-3.036,0.0,0.0,0.0,0.0,0.0,0.0,0.0,-0.9755,-0.9658,-0.9516,-0.9275,-0.9126,-0.9113,-0.9181,-0.9184,0.0,0.0,0.0,0.0,0.0,0.0,0.0,0.0,0.0,0.0,0.0,0.0,-1.2222,-1.2823,0.0,0.0,0.0,0.0,0.0,0.0,-1.3933,-1.3922,0.0,0.0,0.0,0.0,0.0,0.0,0.0,0.0,0.0,0.0,0.0,0.0,0.0,0.0,-2.2301,-2.2862,-2.332,-2.3502,-2.269,0.0,0.0,-2.3289,-2.3102,-2.2919,-2.2919,-2.2919,-2.2919,-2.2977,0.0,0.0,-2.4506,-2.5308,-2.5769,-2.4926,-2.5843,-2.6398,0.0,0.0,-2.664,0.0,0.0,0.0,0.0,0.0,0.0,0.0,-2.9348,-2.9572,-2.9473,-2.9473,-2.9321,-2.8904,-2.8904,-2.8904,-2.8904,-2.8858,-2.8779,-2.8573,-2.8589,-2.8427,-2.8046,-2.8096,-2.7961,-2.7769,-2.8457,-2.8719,-2.8672,-2.9963,-3.0157,-2.9614,-3.0802,-3.0979,-3.0544,-3.104,-3.1336,-3.1422,-3.1422,-3.1204,-3.0955,0.0,0.0,0.0,0.0,0.0,0.0,0.0,-0.9717,-0.9581,-0.9403,-0.9179,-0.905,-0.9041,-0.8953,-0.8925,0.0,0.0,0.0,0.0,0.0,0.0,0.0,0.0,0.0,0.0,0.0,0.0,-1.1934,-1.2209,0.0,0.0,0.0,0.0,0.0,0.0,-1.3809,-1.3761,0.0,0.0,0.0,0.0,0.0,0.0,0.0,0.0,0.0,0.0,0.0,0.0,0.0,0.0,0.0,-2.1637,-2.2477,0.0,0.0,-2.3009,-2.2779,-2.266,-2.2072,-2.1607,-2.2069,-2.1819,-2.1739,-2.2793,0.0,-2.3277,-2.3845,-2.4306,-2.4477,-2.4075,-2.4683,-2.5235,-2.5062,0.0,0.0,0.0,0.0,0.0,0.0,0.0,0.0,0.0,0.0,-2.8962,-2.9629,-2.9592,-2.9473,-2.9396,-2.9243,-2.9106,-2.9013,-2.8967,-2.8826,-2.8732,-2.8636,-2.8493,-2.8266,-2.8069,-2.7905,-2.7755,-2.8432,-2.8562,-2.8411,-2.9788,-2.9926,-2.9326,-3.0743,-3.0949,-3.047,-3.1255,-3.1495,-3.148,-3.148,-3.1422,-3.1306,0.0,0.0,0.0,0.0,0.0,0.0,-0.972,-0.9605,-0.9447,-0.9257,-0.9064,-0.893,-0.892,-0.8748,-0.8689,-0.8776,0.0,0.0,0.0,0.0,0.0,0.0,0.0,0.0,0.0,0.0,-1.0599,-1.1167,-1.1412,-1.1787,0.0,0.0,-1.2969,-1.3634,0.0,0.0,0.0,0.0,0.0,0.0,0.0,0.0,0.0,0.0,0.0,0.0,0.0,0.0,0.0,0.0,0.0,0.0,0.0,0.0,0.0,0.0,-2.2998,-2.2847,-2.2672,-2.2033,-2.1517,-2.2028,-2.1742,-2.1627,0.0,0.0,-2.2709,-2.3526,-2.37,-2.37,-2.3611,-2.4035,-2.454,-2.4901,0.0,-2.5664,-2.5697,0.0,0.0,0.0,0.0,-2.7445,0.0,-2.8314,-2.8682,-2.948,-2.9597,-2.9681,-2.977,-2.9576,-2.9396,-2.9275,-2.9106,-2.8982,-2.8873,-2.8732,-2.8589,-2.846,-2.8201,-2.8005,-2.7905,-2.8374,-2.8417,-2.8204,-2.946,-2.963,-2.9139,-3.0687,-3.1054,-3.0694,-3.1581,-3.1894,-3.1894,-3.1766,-3.1766,-3.1766,0.0,0.0,0.0,0.0,0.0,0.0,0.0,-0.9394,-0.9258,-0.9119,-0.8919,-0.8764,-0.8719,-0.8592,-0.8508,-0.8508,0.0,0.0,0.0,0.0,0.0,0.0,0.0,0.0,0.0,0.0,-0.9475,-0.9421,-1.0292,-1.0657,-1.0532,-1.1412,-1.2175,-1.2816,0.0,0.0,0.0,0.0,0.0,0.0,0.0,0.0,0.0,0.0,0.0,0.0,0.0,0.0,0.0,0.0,0.0,0.0,0.0,0.0,0.0,0.0,-2.2699,-2.3756,-2.3631,-2.3427,-2.3271,-2.3271,-2.3223,-2.3253,0.0,-2.3486,-2.3481,-2.3834,-2.3831,-2.3807,-2.3813,-2.4293,-2.4782,-2.5055,-2.5498,0.0,-2.5697,0.0,0.0,0.0,0.0,-2.7664,-2.7874,-2.86,-2.9058,-2.9007,-2.9642,-2.9973,-2.9973,-2.9853,-2.9782,-2.9697,-2.9441,-2.9213,-2.9075,-2.8873,-2.8747,-2.8573,-2.8332,-2.8186,-2.8186,-2.8069,-2.7905,-2.7836,-2.8819,-2.9057,-2.8943,-3.0662,-3.1359,-3.1459,-3.2136,-3.2578,-3.2843,-3.2523,-3.2398,-3.2398,0.0,0.0,0.0,0.0,0.0,0.0,0.0,-0.9181,-0.9033,-0.8852,-0.8691,-0.8538,-0.8367,-0.8282,-0.8229,-0.8227,0.0,0.0,0.0,0.0,0.0,0.0,0.0,0.0,0.0,0.0,-0.9143,-0.9126,-1.0055,-1.0465,-1.0449,-1.1229,-1.1686,-1.186,-1.2418,0.0,0.0,0.0,0.0,0.0,0.0,0.0,0.0,0.0,0.0,0.0,0.0,0.0,0.0,0.0,0.0,0.0,0.0,0.0,0.0,0.0,0.0,0.0,-2.2818,-2.2228,-2.1759,-2.2224,-2.1908,-2.1803,-2.3047,-2.2893,-2.2726,-2.3526,-2.37,-2.3743,-2.3807,-2.3853,-2.4017,-2.4418,-2.4804,0.0,0.0,0.0,0.0,0.0,0.0,-2.7306,0.0,0.0,-2.9066,-2.9272,-2.9737,-3.0017,-3.0146,-3.0103,-2.993,-2.9576,-2.9305,-2.9121,-2.8967,-2.8873,-2.8794,-2.8747,-2.8589,-2.8477,-2.8477,-2.8429,-2.8348,-2.8247,-2.8989,-2.8904,-2.8514,-3.0048,-3.0391,-3.0151,-3.1486,-3.2042,-3.2173,-3.2462,-3.2523,-3.2523,0.0,0.0,0.0,0.0,0.0,0.0,0.0,-0.8863,-0.8716,-0.8538,-0.838,-0.824,-0.8135,-0.8039,-0.7997,-0.8023,0.0,0.0,0.0,0.0,0.0,0.0,0.0,0.0,0.0,-0.8891,-0.9111,-0.9333,-0.9939,-1.0215,-1.0185,-1.0679,-1.0873,-1.0882,-1.1713,-1.2213,0.0,0.0,0.0,0.0,0.0,0.0,-1.4386,0.0,0.0,0.0,0.0,0.0,0.0,0.0,0.0,0.0,0.0,0.0,0.0,0.0,-2.2142,0.0,0.0,-2.2225,-2.2028,-2.21,-2.1963,0.0,0.0,-2.2993,-2.278,-2.3374,-2.3571,-2.3616,-2.362,-2.3504,-2.3567,-2.4024,-2.4199,0.0,0.0,0.0,0.0,0.0,0.0,0.0,0.0,-2.7717,-2.8507,-2.8907,-2.9453,-2.991,-3.03,-3.0274,-3.0146,-2.9842,-2.9515,-2.9289,-2.9198,-2.9045,-2.9014,-2.9014,-2.8858,-2.8811,-2.8811,-2.8811,-2.8904,-2.9088,-2.9526,-2.943,0.0,-3.0273,-3.0386,-2.9853,-3.1111,-3.1585,-3.1715,-3.2157,-3.2299,-3.2384,0.0,0.0,0.0,0.0,0.0,0.0,0.0,0.0,0.0,0.0,-0.798,-0.7869,-0.7914,-0.7827,-0.7768,0.0,0.0,0.0,0.0,0.0,0.0,0.0,0.0,0.0,0.0,-0.8795,-0.9225,-0.9781,-0.9921,-0.9895,-0.9706,-0.9825,-0.9865,-0.987,-1.0771,-1.1627,0.0,0.0,0.0,0.0,0.0,0.0,0.0,0.0,0.0,0.0,0.0,0.0,0.0,0.0,0.0,0.0,0.0,0.0,0.0,0.0,0.0,0.0,0.0,0.0,0.0,0.0,0.0,0.0,0.0,-2.3567,0.0,-2.3318,-2.3422,-2.3463,-2.3323,-2.3265,-2.3386,-2.3894,0.0,0.0,0.0,0.0,0.0,0.0,-2.6382,0.0,-2.6099,-2.6902,-2.7686,-2.8196,-2.8926,-2.9708,-3.0452,-3.0443,-3.0417,-3.0417,-3.0044,-2.9782,-2.9697,-2.9441,-2.9335,-2.9305,-2.9213,-2.9121,-2.9121,-2.9121,-2.9485,-3.0149,-3.0291,-3.0244,-3.0196,-3.1087,-3.0959,-3.0291,-3.0908,-3.1227,-3.1371,-3.1648,-3.1847,-3.1992,0.0,0.0,0.0,0.0,0.0,0.0,0.0,0.0,0.0,0.0,-0.7502,-0.744,-0.7187,-0.7219,-0.7251,0.0,0.0,0.0,0.0,0.0,0.0,0.0,0.0,0.0,0.0,-0.8447,-0.8562,-0.8594,-0.9491,-0.9542,-0.8808,-0.9507,-0.9555,-0.9105,-1.0447,-1.1799,0.0,0.0,0.0,0.0,0.0,0.0,0.0,0.0,0.0,0.0,-1.5175,-1.6038,0.0,0.0,0.0,0.0,0.0,0.0,0.0,0.0,-2.1804,-2.2491,-2.2317,0.0,-2.344,-2.3176,-2.3171,-2.3241,0.0,0.0,0.0,0.0,0.0,0.0,0.0,0.0,0.0,0.0,0.0,0.0,0.0,0.0,0.0,0.0,-2.6691,-2.6674,-2.6503,-2.7383,-2.8136,-2.8417,-2.9549,-3.0303,-3.0468,-3.0568,-3.0584,-3.0401,-3.0316,-3.0087,-2.9782,-2.9589,-2.9544,-2.9544,-2.9531,-2.9547,-2.9547,-2.9473,-2.9507,-2.9683,-2.9713,-2.9621,-2.9529,-2.9842,-2.9795,-2.9607,-3.0354,-3.0656,-3.0672,-3.1158,-3.131,-3.1303,0.0,0.0,0.0,0.0,0.0,0.0,0.0,0.0,0.0,0.0,0.0,0.0,0.0,0.0,0.0,0.0,0.0,0.0,0.0,0.0,0.0,0.0,0.0,0.0,-0.8057,-0.8501,-0.8712,-0.87,-0.9627,-0.9654,-0.8825,-0.9334,-0.9197,-0.8589,-1.0096,-1.1464,0.0,0.0,0.0,0.0,-1.3089,0.0,0.0,0.0,0.0,0.0,-1.4616,-1.5483,0.0,-1.7135,-1.8039,-1.8807,0.0,0.0,0.0,0.0,-2.1242,-2.2122,-2.2122,-2.2711,-2.3248,-2.2806,-2.2935,-2.3144,0.0,0.0,0.0,0.0,0.0,0.0,0.0,0.0,0.0,0.0,0.0,0.0,0.0,0.0,0.0,-2.6808,-2.6759,-2.6657,-2.6606,-2.7381,-2.8085,-2.8417,-2.9463,-3.0203,-3.051,-3.0568,-3.0568,-3.0443,-3.0443,-3.0316,-3.0,-2.9913,-2.981,-2.9705,-2.9798,-2.977,-2.9697,-2.9697,-2.9875,-3.0135,-3.0135,-3.0119,-3.0012,-3.0119,-2.9926,-2.9624,-3.0009,-3.0124,-3.0144,-3.064,-3.0813,-3.0811,0.0,0.0,0.0,0.0,0.0,0.0,0.0,0.0,0.0,0.0,0.0,0.0,0.0,0.0,0.0,0.0,0.0,0.0,0.0,0.0,0.0,0.0,0.0,-0.7679,-0.7856,-0.8652,-0.9065,-0.9048,-0.978,-0.9717,-0.8988,-0.9094,-0.8859,-0.8426,-0.9859,-1.0994,0.0,0.0,-1.2546,-1.2671,-1.2517,0.0,0.0,0.0,0.0,0.0,0.0,0.0,0.0,-1.6843,-1.7724,-1.8489,-1.8465,0.0,0.0,0.0,0.0,0.0,-2.1984,-2.2611,-2.3041,-2.2283,-2.2569,-2.3052,0.0,0.0,0.0,0.0,0.0,0.0,0.0,0.0,0.0,0.0,0.0,0.0,0.0,0.0,0.0,-2.6856,-2.6674,0.0,-2.6537,-2.7274,-2.7918,-2.8323,-2.9254,-2.9985,-3.0477,-3.0526,-3.0526,-3.0526,-3.0526,-3.0443,-3.0231,-3.0231,-3.0146,-2.9897,-3.0,-2.9946,-2.9742,-2.9874,-3.0198,-3.0765,-3.0765,-3.0765,-3.0765,-3.0765,-3.0409,-2.9874,-2.9786,-2.9742,-2.9778,-3.016,-3.029,-3.0291,0.0,0.0,0.0,0.0,0.0,0.0,0.0,0.0,0.0,0.0,0.0,0.0,0.0,0.0,0.0,0.0,0.0,0.0,0.0,0.0,0.0,0.0,-0.7498,-0.762,-0.765,-0.8498,-0.8605,-0.7946,-0.885,-0.885,-0.802,-0.8252,-0.8641,-0.9168,-1.0097,-1.0845,-1.1528,-1.2144,-1.2307,-1.2118,-1.2271,0.0,0.0,0.0,0.0,0.0,0.0,0.0,0.0,-1.6445,-1.7279,-1.8048,-1.8121,0.0,0.0,0.0,0.0,0.0,-2.1872,-2.2516,-2.2884,-2.2583,-2.2468,-2.2456,0.0,0.0,0.0,0.0,0.0,0.0,0.0,0.0,0.0,0.0,0.0,-2.5153,0.0,0.0,-2.698,-2.7053,0.0,-2.6572,-2.6277,-2.747,-2.8279,-2.8246,-2.9679,-3.0534,-3.051,-3.0609,-3.0609,-3.051,-3.0526,-3.0485,-3.0443,-3.0443,-3.0401,-3.0316,-3.0231,-3.0103,-2.993,-2.9902,-2.9967,-3.0064,-3.0064,-3.0064,-3.0064,-3.0064,-2.9999,-2.9918,-2.9874,-2.9786,-2.9714,-2.9781,-2.9662,-2.9575,0.0,0.0,0.0,0.0,0.0,0.0,0.0,0.0,0.0,0.0,0.0,0.0,0.0,0.0,0.0,0.0,0.0,0.0,0.0,0.0,0.0,-0.7085,-0.7312,-0.7484,-0.7605,-0.8388,-0.8451,-0.7753,-0.8544,-0.8575,-0.787,-0.8274,-0.8697,-0.9189,-1.0156,-1.0838,-1.1271,-1.1831,-1.2039,-1.194,0.0,0.0,0.0,0.0,0.0,0.0,0.0,0.0,0.0,0.0,-1.6226,-1.7065,-1.7569,0.0,0.0,0.0,0.0,0.0,-2.0953,-2.1645,-2.2194,-2.2432,-2.2453,-2.2409,-2.2354,0.0,0.0,0.0,0.0,0.0,0.0,0.0,0.0,0.0,0.0,-2.5305,-2.6083,-2.631,-2.6512,0.0,-2.6708,-2.6486,-2.6241,-2.7587,-2.8395,-2.8207,-2.9739,-3.0651,-3.0526,-3.0568,-3.0551,-3.0526,-3.0526,-3.0526,-3.0526,-3.0485,-3.0401,-3.0274,-3.0248,-3.0103,-2.9946,-2.9902,-2.9918,-2.9918,-2.9918,-2.9918,-2.9918,-2.9918,-2.9918,-2.9918,-2.9918,-2.9874,-2.9786,-2.9653,-2.9457,-2.9307,0.0,0.0,0.0,0.0,0.0,0.0,0.0,0.0,0.0,0.0,0.0,0.0,0.0,0.0,0.0,0.0,0.0,0.0,0.0,0.0,-0.6757,-0.6908,-0.6987,-0.7176,-0.7499,-0.8259,-0.8354,-0.7724,-0.8402,-0.8493,-0.8035,-0.846,-0.8833,-0.9177,-1.0218,-1.0783,-1.1004,-1.1521,-1.174,-1.174,0.0,0.0,0.0,0.0,0.0,0.0,0.0,0.0,0.0,0.0,0.0,0.0,0.0,0.0,0.0,-1.7473,-1.8347,-1.9247,-1.9911,-2.0632,-2.1336,-2.1956,0.0,-2.2398,-2.2265,0.0,0.0,0.0,0.0,0.0,0.0,0.0,0.0,0.0,-2.4637,-2.5454,-2.5901,-2.5985,-2.6163,-2.6623,-2.6555,-2.6364,-2.6134,-2.7533,-2.8395,-2.8207,-2.9722,-3.0609,-3.0526,-3.0526,-3.0526,-3.0526,-3.0526,-3.0485,-3.0485,-3.0417,-3.0316,-3.0189,-3.0146,-3.0033,-2.9874,-2.9874,-2.9874,-2.9874,-2.9874,-2.9874,-2.9918,-2.9918,-2.9918,-2.9918,-2.9918,-2.9918,-2.9874,-2.9653,-2.9457,-2.9305,0.0,0.0,0.0,0.0,0.0,0.0,0.0,0.0,0.0,0.0,0.0,0.0,0.0,0.0,0.0,0.0,0.0,0.0,0.0,0.0,-0.6757,-0.6908,-0.6432,-0.6511,-0.7221,-0.808,-0.8192,-0.7526,-0.8192,-0.8462,-0.8379,-0.853,-0.8912,-0.9484,-1.0269,-1.0582,-1.0585,-1.1256,-1.1421,-1.1285,-1.1444,0.0,0.0,0.0,0.0,0.0,0.0,0.0,0.0,0.0,0.0,0.0,0.0,0.0,-1.7223,-1.7526,-1.8325,-1.9127,-1.9178,-1.973,-2.0449,-2.1128,0.0,0.0,-2.2354,-2.2169,0.0,0.0,0.0,0.0,0.0,0.0,-2.4025,-2.376,-2.5218,-2.6324,-2.6194,0.0,-2.6791,-2.6725,-2.6469,-2.6189,-2.597,-2.7437,-2.8373,-2.8207,-2.9641,-3.051,-3.0526,-3.0526,-3.0526,-3.0526,-3.0526,-3.0485,-3.0417,-3.0417,-3.0316,-3.0189,-3.006,-2.9902,-2.9697,-2.9697,-2.9697,-2.9697,-2.9697,-2.9786,-2.9918,-2.9918,-2.9918,-2.9918,-2.9918,-2.9918,-2.9874,-2.9742,-2.9608,-2.9428,0.0,0.0,0.0,0.0,0.0,0.0,0.0,0.0,0.0,0.0,0.0,0.0,0.0,0.0,0.0,0.0,0.0,0.0,0.0,0.0,-0.6272,-0.6693,-0.6328,-0.6379,-0.6931,-0.7112,-0.7295,-0.751,-0.8125,-0.8404,-0.8359,-0.9118,-0.9676,-1.0089,-1.0749,-1.1067,-1.114,-1.1343,-1.1376,-1.1285,-1.1307,-1.1399,0.0,0.0,0.0,0.0,0.0,0.0,0.0,0.0,-1.4925,-1.5936,-1.6559,-1.6586,-1.6507,-1.7158,-1.7671,-1.8185,-1.8751,-1.9419,-2.0035,-2.0399,0.0,0.0,0.0,0.0,0.0,0.0,0.0,0.0,0.0,0.0,-2.5109,-2.4569,-2.5875,-2.6922,-2.6895,-2.6933,-2.6876,-2.6674,-2.6521,-2.6241,-2.5828,-2.7382,-2.8334,-2.8139,-2.9617,-3.0526,-3.0609,-3.0609,-3.0651,-3.0733,-3.0609,-3.0485,-3.0443,-3.0274,-3.0103,-3.0076,-3.0017,-2.9946,-2.983,-2.9742,-2.9697,-2.9697,-2.9608,-2.9653,-2.9786,-2.9786,-2.9814,-2.9918,-2.9918,-2.9874,-2.9742,-2.9547,-2.9366,-2.9183,0.0,0.0,0.0,0.0,0.0,0.0,0.0,0.0,0.0,0.0,0.0,0.0,0.0,0.0,0.0,0.0,0.0,0.0,-0.6161,-0.6039,-0.6153,-0.6613,-0.6233,-0.6225,-0.6697,-0.619,-0.6379,-0.7341,-0.7779,-0.8167,-0.8498,-0.9322,-1.0024,-1.0613,-1.1039,-1.1285,-1.1376,-1.1353,-1.1307,-1.1239,-1.1262,-1.1353,0.0,0.0,0.0,0.0,0.0,0.0,0.0,0.0,-1.4735,-1.5733,-1.6333,-1.6352,-1.6273,-1.6937,-1.7191,-1.7404,-1.8144,-1.8626,-1.9109,0.0,0.0,0.0,0.0,0.0,0.0,0.0,0.0,0.0,0.0,0.0,0.0,0.0,-2.6323,-2.7198,-2.7218,-2.704,-2.6825,-2.6657,-2.6521,-2.6376,-2.625,-2.7552,-2.8434,-2.857,-2.979,-3.0609,-3.0749,-3.0773,-3.0831,-3.0912,-3.0692,-3.0526,-3.0485,-3.0189,-3.006,-3.006,-3.006,-2.9973,-2.983,-2.9742,-2.9697,-2.9653,-2.9518,-2.9563,-2.9697,-2.9697,-2.9742,-2.983,-2.9786,-2.9742,-2.9592,-2.9457,-2.9259,-2.9121,0.0,0.0,0.0,0.0,0.0,0.0,0.0,0.0,0.0,0.0,0.0,0.0,0.0,0.0,0.0,0.0,0.0,0.0,-0.6689,-0.6564,-0.6552,-0.6702,-0.6111,-0.6023,-0.648,-0.5441,-0.56,-0.6993,-0.7072,-0.773,-0.8887,-0.9061,-0.9793,-1.0991,-1.1062,-1.1085,-1.1085,-1.1155,-1.1155,-1.1108,-1.133,-1.1399,-1.1399,0.0,0.0,0.0,0.0,0.0,0.0,0.0,-1.4964,-1.6301,-1.6382,-1.6528,-1.6738,-1.693,-1.6949,-1.6952,-1.7216,-1.7199,-1.751,0.0,0.0,0.0,0.0,0.0,0.0,0.0,0.0,-2.3293,-2.4231,0.0,0.0,-2.5688,-2.6541,-2.7166,-2.7007,-2.6825,-2.6691,-2.6691,-2.6453,-2.6578,-2.7328,-2.8002,-2.8733,-2.9509,-3.0259,-3.0733,-3.0855,-3.0912,-3.0912,-3.0912,-3.079,-3.0609,-3.0417,-3.029,-3.0189,-3.0189,-3.0189,-3.0033,-2.9697,-2.9697,-2.9608,-2.9518,-2.9518,-2.9563,-2.9697,-2.9697,-2.9697,-2.9697,-2.9563,-2.9518,-2.9518,-2.9473,-2.9412,-2.9198,0.0,0.0,0.0,0.0,0.0,0.0,0.0,0.0,0.0,0.0,0.0,0.0,0.0,0.0,0.0,0.0,0.0,0.0,-0.6063,-0.6032,-0.6173,-0.654,-0.6073,-0.5912,-0.6147,-0.5837,-0.5808,-0.6086,-0.7574,-0.8438,-0.871,-0.9738,-1.0436,-1.0849,-1.0968,-1.0991,-1.0968,-1.0968,-1.0991,-1.1015,-1.1038,-1.1155,-1.133,0.0,0.0,0.0,0.0,0.0,0.0,0.0,0.0,0.0,-1.6463,-1.6528,-1.6675,-1.6946,-1.6914,-1.6979,-1.7682,-1.8114,0.0,0.0,0.0,0.0,0.0,0.0,0.0,0.0,0.0,-2.3942,-2.4269,-2.5458,0.0,-2.5709,-2.6398,-2.6975,-2.6926,-2.6792,-2.6674,-2.6623,-2.6503,-2.6464,-2.6538,-2.7238,-2.7753,-2.7838,-2.9052,-2.9886,-3.0101,-3.0547,-3.079,-3.0912,-3.0692,-3.0526,-3.0417,-3.0375,-3.0333,-3.0333,-3.0333,-3.0248,-3.0033,-2.987,-2.9665,-2.9473,-2.9213,-2.9213,-2.9441,-2.9518,-2.9563,-2.9563,-2.9518,-2.9412,-2.935,-2.9167,-2.9029,-2.8873,0.0,0.0,0.0,0.0,0.0,0.0,0.0,0.0,0.0,0.0,0.0,0.0,0.0,0.0,0.0,0.0,0.0,0.0,0.0,-0.6043,-0.6187,-0.6257,-0.6161,-0.597,-0.566,-0.5787,-0.5722,-0.5376,-0.7011,-0.7946,-0.8219,-0.9364,-1.0053,-1.0305,-1.0739,-1.0873,-1.0777,-1.0801,-1.0825,-1.0873,-1.092,-1.1038,-1.1192,0.0,0.0,0.0,0.0,0.0,0.0,0.0,0.0,0.0,-1.6316,0.0,-1.6559,-1.6759,-1.6717,-1.6807,-1.77,0.0,0.0,0.0,0.0,0.0,0.0,0.0,0.0,0.0,0.0,-2.4514,-2.4796,-2.5679,0.0,-2.5815,-2.6219,-2.664,-2.6674,-2.6572,-2.6572,-2.6606,-2.6503,-2.6632,-2.7125,-2.7218,-2.7495,-2.8037,-2.8936,-2.953,-2.98,-3.043,-3.0773,-3.0831,-3.0609,-3.0294,-2.9889,-3.0143,-3.0126,-2.9889,-2.9889,-3.0037,-3.0274,-3.0044,-2.9826,-2.9621,-2.9335,-2.9305,-2.9366,-2.9412,-2.9366,-2.9321,-2.9275,-2.9259,-2.9213,-2.9106,-2.8982,-2.8873,0.0,0.0,0.0,0.0,0.0,0.0,0.0,0.0,0.0,0.0,0.0,0.0,0.0,0.0,0.0,0.0,0.0,0.0,0.0,0.0,-0.6416,-0.5967,-0.6307,-0.6096,-0.5215,-0.5505,-0.5462,-0.4996,-0.5931,-0.6846,-0.7701,-0.8451,-0.9082,-0.9619,-1.0437,-1.0705,-1.0597,-1.0656,-1.0681,-1.0705,-1.0897,-1.0968,-1.1015,-1.1155,0.0,0.0,0.0,0.0,0.0,0.0,0.0,0.0,-1.5953,-1.6282,-1.6398,-1.6474,-1.6394,-1.6511,-1.7424,0.0,0.0,0.0,0.0,0.0,0.0,0.0,0.0,-2.3365,0.0,-2.4938,-2.557,-2.5791,-2.5934,-2.599,-2.6099,-2.6206,-2.626,-2.626,-2.633,-2.6537,-2.6382,-2.6828,-2.8235,-2.7561,-2.7635,-2.9154,-2.9258,-2.9364,-2.956,-3.0285,-3.0613,-3.0492,-3.0435,-2.9939,-2.9009,-2.9668,-2.9744,-2.9149,-2.9173,-2.9592,-3.0417,-3.0166,-2.9978,-2.9766,-2.971,-2.9608,-2.9473,-2.9366,-2.9213,-2.9121,-2.8967,-2.9013,-2.9137,-2.9259,-2.9213,-2.9075,0.0,0.0,0.0,0.0,0.0,0.0,0.0,0.0,0.0,0.0,0.0,0.0,0.0,0.0,0.0,0.0,0.0,0.0,0.0,0.0,-0.6136,-0.6285,-0.5988,-0.5837,-0.5889,-0.5606,-0.5561,-0.5765,-0.6655,-0.7508,-0.8334,-0.9113,-0.9764,-1.0299,-1.0699,-1.0681,-1.0374,-1.0548,-1.0621,-1.0632,-1.0729,-1.0825,-1.0944,-1.1132,-1.1215,0.0,0.0,0.0,0.0,0.0,0.0,0.0,-1.5303,-1.576,-1.6277,-1.6398,-1.6382,-1.6538,0.0,-1.78,0.0,0.0,0.0,0.0,0.0,0.0,0.0,-2.4015,-2.4277,-2.4657,-2.5459,-2.5828,-2.5954,-2.5917,-2.599,-2.6026,-2.599,-2.599,-2.6026,-2.6134,-2.6187,-2.6374,-2.6745,-2.6538,-2.6478,-2.6776,-2.73,-2.7668,-2.7819,-2.8517,-2.8899,-2.8826,-2.9303,-2.9189,-2.8408,-2.955,-2.9871,-2.9336,-2.9639,-2.9999,-3.0384,-2.9524,-2.9275,-2.9425,-2.9502,-2.9428,-2.9183,-2.9259,-2.9305,-2.9259,-2.9121,-2.9213,-2.9366,-2.9213,-2.9213,-2.9213,0.0,0.0,0.0,0.0,0.0,0.0,0.0,0.0,0.0,0.0,0.0,0.0,0.0,0.0,0.0,0.0,0.0,0.0,0.0,0.0,-0.617,-0.6207,-0.5837,-0.5689,-0.5763,-0.5585,-0.5585,-0.5811,-0.6746,-0.7479,-0.7988,-0.9183,-0.9859,-1.0083,-1.0688,-1.0729,-1.0399,-1.0548,-1.0597,-1.0572,-1.0705,-1.0801,-1.092,-1.1108,-1.1215,-1.1262,-1.1285,0.0,0.0,0.0,0.0,0.0,0.0,0.0,-1.5667,-1.6169,-1.6289,-1.6416,0.0,0.0,0.0,0.0,0.0,0.0,0.0,0.0,-2.309,-2.3984,-2.4403,-2.4761,-2.5259,-2.5476,-2.5567,-2.5621,-2.5659,-2.5659,-2.5659,-2.5712,-2.5787,-2.5864,-2.5954,-2.6228,-2.6594,-2.6277,-2.6191,-2.6463,-2.6862,-2.7114,-2.7189,-2.7976,-2.8539,-2.8774,-2.8704,-2.846,-2.8043,-2.8673,-2.8837,-2.8584,-2.877,-2.9101,-2.9554,-2.9388,-2.941,-2.956,-2.9502,-2.9366,-2.9213,-2.9213,-2.9167,-2.9106,-2.9013,-2.9121,-2.9321,-2.9275,-2.9321,-2.9305,0.0,0.0,0.0,0.0,0.0,0.0,0.0,0.0,0.0,0.0,0.0,0.0,0.0,0.0,0.0,0.0,0.0,0.0,0.0,0.0,0.0,-0.6043,-0.5822,-0.5625,-0.5472,-0.5547,-0.5603,-0.5633,-0.661,0.0,0.0,0.0,-0.9792,-0.9823,-1.0662,-1.0825,-1.0474,-1.0597,-1.0597,-1.0523,-1.0681,-1.0801,-1.0897,-1.1108,-1.1215,-1.1285,-1.1239,-1.1285,-1.1485,-1.2076,0.0,0.0,0.0,0.0,-1.5049,-1.594,-1.6166,-1.6246,0.0,0.0,0.0,0.0,0.0,0.0,0.0,0.0,-2.2697,-2.3532,-2.4263,-2.4823,-2.4997,-2.5052,-2.5146,-2.524,-2.5256,-2.5278,-2.5339,-2.5432,-2.5546,-2.5626,-2.5717,-2.6052,-2.6695,-2.622,-2.6106,-2.6749,-2.682,-2.6895,-2.6895,-2.7585,-2.8196,-2.8728,-2.8132,-2.7791,-2.7767,-2.7656,-2.7639,-2.7705,-2.7768,-2.7991,-2.8415,-2.9366,-2.9766,-2.9722,-2.9592,-2.9412,-2.9305,-2.9213,-2.9075,-2.8951,-2.8951,-2.9059,-2.9183,-2.9428,-2.9377,-2.922,0.0,0.0,0.0,0.0,0.0,0.0,0.0,0.0,0.0,0.0,0.0,0.0,0.0,0.0,0.0,0.0,0.0,0.0,-0.5282,0.0,0.0,-0.6177,-0.5867,-0.5711,-0.5745,-0.5652,-0.5652,-0.5774,0.0,0.0,0.0,0.0,0.0,-1.0559,0.0,-1.0897,-1.0349,-1.0705,-1.0705,-1.0523,-1.0597,-1.0705,-1.0825,-1.1038,-1.1155,-1.1215,-1.1285,-1.1307,-1.1322,-1.1431,-1.1942,0.0,0.0,0.0,-1.4998,-1.5857,-1.6166,-1.6237,0.0,0.0,0.0,0.0,0.0,0.0,0.0,0.0,-2.1719,0.0,-2.3327,-2.3967,-2.4561,-2.4895,-2.5107,-2.5045,-2.5084,-2.5146,-2.5146,-2.5146,-2.5224,-2.5317,-2.5432,-2.554,-2.5788,-2.5686,-2.5707,-2.5847,-2.5884,-2.5938,-2.6065,-2.6163,-2.6299,-2.6455,-2.6836,-2.7115,-2.7224,-2.7534,-2.7705,-2.7721,-2.8236,-2.8142,-2.7582,-2.9042,-2.9637,-2.9547,-2.9518,-2.9412,-2.9305,-2.9412,-2.9366,-2.9259,-2.9259,-2.9305,-2.9473,-2.9473,-2.9163,-2.8721,0.0,0.0,0.0,0.0,0.0,0.0,0.0,0.0,0.0,0.0,0.0,0.0,0.0,0.0,0.0,-0.3917,-0.4113,-0.4654,-0.5733,-0.5859,-0.59,-0.5918,-0.5659,-0.5558,-0.5625,-0.5576,-0.5614,-0.5793,0.0,0.0,0.0,-0.9489,-1.0325,0.0,0.0,0.0,0.0,-1.183,-1.1838,-1.1257,-1.1507,-1.1802,-1.2133,-1.1917,-1.21,-1.2501,-1.2561,-1.2536,-1.2477,-1.2516,-1.2497,-1.2663,-1.3912,0.0,0.0,0.0,-1.6179,0.0,0.0,0.0,0.0,0.0,0.0,0.0,0.0,0.0,-2.108,-2.2257,-2.2669,-2.3212,-2.4321,-2.471,-2.4831,-2.4791,-2.4846,-2.4926,-2.4926,-2.4712,-2.4694,-2.5075,-2.4872,-2.489,-2.5291,-2.5432,-2.5508,-2.553,-2.5626,-2.5738,-2.5791,-2.5844,-2.6114,-2.6562,-2.6335,-2.6444,-2.6946,-2.6594,-2.6638,-2.7042,-2.7669,-2.7805,-2.749,-2.8132,-2.8421,-2.841,-2.9166,-2.9188,-2.8732,-2.9191,-2.9305,-2.9213,-2.9259,-2.935,-2.9412,-2.9563,-2.9187,-2.8619,0.0,0.0,0.0,0.0,0.0,0.0,0.0,0.0,0.0,0.0,0.0,0.0,0.0,0.0,0.0,0.0,-0.4411,-0.4945,-0.5999,-0.5885,-0.5763,-0.5734,-0.5547,-0.5472,-0.5549,-0.5568,-0.5644,0.0,0.0,0.0,-0.8552,-0.9263,-1.0309,0.0,-1.2255,0.0,0.0,0.0,0.0,-1.2199,-1.2791,-1.3129,-1.326,-1.3384,-1.3454,-1.3539,-1.397,-1.3848,-1.348,-1.342,-1.3154,-1.3065,-1.4261,-1.4352,0.0,0.0,0.0,0.0,0.0,0.0,0.0,0.0,0.0,0.0,0.0,0.0,-2.0569,0.0,-2.227,-2.2663,-2.4112,-2.4482,-2.4589,-2.4589,-2.4686,-2.4719,-2.4587,-2.4232,-2.4128,-2.465,-2.43,-2.4312,-2.4965,-2.5185,-2.5301,-2.5355,-2.553,-2.5626,-2.568,-2.577,-2.6069,-2.6629,-2.6069,-2.6096,-2.6814,-2.6102,-2.5944,-2.6299,-2.6969,-2.7211,-2.705,-2.7396,-2.7388,-2.7187,-2.8586,-2.8838,-2.8287,-2.9093,-2.9305,-2.9213,-2.935,-2.9396,-2.9396,-2.9592,-2.9231,-2.8619,0.0,0.0,0.0,0.0,0.0,0.0,0.0,0.0,0.0,0.0,0.0,0.0,-0.2952,-0.2955,-0.337,-0.4311,-0.4292,-0.4646,-0.5664,-0.5711,-0.5729,-0.5793,-0.567,0.0,-0.5692,-0.5756,-0.5793,0.0,0.0,0.0,-0.8137,-0.8578,-0.9877,-1.1906,-1.2371,-1.2754,-1.3015,0.0,0.0,0.0,-1.4337,-1.4221,-1.3589,-1.5556,-1.5132,-1.369,-1.5009,-1.4758,-1.3714,-1.3275,-1.3567,-1.4113,-1.4214,-1.4596,-1.5185,0.0,0.0,0.0,0.0,0.0,0.0,0.0,0.0,0.0,0.0,0.0,-2.021,-2.1881,-2.2095,-2.2443,-2.3781,-2.4343,-2.4589,-2.4589,-2.4589,-2.4411,-2.3927,-2.3725,-2.367,-2.3833,-2.3725,-2.392,-2.4744,-2.4926,-2.5084,-2.5294,-2.5355,-2.547,-2.5616,-2.5616,-2.5654,-2.5749,-2.586,-2.6225,-2.6875,-2.6781,-2.6401,-2.5766,-2.6499,-2.6482,-2.5847,-2.7294,-2.7234,-2.6089,-2.7734,-2.8446,-2.8462,-2.9331,-2.9608,-2.9473,-2.9653,-2.9608,-2.9518,-2.9653,-2.9231,-2.8619,0.0,0.0,0.0,0.0,0.0,0.0,0.0,0.0,0.0,0.0,0.0,0.0,0.0,-0.3353,-0.3604,-0.3984,-0.4256,-0.4517,-0.478,-0.5072,-0.5263,-0.528,-0.549,-0.5633,-0.5692,-0.5729,0.0,0.0,0.0,-0.6739,-0.8168,-0.8448,-0.9752,-1.1899,-1.2816,-1.3289,-1.3438,-1.4609,0.0,0.0,0.0,0.0,0.0,0.0,0.0,0.0,0.0,0.0,-1.519,-1.5071,-1.5096,-1.5208,-1.5469,-1.5469,-1.5474,0.0,0.0,0.0,0.0,0.0,0.0,0.0,0.0,0.0,-2.0042,-2.0431,-2.0691,-2.1325,-2.2156,-2.2943,-2.3458,-2.3656,-2.3776,-2.384,-2.3561,-2.3436,-2.3755,-2.3431,-2.3516,-2.4453,-2.4092,-2.4053,-2.4863,-2.4966,-2.5123,-2.547,-2.5416,-2.5508,-2.5787,-2.5696,-2.568,-2.5701,-2.5844,-2.6012,-2.6258,-2.622,-2.6089,-2.5844,-2.6106,-2.6126,-2.5917,-2.6463,-2.6467,-2.6129,-2.7153,-2.7437,-2.7324,-2.8091,-2.8587,-2.8766,-2.8405,-2.8833,-2.954,-2.871,-2.8294,-2.8102,0.0,0.0,0.0,0.0,0.0,0.0,0.0,0.0,0.0,0.0,0.0,0.0,0.0,0.0,-0.4043,-0.4179,-0.4489,-0.4693,-0.4743,-0.5067,-0.5258,-0.5241,-0.549,-0.5662,-0.5692,-0.5692,-0.5729,0.0,0.0,0.0,0.0,-0.8406,-0.9616,-1.1548,-1.292,-1.3627,0.0,0.0,0.0,-1.4932,0.0,0.0,-1.6676,0.0,0.0,0.0,0.0,0.0,0.0,-1.6564,-1.6428,-1.6273,-1.6231,0.0,0.0,0.0,0.0,0.0,0.0,0.0,0.0,0.0,0.0,-1.8562,-1.9736,0.0,-2.0755,-2.102,-2.182,-2.2622,-2.3185,-2.2878,-2.2748,-2.3367,-2.3095,-2.2892,-2.3058,-2.2891,-2.3117,-2.4106,-2.3912,-2.4053,-2.4863,-2.4966,-2.5123,-2.5416,-2.5416,-2.5508,-2.5787,-2.5754,-2.5623,-2.5415,-2.5786,-2.5892,-2.5645,-2.5947,-2.6079,-2.6007,-2.6026,-2.6063,-2.6063,-2.6082,-2.6154,-2.6258,-2.67,-2.6846,-2.6802,-2.7534,-2.7964,-2.8227,-2.7842,-2.8288,-2.9016,-2.8143,-2.7883,-2.7858,0.0,0.0,0.0,0.0,0.0,0.0,0.0,0.0,0.0,0.0,0.0,0.0,0.0,0.0,0.0,-0.4953,-0.4981,-0.5164,-0.5539,-0.5704,-0.576,-0.5683,-0.5708,-0.5711,-0.5692,-0.5692,-0.5729,0.0,0.0,0.0,0.0,0.0,-0.9488,-1.0957,-1.2602,-1.3714,-1.4425,0.0,-1.5799,-1.5916,0.0,-1.7061,-1.6404,0.0,0.0,0.0,-1.9137,-1.8993,0.0,-1.76,0.0,0.0,0.0,0.0,0.0,0.0,0.0,0.0,0.0,0.0,0.0,0.0,0.0,0.0,-1.9245,0.0,-2.0299,-2.1029,-2.1072,-2.1462,-2.2955,-2.2087,-2.1664,-2.3297,-2.3382,-2.2879,-2.1831,-2.2181,-2.2565,-2.2734,-2.3271,-2.392,-2.4728,-2.491,-2.5013,-2.5059,-2.5269,-2.5438,-2.5616,-2.5663,-2.5415,-2.4905,-2.5702,-2.5806,-2.5077,-2.5947,-2.633,-2.6187,-2.6243,-2.626,-2.6203,-2.6277,-2.6295,-2.633,-2.6434,-2.6728,-2.713,-2.7705,-2.7961,-2.7977,-2.7961,-2.7977,-2.7994,-2.7961,-2.7961,-2.7977,0.0,0.0,0.0,0.0,0.0,0.0,0.0,0.0,0.0,0.0,0.0,0.0,-0.4541,-0.4538,-0.4502,-0.4364,-0.4707,-0.491,-0.487,-0.5276,-0.5449,-0.5344,-0.5702,-0.58,-0.5549,-0.57,-0.5774,-0.5793,0.0,0.0,0.0,0.0,0.0,0.0,-1.1662,-1.2694,-1.3633,-1.5192,0.0,-1.6055,-1.6518,-1.6999,0.0,0.0,0.0,0.0,0.0,-1.7615,-1.7658,0.0,-1.8358,-1.8625,0.0,0.0,0.0,0.0,0.0,0.0,-1.6623,0.0,0.0,0.0,0.0,0.0,-1.9547,0.0,-2.0316,-2.038,-2.0824,-2.132,-2.1636,-2.1842,-2.2015,-2.2144,-2.1657,-2.1397,-2.1799,-2.2398,-2.3012,-2.3628,-2.3737,-2.3887,-2.4306,-2.4338,-2.4489,-2.4786,-2.4754,-2.509,-2.5848,-2.5409,-2.5102,-2.5059,-2.4745,-2.4514,-2.4315,-2.4597,-2.4979,-2.5408,-2.5461,-2.5761,-2.6277,-2.6399,-2.6468,-2.6537,-2.6554,-2.662,-2.6751,-2.6717,-2.6949,-2.7268,-2.6721,-2.7093,-2.7879,-2.6864,-2.6836,-2.7252,0.0,0.0,0.0,0.0,0.0,0.0,0.0,0.0,0.0,0.0,0.0,0.0,-0.5124,-0.4949,-0.4883,-0.4967,-0.5081,-0.5203,-0.535,-0.5608,-0.5719,-0.5591,-0.5801,-0.5819,-0.5587,-0.5644,-0.5681,-0.5681,0.0,0.0,0.0,0.0,0.0,0.0,0.0,0.0,0.0,0.0,0.0,0.0,-1.6301,0.0,0.0,-1.7442,-1.7808,0.0,0.0,0.0,-1.8212,-1.886,-1.9106,0.0,0.0,0.0,0.0,0.0,0.0,0.0,0.0,0.0,0.0,0.0,0.0,0.0,-1.8938,-1.961,-2.0139,-1.9958,-2.0466,-2.1038,-2.1352,-2.1492,-2.1646,-2.1834,-2.0982,-2.0649,-2.1673,-2.213,-2.267,-2.3528,-2.357,-2.3607,-2.3791,-2.3827,-2.3935,-2.4183,-2.4202,-2.4582,-2.548,-2.5205,-2.4876,-2.468,-2.458,-2.4248,-2.3632,-2.4043,-2.4545,-2.5128,-2.5229,-2.5446,-2.5776,-2.5897,-2.6,-2.6084,-2.6152,-2.6354,-2.6623,-2.6434,-2.6559,-2.6819,-2.6316,-2.6664,-2.7255,-2.6465,-2.6452,-2.6803,0.0,0.0,0.0,0.0,0.0,0.0,0.0,0.0,0.0,0.0,-0.5117,-0.5505,-0.5832,-0.5562,-0.5608,-0.6212,-0.5986,-0.5973,-0.6394,-0.6409,-0.6314,-0.6116,-0.5922,-0.5774,-0.5692,-0.5568,-0.553,-0.5549,0.0,0.0,0.0,0.0,0.0,0.0,0.0,0.0,0.0,0.0,0.0,-1.6024,-1.6367,-1.6554,0.0,0.0,-1.8477,-1.8552,-1.9613,-1.9607,-1.9258,-2.0103,-1.9898,0.0,0.0,0.0,0.0,0.0,-1.7549,0.0,0.0,0.0,0.0,0.0,-1.747,0.0,-1.7946,-1.8837,-1.9654,-1.9609,-1.9907,-2.0469,-2.1329,-2.0901,-2.0698,-2.1697,-2.075,-2.0289,-2.1468,-2.1604,-2.1874,-2.2802,-2.2968,-2.3055,-2.3211,-2.3333,-2.3369,-2.3419,-2.3586,-2.3982,-2.4608,-2.4811,-2.458,-2.4014,-2.4696,-2.4394,-2.3003,-2.3894,-2.457,-2.498,-2.5046,-2.5096,-2.5094,-2.5162,-2.5313,-2.5531,-2.5597,-2.6017,-2.6674,-2.664,-2.6554,-2.652,-2.6485,-2.6485,-2.6485,-2.6485,-2.6485,-2.6485,-0.2219,0.0,0.0,0.0,0.0,0.0,0.0,0.0,0.0,0.0,-0.5195,-0.5569,-0.621,-0.6308,-0.6414,-0.6664,-0.7291,-0.7348,-0.6614,-0.6902,-0.6801,-0.6128,-0.6007,-0.5878,-0.5711,-0.5625,-0.5689,-0.5897,0.0,0.0,0.0,0.0,0.0,0.0,0.0,0.0,0.0,0.0,0.0,-1.597,-1.6409,-1.6686,-1.6917,-1.755,-1.7813,-1.7967,-1.896,-1.9287,-1.9487,-2.098,-2.0945,-2.0235,0.0,0.0,0.0,-1.7918,0.0,0.0,0.0,0.0,0.0,0.0,-1.761,0.0,-1.8188,-1.821,-1.8365,-1.8863,-1.8598,-1.846,-1.9229,-1.9245,-1.9272,-1.9637,-1.9415,-1.9677,-2.1038,-2.1246,-2.1535,-2.2205,-2.2337,-2.2438,-2.2654,-2.2687,-2.2704,-2.2753,-2.3391,-2.3605,-2.3226,-2.3353,-2.335,-2.3231,-2.3474,-2.3154,-2.2216,-2.3106,-2.353,-2.3524,-2.3634,-2.4208,-2.5196,-2.5246,-2.5648,-2.6267,-2.6302,-2.6403,-2.664,-2.6606,-2.6589,-2.6589,-2.652,-2.6485,-2.6485,-2.6485,-2.6485,-2.6485,-0.2333,0.0,0.0,0.0,0.0,0.0,0.0,0.0,0.0,0.0,-0.5654,-0.5961,-0.6485,-0.6694,-0.6878,-0.7087,-0.8107,-0.8439,-0.7706,-0.774,-0.7499,-0.6827,-0.6415,-0.6104,-0.5915,-0.59,-0.5925,-0.5954,0.0,0.0,0.0,0.0,0.0,0.0,0.0,0.0,0.0,0.0,-1.4558,-1.6151,-1.6328,0.0,-1.6779,-1.7617,-1.7795,-1.7696,-1.8762,-1.9481,-2.0084,-2.0958,-2.0958,0.0,-2.0476,-1.9614,-1.8511,0.0,-1.7641,-1.7612,0.0,0.0,0.0,-1.7384,-1.7593,0.0,0.0,-1.799,-1.8178,-1.8451,-1.8459,-1.8543,-1.901,-1.9147,-1.92,-1.9422,-1.911,-1.9203,-2.0257,-2.055,-2.1007,-2.1983,-2.1989,-2.1939,-2.205,-2.2159,-2.2205,-2.2266,-2.2628,-2.2874,-2.2891,-2.2967,-2.3029,-2.3059,-2.3184,-2.3076,-2.2685,-2.3148,-2.3675,-2.4288,-2.3984,-2.4171,-2.4679,-2.4377,-2.4676,-2.5463,-2.5463,-2.5916,-2.6657,-2.6657,-2.6623,-2.6606,-2.6589,-2.6589,-2.6589,-2.6589,-2.6589,-2.6589,-0.2534,0.0,0.0,0.0,0.0,0.0,0.0,0.0,0.0,-0.5915,-0.6199,-0.6619,-0.7344,0.0,0.0,0.0,-0.9188,-0.9547,-0.8907,-0.8818,-0.85,-0.7906,-0.7223,-0.6778,-0.6626,-0.662,-0.6559,-0.643,0.0,0.0,0.0,0.0,0.0,0.0,0.0,0.0,0.0,0.0,0.0,-1.6409,0.0,-1.6394,-1.6733,-1.7813,-1.7905,-1.7649,-1.8847,-1.9854,-2.0668,-2.0893,-2.084,-2.0673,-2.057,-1.9554,0.0,0.0,0.0,0.0,0.0,0.0,0.0,0.0,-1.7549,-1.7566,0.0,0.0,0.0,-1.8117,-1.8453,-1.8833,-1.9001,-1.9098,-1.9138,-1.9185,-1.8842,-1.8758,-1.926,-1.9663,-2.0335,-2.1472,-2.1415,-2.1332,-2.1493,-2.1816,-2.1919,-2.1757,-2.1903,-2.2187,-2.2625,-2.2792,-2.2859,-2.2902,-2.316,-2.3283,-2.319,-2.3325,-2.3971,-2.509,-2.45,-2.4219,-2.4225,-2.3606,-2.3734,-2.4416,-2.4519,-2.5292,-2.6472,-2.6607,-2.6657,-2.6606,-2.6674,-2.6691,-2.6674,-2.6691,-2.6691,-2.6691,-0.2702,-0.2799,0.0,0.0,0.0,0.0,0.0,0.0,0.0,-0.6223,-0.6681,0.0,0.0,0.0,0.0,0.0,0.0,0.0,-0.9607,0.0,0.0,-0.9311,-0.8748,-0.8458,-0.8498,-0.827,-0.8208,-0.8283,-0.821,0.0,0.0,0.0,0.0,0.0,-1.1571,0.0,0.0,0.0,-1.4919,0.0,-1.6409,-1.6633,0.0,-1.7649,-1.7839,-1.7985,-1.9087,-2.0027,-2.089,-2.1678,-2.1404,-2.0695,-2.0668,-1.994,-1.8932,-1.8109,0.0,0.0,0.0,0.0,-1.7519,-1.7589,-1.7549,-1.7549,-1.7704,0.0,-1.7699,-1.7676,0.0,-1.7688,-1.7728,0.0,0.0,-1.7054,-1.7596,-1.8053,-1.8014,-1.8767,-1.9427,-1.9767,-1.9963,-2.0377,-2.1097,-2.1925,-2.2088,-2.1231,-2.186,-2.1978,-2.1349,-2.1933,-2.2303,-2.2303,-2.3013,-2.3088,-2.2446,-2.3071,-2.3477,-2.3646,-2.3562,-2.3823,-2.437,-2.4286,-2.4303,-2.4435,-2.4977,-2.5346,-2.5697,-2.6337,-2.6606,-2.6606,-2.6674,-2.664,-2.664,-2.6674,-2.6691,-2.6691,-0.2961,-0.3126,0.0,0.0,0.0,0.0,0.0,0.0,0.0,-0.7068,0.0,0.0,0.0,0.0,0.0,0.0,0.0,-1.2565,0.0,0.0,0.0,-1.1307,-0.9927,-0.947,-1.011,-0.9412,-0.9071,-0.9125,-0.9391,0.0,0.0,0.0,0.0,0.0,-1.1637,0.0,-1.4288,0.0,-1.5238,0.0,0.0,-1.7052,-1.7502,-1.7472,-1.7681,-1.8104,-1.861,-1.9384,-2.0227,-2.0569,-2.0784,-2.0872,-2.0829,-2.0539,-2.014,-1.9611,0.0,0.0,0.0,-1.83,-1.7954,-1.7954,-1.7975,-1.7975,-1.7966,-1.7961,-1.7939,-1.7833,0.0,0.0,0.0,0.0,0.0,0.0,-1.6898,-1.722,-1.8131,-1.8286,-1.8648,-1.9673,-2.0043,-2.0303,-2.0611,-2.0969,-2.1011,-2.0611,-2.0943,-2.1139,-2.109,-2.1465,-2.1837,-2.2197,-2.2558,-2.2818,-2.2936,-2.3241,-2.3613,-2.4019,-2.3596,-2.3562,-2.3806,-2.3384,-2.3448,-2.3883,-2.4188,-2.4797,-2.5625,-2.5979,-2.6303,-2.6606,-2.6674,-2.6674,-2.664,-2.6691,-2.6691,-2.6691,-0.326,0.0,0.0,0.0,0.0,0.0,0.0,0.0,0.0,0.0,0.0,0.0,-1.2127,-1.2384,0.0,0.0,-1.3932,-1.3891,0.0,0.0,-1.2352,-1.3102,-1.1518,-1.1128,-1.2231,-1.1155,-1.0559,-1.0539,-1.0664,-1.0684,0.0,0.0,0.0,0.0,0.0,-1.2665,-1.4139,0.0,-1.5391,-1.718,-1.7149,-1.7415,-1.7811,-1.7502,-1.7844,-1.8444,-1.8579,-1.9346,-2.0306,-2.0361,-2.0654,-2.1015,-2.1214,-2.1004,-2.0702,-2.0745,0.0,0.0,-1.9559,-1.9063,-1.8572,-1.8339,-1.831,-1.833,-1.8266,-1.8284,-1.8301,-1.8201,-1.8201,0.0,0.0,0.0,-1.6956,-1.6862,0.0,-1.687,-1.7933,-1.8021,-1.8393,-1.9504,-1.9964,-2.0166,-2.0044,-2.0226,-2.0237,-1.9959,-2.0209,-2.057,-2.096,-2.1182,-2.1606,-2.2293,-2.2282,-2.2535,-2.3088,-2.3105,-2.349,-2.4201,-2.3676,-2.3422,-2.3422,-2.3129,-2.3175,-2.3568,-2.4064,-2.4868,-2.5831,-2.6036,-2.6366,-2.6708,-2.6708,-2.6691,-2.6691,-2.6691,-2.6691,-2.6691,-0.3619,-0.3486,0.0,0.0,0.0,0.0,0.0,0.0,0.0,0.0,0.0,0.0,0.0,0.0,0.0,0.0,0.0,-1.491,-1.4272,0.0,-1.3497,-1.4487,-1.385,-1.4007,0.0,-1.3916,-1.3231,-1.3188,-1.2021,-1.1505,0.0,0.0,0.0,0.0,-1.1891,-1.2458,-1.3288,-1.4207,-1.5295,-1.6498,-1.7203,-1.7641,-1.7905,-1.7961,-1.8511,-1.928,-1.9395,-2.043,-2.1766,-2.2023,-2.1578,-2.1047,-2.1982,-2.12,-2.0109,-2.0954,-2.0972,-2.0612,-1.9894,-1.9577,-1.9293,-1.8641,-1.845,-1.8434,-1.8642,-1.8678,-1.8678,-1.8678,-1.8678,-1.8393,-1.7467,-1.74,-1.7205,-1.636,-1.6974,0.0,0.0,-1.8025,-1.8896,-1.875,-1.9308,-1.9602,-1.9359,-2.0197,-2.0381,-1.9411,-2.0102,-2.0645,-2.0708,-2.1019,-2.1615,-2.2561,-2.2338,-2.2242,-2.2344,-2.2344,-2.2745,-2.3544,-2.3422,-2.3422,-2.3527,-2.4347,-2.432,-2.3688,-2.5321,-2.6053,-2.6126,-2.6713,-2.6957,-2.6975,-2.6775,-2.6691,-2.6691,-2.6691,-2.6691,-2.6691,0.0,0.0,0.0,0.0,0.0,0.0,0.0,-0.8396,0.0,0.0,-1.1498,0.0,0.0,-1.6201,-1.6322,0.0,0.0,-1.561,-1.531,-1.4412,-1.4726,-1.6568,-1.5494,-1.5387,0.0,-1.4758,-1.412,-1.4758,-1.2973,-1.2448,0.0,0.0,0.0,0.0,0.0,-1.2384,0.0,0.0,0.0,0.0,0.0,-1.8931,-1.8884,-1.8284,-1.8284,-1.8573,-1.8666,-1.9143,-1.9706,-1.9846,-2.0165,-2.057,-2.0934,-2.1498,-2.208,-2.2409,-2.2429,-2.2136,-2.1298,-2.0554,-1.9848,-1.9022,-1.8771,-1.8753,-1.8825,-1.8861,-1.8878,-1.877,-1.886,-1.8497,-1.6971,-1.7301,-1.7309,0.0,-1.5965,-1.6352,0.0,-1.7253,-1.7542,-1.7335,-1.7808,-1.8351,-1.8783,-1.9059,-1.907,-1.8725,-1.9014,-1.9608,-2.0529,-2.0755,-2.1384,-2.249,-2.2487,-2.2405,-2.231,-2.2338,-2.2513,-2.2779,-2.2835,-2.2873,-2.2918,-2.3258,-2.3295,-2.3091,-2.3734,-2.4531,-2.5472,-2.572,-2.632,-2.7038,-2.6989,-2.6908,-2.6825,-2.6742,-2.6691,-2.6691,-0.6679,0.0,0.0,0.0,0.0,0.0,0.0,0.0,0.0,0.0,-1.3372,0.0,-1.6958,0.0,-1.757,0.0,-1.7117,-1.6675,-1.6448,-1.521,0.0,-1.7606,-1.6394,-1.6337,0.0,0.0,-1.545,-1.6077,-1.3953,-1.3275,-1.388,0.0,0.0,0.0,0.0,-1.2443,-1.3152,-1.4438,-1.5778,0.0,0.0,-1.9411,-1.9283,-1.8651,-1.8568,-1.8784,-1.8833,-1.9151,-1.9554,-1.9649,-2.0011,-2.0473,-2.0829,-2.1567,-2.2399,-2.2759,-2.2818,-2.2625,-2.2054,-2.1187,-2.0303,-1.9725,-1.9299,-1.9051,-1.9064,-1.9099,-1.9117,-1.9051,-1.9191,-1.8857,-1.7373,-1.7412,-1.7289,0.0,0.0,-1.5885,0.0,-1.6355,-1.6174,-1.658,-1.6879,-1.7347,-1.8127,-1.8083,-1.8146,-1.8445,-1.8502,-1.8988,-2.014,-2.0402,-2.1011,-2.2106,-2.2289,-2.2332,-2.2271,-2.2338,-2.2377,-2.2432,-2.2525,-2.2596,-2.2623,-2.2978,-2.3152,-2.3206,-2.3571,-2.445,-2.5605,-2.5588,-2.6229,-2.7198,-2.7149,-2.707,-2.6957,-2.6825,-2.6742,-2.6691,-0.6908,0.0,0.0,0.0,-0.7115,0.0,0.0,0.0,-1.414,0.0,-1.6499,-1.7036,-1.8535,-1.8824,-1.8945,-1.9001,-1.8385,-1.7879,-1.7609,-1.5817,0.0,0.0,-1.6554,-1.6923,-1.9034,0.0,0.0,-1.7194,-1.4967,-1.3916,-1.3965,0.0,0.0,0.0,-1.2591,0.0,-1.2745,-1.4674,-1.5697,-1.6184,-1.8328,-1.9185,-1.9182,-1.9081,-1.936,-1.9822,-1.9841,-2.0402,-2.1147,-2.1352,-2.1036,-2.0717,-2.1532,-2.1395,-2.11,-2.1996,-2.22,-2.2098,-2.206,-2.1395,-2.0697,-2.0618,-1.9994,-1.9402,-1.949,-1.9501,-1.9497,-1.9596,-1.9673,-1.9457,-1.8615,-1.7839,-1.7277,0.0,0.0,-1.5981,-1.668,-1.5404,-1.4946,-1.6417,-1.642,-1.6581,-1.7382,-1.7329,-1.7607,-1.8473,-1.8489,-1.8823,-1.9673,-2.0016,-2.0582,-2.148,-2.1775,-2.1998,-2.2225,-2.2282,-2.2377,-2.2515,-2.2515,-2.2569,-2.264,-2.347,-2.3853,-2.3888,-2.4791,-2.5642,-2.6376,-2.6272,-2.6683,-2.7352,-2.7244,-2.7181,-2.7103,-2.6942,-2.6825,-2.6725,-0.7641,-0.6541,-0.5963,0.0,-0.8772,-1.0386,-1.1147,-1.2179,0.0,0.0,-1.5544,-1.5634,-1.8539,-1.8217,-1.8128,-1.893,-1.7451,0.0,0.0,0.0,0.0,-1.7522,-1.6658,-1.701,-1.8912,-1.6726,-1.6517,-1.8431,-1.5089,-1.4123,-1.5341,0.0,0.0,0.0,0.0,0.0,-1.2862,-1.4612,-1.6691,-1.8932,-1.9948,-2.0348,-2.0324,-1.9851,-1.9763,-1.9817,-1.9447,-1.9579,-1.9951,-2.0,-2.0001,-2.0051,-2.0333,-2.0769,-2.1259,-2.1551,-2.2023,-2.2329,-2.1618,-2.1186,-2.0923,-2.084,-2.0571,-2.0514,-2.1174,-2.0916,-2.0666,-2.1171,-2.0511,-1.9745,-1.9418,-1.9235,-1.8501,-1.6586,0.0,0.0,-1.495,-1.469,-1.4574,-1.4872,-1.4783,-1.5217,-1.6545,-1.662,-1.687,-1.7646,-1.7681,-1.826,-1.9629,-1.9837,-2.0451,-2.1687,-2.1853,-2.2116,-2.2579,-2.2579,-2.2605,-2.2659,-2.2712,-2.2738,-2.2764,-2.3033,-2.3163,-2.3163,-2.3406,-2.3981,-2.483,-2.5335,-2.597,-2.6631,-2.7191,-2.7324,-2.7166,-2.704,-2.6942,-2.6892,-0.845,-0.7726,0.0,-0.8356,-1.0257,-1.1893,-1.2588,-1.3303,-1.4796,-1.7681,-1.6535,-1.634,-1.8765,-1.8596,-1.8395,-1.8588,-1.7993,0.0,-1.7702,0.0,0.0,-1.8364,-1.7145,-1.732,-1.9219,-1.7318,0.0,-1.8504,-1.5865,0.0,-1.5503,0.0,0.0,0.0,0.0,-1.3159,-1.3311,-1.5176,-1.7397,-1.9735,-2.0282,-2.0511,0.0,-2.0155,-2.0059,-2.004,-1.9668,-1.9613,-1.9724,-1.9726,-1.9809,-1.9939,-2.0019,-2.0393,-2.0833,-2.0909,-2.1216,-2.1502,-2.1297,-2.0892,-2.0602,-2.0915,-2.0593,-2.0315,-2.0827,-2.0904,-2.0863,-2.0882,-2.0626,-2.0289,-1.9866,-1.9518,-1.8594,-1.6363,-1.5179,-1.4526,-1.4453,-1.4469,-1.4458,-1.4355,-1.4286,-1.4558,-1.5404,-1.5655,-1.6108,-1.6905,-1.7259,-1.7786,-1.8605,-1.9275,-1.9926,-2.0633,-2.1267,-2.1746,-2.2091,-2.2451,-2.2649,-2.2659,-2.2712,-2.2764,-2.2764,-2.2842,-2.2868,-2.2868,-2.2919,-2.3431,-2.4235,-2.4681,-2.5467,-2.6475,-2.723,-2.7478,-2.74,-2.7247,-2.712,-2.7023,-0.9464,0.0,0.0,0.0,0.0,-1.3546,-1.4245,-1.4842,-1.621,-1.8981,-1.8183,-1.7817,-1.9112,-1.929,-1.9058,-1.8384,-1.9114,-1.9158,-1.813,-1.8029,-1.8404,-1.9306,-1.7665,-1.7673,-1.9657,-1.8513,-1.7986,-1.8227,-1.6817,0.0,0.0,0.0,0.0,0.0,0.0,0.0,0.0,-1.616,-1.7948,-1.9473,-1.9955,-2.0156,-2.0205,-2.0219,-2.0253,-2.0288,-2.0184,-2.0105,-2.0041,-2.003,-2.005,-2.0124,-2.0182,-2.0199,-2.0225,-2.0285,-2.0257,-2.035,-2.0996,-2.0553,-2.0112,-2.0915,-2.0469,-1.989,-1.9926,-2.0499,-2.0812,-2.0103,-2.0502,-2.0793,-2.0191,-1.932,-1.8161,-1.6547,-1.5428,-1.4737,-1.4692,-1.4566,0.0,0.0,-1.4514,0.0,-1.4487,-1.4784,-1.5343,-1.6191,-1.6957,-1.7365,-1.7288,-1.8595,-1.9365,-1.9383,-2.0524,-2.1259,-2.1516,-2.22,-2.2569,-2.2649,-2.2685,-2.2712,-2.2712,-2.2764,-2.2816,-2.2816,-2.2944,-2.3405,-2.406,-2.4217,-2.5111,-2.6411,-2.6999,-2.7273,-2.7373,-2.7213,-2.703,-2.6874,-1.1106,0.0,0.0,0.0,0.0,-1.5139,-1.5589,-1.5775,-1.6731,-1.9206,-1.7723,-1.7224,-1.9303,-1.8815,-1.8676,-1.9517,-1.8911,-1.8433,-1.8346,-1.7517,-1.7489,-1.8477,-1.7447,-1.7757,-1.9663,-1.8097,-1.7961,-1.9395,-1.6966,-1.5997,0.0,0.0,0.0,0.0,0.0,0.0,-1.602,-1.744,-1.8633,-1.9606,-2.0139,-2.0283,-2.0212,-2.032,-2.0334,-2.0301,-2.0346,-2.0308,-2.0248,-2.0178,-2.0169,-2.0175,-2.0195,-2.0249,-2.0285,-2.0292,-2.0284,-2.03,-2.0441,-2.0232,-2.0186,-2.0979,-2.1494,-2.1802,-2.1746,-2.194,-2.2061,-2.1864,-2.0994,-2.042,-2.0953,-1.9762,-1.852,-1.7919,-1.6559,-1.549,-1.5211,-1.4738,0.0,0.0,-1.5081,-1.5527,-1.5465,-1.4839,-1.4729,-1.5434,-1.6266,-1.6934,-1.7273,-1.8375,-1.9416,-2.0338,-2.0743,-2.1487,-2.2617,-2.2704,-2.2764,-2.2764,-2.2712,-2.2712,-2.2712,-2.2764,-2.2816,-2.2816,-2.2876,-2.3014,-2.3265,-2.3937,-2.4725,-2.552,-2.5642,-2.5694,-2.5722,-2.5722,-2.5694,-2.5669,-1.1315,0.0,0.0,0.0,-1.416,-1.6026,-1.6803,-1.7612,-1.8541,-1.9661,-1.8342,-1.7963,-1.9669,-1.946,-1.9208,-1.9277,-1.9248,-1.9066,-1.8646,-1.8609,-1.8838,-1.9316,-1.8393,-1.8545,-1.9974,-1.8631,-1.8384,-1.9297,-1.7889,-1.7162,-1.7034,-1.5605,0.0,0.0,0.0,-1.5764,0.0,-1.8148,-1.8915,-1.9687,-2.0153,-2.0294,-2.0204,-2.0353,-2.0372,-2.0365,-2.0398,-2.0402,-2.038,-2.0287,-2.0277,-2.0299,-2.0254,-2.0273,-2.0289,-2.0292,-2.0277,-2.0254,-2.0249,-2.0108,-2.0053,-2.0481,-2.1116,-2.1618,-2.1574,-2.201,-2.2269,-2.1784,-2.1145,-2.0674,-2.0638,-1.9541,-1.8604,-1.8474,-1.7049,-1.5886,-1.5698,-1.4958,-1.4586,0.0,0.0,0.0,-1.6292,-1.5898,-1.5782,-1.6056,-1.6799,-1.7283,-1.74,-1.8306,-1.9069,-1.9549,-1.9995,-2.0534,-2.1179,-2.1878,-2.2245,-2.2245,-2.2548,-2.2712,-2.2712,-2.2764,-2.2816,-2.2868,-2.2902,-2.2995,-2.3122,-2.3936,-2.4462,-2.4804,-2.5162,-2.532,-2.5347,-2.5347,-2.5347,-2.5372,0.0,-1.2756,0.0,0.0,-1.5673,-1.7238,-1.7875,-1.9221,-2.0126,-2.0031,-1.9259,-1.9088,-2.0046,-2.0227,-1.9937,-1.9138,-1.9799,-1.9935,-1.9207,-1.9896,-2.0314,-2.0315,-1.9568,-1.9503,-2.0302,-1.9492,-1.9119,-1.9214,-1.8858,-1.8245,-1.7387,-1.6318,-1.5809,0.0,-1.6134,-1.7009,-1.831,-1.8689,-1.9216,-1.9823,-2.0169,-2.0269,-2.0238,-2.0353,-2.0385,-2.0383,-2.039,-2.0418,-2.042,-2.0328,-2.0346,-2.0379,-2.03,-2.0273,-2.0289,-2.0296,-2.0262,-2.0211,-2.0214,-2.0222,-2.0199,-2.0058,-2.0706,-2.1249,-2.0906,-2.1547,-2.1957,-2.1093,-2.0941,-2.0785,-2.0153,-1.9428,-1.8942,-1.8944,-1.7652,-1.66,-1.6506,-1.5673,-1.5288,0.0,0.0,0.0,-1.7238,-1.7454,-1.7527,-1.7462,-1.7705,-1.7774,-1.7574,-1.8396,-1.8858,-1.8845,-1.9368,-1.9696,-1.9833,-2.1068,-2.1707,-2.1707,-2.2375,-2.2712,-2.2712,-2.279,-2.2868,-2.2902,-2.2995,-2.3045,-2.3154,-2.3769,-2.4058,-2.4102,-2.4629,-2.4857,-2.4883,-2.4857,-2.4874,-2.4883,0.0,0.0,-1.7473,-1.6236,-1.8223,-1.9656,-1.8668,-1.9579,-2.0301,-2.0123,-2.0099,-2.016,-2.0282,-2.039,-2.0425,-2.0342,-2.0357,-2.0366,-2.0344,-2.0366,-2.0381,-2.04,-2.0298,-2.0284,-2.0388,-2.0297,-2.0254,-2.025,-1.9392,-1.8434,-1.7373,-1.6531,-1.6054,-1.5951,-1.7471,-1.8296,-1.8606,-1.936,-1.9836,-2.0085,-2.0241,-2.0296,-2.0307,-2.0366,-2.036,-2.0323,-2.0379,-2.0328,-2.0238,-2.0284,-2.0299,-2.0306,-2.023,-2.0197,-2.0214,-2.0289,-2.0262,-2.0211,-2.0265,-2.0753,-2.1091,-2.035,-2.1311,-2.2077,-2.06,-2.0945,-2.134,-2.0459,-2.0241,-2.0193,-2.0178,-2.0109,-1.9988,-1.9821,-1.8983,-1.8295,-1.8116,-1.7442,-1.7005,-1.7135,0.0,0.0,-1.8609,-1.9267,-1.9682,-1.9598,-1.8604,-1.7948,-1.7866,-1.8566,-1.9201,-1.9681,-1.975,-2.004,-2.0582,-2.1329,-2.1707,-2.1707,-2.2375,-2.2712,-2.2712,-2.2842,-2.2876,-2.2919,-2.3045,-2.3077,-2.3119,-2.319,-2.3225,-2.3225,-2.327,-2.3305,-2.333,-2.3305,-2.3305,-2.333,-1.6162,-1.697,-1.7594,-1.7569,-1.8631,-1.9345,-1.8859,-1.9749,-2.0201,-1.9522,-2.0012,-2.0426,-2.0413,-2.048,-2.023,-1.9599,-2.009,-2.0201,-1.9575,-2.0118,-2.046,-2.0461,-2.0464,-2.046,-2.0454,-2.0467,-2.0456,-2.0461,-2.0085,-1.9645,-1.9119,-1.8187,-1.7723,-1.7681,-1.8373,-1.9018,-1.9588,-1.9859,-2.005,-2.0161,-2.023,-2.0269,-2.0299,-2.0334,-2.0353,-2.0359,-2.034,-2.0314,-2.0268,-2.0242,-2.0242,-2.025,-2.0214,-2.0197,-2.0216,-2.0222,-2.0222,-2.0301,-2.0821,-2.1176,-2.1455,-2.1655,-2.2173,-2.2489,-2.1897,-2.1663,-2.1451,-2.1054,-2.0576,-2.023,-2.0258,-2.0265,-2.0223,-2.0101,-1.9386,-1.8807,-1.8688,-1.7881,-1.753,-1.807,-1.8383,-1.8801,-1.9402,-1.9754,-1.9933,-1.9901,-1.9351,-1.8962,-1.8816,-1.8995,-1.9162,-1.9251,-1.9138,-1.92,-1.9436,-2.0578,-2.1121,-2.1045,-2.2277,-2.2842,-2.2764,-2.2868,-2.2927,-2.3045,-2.3168,-2.3217,-2.3217,-2.3217,-2.3217,-2.3217,-2.3168,-2.3168,-2.3168,-2.3102,-2.3095,-2.3095,-1.6101,-1.6696,-1.7447,-1.8108,-1.8628,-1.8876,-1.8627,-1.9672,-2.0157,-1.9187,-1.9892,-2.0501,-2.0529,-2.0519,-2.0068,-1.9001,-1.9658,-1.9768,-1.8954,-1.9667,-2.0227,-2.0497,-2.0511,-2.05,-2.0467,-2.0492,-2.0499,-2.0465,-2.0497,-2.0291,-1.9896,-1.9167,-1.8842,-1.8878,-1.9175,-1.9651,-2.025,-2.0195,-2.0192,-2.0258,-2.0235,-2.0258,-2.0334,-2.0334,-2.0353,-2.036,-2.0327,-2.0294,-2.026,-2.0219,-2.0195,-2.0167,-2.018,-2.0344,-2.0554,-2.0544,-2.0708,-2.1024,-2.1627,-2.1953,-2.224,-2.2642,-2.2911,-2.3062,-2.2898,-2.2427,-2.1924,-2.1625,-2.1085,-2.061,-2.036,-2.0334,-2.0315,-2.0288,-1.9792,-1.9405,-1.9357,-1.8704,-1.8482,-1.9103,-1.904,-1.9249,-1.9972,-2.004,-2.0041,-2.0041,-1.9933,-1.9736,-1.9472,-1.9313,-1.9146,-1.8949,-1.8752,-1.8622,-1.86,-2.0055,-2.0762,-2.0713,-2.2268,-2.297,-2.2893,-2.2919,-2.3003,-2.3126,-2.3241,-2.3289,-2.3289,-2.3289,-2.3289,-2.3289,-2.3241,-2.3217,-2.3193,-2.3144,-2.3119,-2.3095,-1.6523,-1.7186,-1.7788,-1.7803,-1.8528,-1.8813,-1.7934,-1.9337,-2.0184,-1.9312,-1.9967,-2.0531,-2.0586,-2.0547,-2.0074,-1.8992,-1.9085,-1.913,-1.8908,-1.9098,-1.9607,-2.046,-2.057,-2.0536,-2.041,-2.0472,-2.0464,-2.04,-2.0467,-1.9983,-1.9021,-1.8948,-1.8921,-1.9043,-1.9895,-2.0327,-2.0385,-2.0336,-2.034,-2.0387,-2.0325,-2.0346,-2.0403,-2.0405,-2.0372,-2.0311,-2.0295,-2.0265,-2.0197,-2.0197,-2.0162,-2.0098,-2.0098,-2.069,-2.1388,-2.1388,-2.1952,-2.2592,-2.2661,-2.3254,-2.3705,-2.2987,-2.3445,-2.3884,-2.3166,-2.2979,-2.274,-2.1888,-2.1643,-2.1346,-2.0543,-2.04,-2.0419,-2.0487,-2.0439,-2.0388,-2.039,-2.0302,-2.0269,-2.0284,-2.028,-2.0308,-2.039,-2.0328,-2.032,-2.0383,-2.0275,-2.0012,-1.9623,-1.9401,-1.9253,-1.9097,-1.8843,-1.8678,-1.8585,-2.0058,-2.0829,-2.0912,-2.2317,-2.3028,-2.3077,-2.3045,-2.307,-2.3193,-2.3193,-2.3241,-2.3289,-2.3289,-2.3289,-2.3289,-2.3289,-2.3265,-2.3193,-2.3193,-2.3168,-2.3095,-1.8302,-1.8146,-1.8316,-1.949,-1.9456,-1.9105,-1.8682,-1.9682,-2.0143,-1.9182,-1.9867,-2.0467,-2.0527,-2.0515,-2.0099,-1.9058,-1.9651,-1.9748,-1.8951,-1.9695,-2.0263,-2.0494,-2.0523,-2.0509,-2.0467,-2.0496,-2.0492,-2.0465,-2.0497,-2.0297,-1.9896,-1.9904,-1.9904,-1.9896,-2.0169,-2.0341,-2.0394,-2.0224,-2.0268,-2.0386,-2.0227,-2.0235,-2.0327,-2.0277,-2.0289,-2.0296,-2.0257,-2.0233,-2.0188,-2.0153,-2.0126,-2.0088,-2.0088,-2.0289,-2.0633,-2.1167,-2.1519,-2.1967,-2.313,-2.3667,-2.4009,-2.4399,-2.4302,-2.4056,-2.3869,-2.3386,-2.2914,-2.2635,-2.2105,-2.1582,-2.1332,-2.0837,-2.0473,-2.0493,-2.0439,-2.041,-2.0448,-2.0365,-2.0321,-2.0352,-2.0327,-2.0299,-2.0334,-2.0347,-2.0308,-2.0196,-2.0234,-2.0156,-1.9881,-1.965,-1.9368,-1.9111,-1.893,-1.877,-1.86,-2.0241,-2.1004,-2.0912,-2.2615,-2.3336,-2.3241,-2.3265,-2.3265,-2.3265,-2.3407,-2.3471,-2.3448,-2.3448,-2.3448,-2.3424,-2.3336,-2.3289,-2.3265,-2.3168,-2.3119,-2.3095,-1.8691,-1.8315,-1.8131,-1.8922,-1.9135,-1.8927,-1.8176,-1.9453,-2.0168,-1.9192,-1.9865,-2.0458,-2.0496,-2.0492,-2.0091,-1.9039,-1.96,-1.9692,-1.8947,-1.9645,-2.0191,-2.0498,-2.0501,-2.0503,-2.051,-2.0492,-2.05,-2.0456,-2.0493,-2.0468,-2.0383,-2.0413,-2.0418,-2.039,-2.037,-2.0409,-2.0429,-2.0301,-2.0314,-2.039,-2.026,-2.0253,-2.0302,-2.0242,-2.0254,-2.0284,-2.0214,-2.0197,-2.0186,-2.0152,-2.0134,-2.0144,-2.0144,-2.0144,-2.0307,-2.1091,-2.1547,-2.2089,-2.3469,-2.385,-2.4076,-2.4998,-2.4849,-2.4486,-2.4557,-2.4204,-2.3763,-2.3436,-2.2953,-2.2404,-2.1782,-2.1284,-2.0876,-2.0541,-2.0467,-2.0452,-2.0482,-2.0413,-2.0346,-2.0399,-2.0334,-2.0311,-2.0334,-2.0379,-2.036,-2.0212,-2.026,-2.0223,-2.0079,-1.9767,-1.9472,-1.9191,-1.8998,-1.8843,-1.8713,-2.0075,-2.0863,-2.1081,-2.2815,-2.3562,-2.3378,-2.3407,-2.3448,-2.3407,-2.3517,-2.3562,-2.3539,-2.3517,-2.3494,-2.3494,-2.3407,-2.3336,-2.3289,-2.3217,-2.3126,-2.3095,-1.8081,-1.7831,-1.7426,-1.6802,-1.793,-1.8447,-1.6992,-1.8904,-2.0225,-1.9409,-1.9998,-2.0509,-2.0502,-2.0503,-2.0091,-1.9104,-1.9189,-1.9211,-1.9036,-1.92,-1.9659,-2.0467,-2.0501,-2.0499,-2.0506,-2.05,-2.0476,-2.0405,-2.0467,-2.0495,-2.0491,-2.0509,-2.0497,-2.0497,-2.049,-2.0494,-2.0497,-2.048,-2.0448,-2.0405,-2.0394,-2.0357,-2.0302,-2.0299,-2.0299,-2.0287,-2.0215,-2.0192,-2.0192,-2.0192,-2.0195,-2.0197,-2.0216,-2.0197,-2.0361,-2.1158,-2.1979,-2.2787,-2.3664,-2.3883,-2.4068,-2.4901,-2.5099,-2.513,-2.5184,-2.5244,-2.5063,-2.4254,-2.4102,-2.3608,-2.2075,-2.1837,-2.1612,-2.0799,-2.0623,-2.0588,-2.0589,-2.0488,-2.0408,-2.039,-2.0346,-2.0313,-2.0379,-2.0385,-2.0385,-2.0388,-2.0327,-2.0262,-2.0211,-1.9805,-1.9513,-1.9328,-1.9064,-1.8913,-1.8914,-1.9649,-2.0494,-2.1416,-2.2908,-2.358,-2.3539,-2.3517,-2.3562,-2.3607,-2.3539,-2.3539,-2.3585,-2.3539,-2.3494,-2.3494,-2.3494,-2.3424,-2.3313,-2.3289,-2.3217,-2.3119,-1.8995,-1.7888,-1.7304,-1.8436,-1.8418,-1.8534,-1.9411,-2.0135,-2.0507,-2.0309,-2.0404,-2.0498,-2.051,-2.0494,-2.0393,-2.0143,-2.0219,-2.0258,-2.0191,-2.0244,-2.0349,-2.048,-2.0494,-2.0504,-2.0494,-2.0496,-2.0496,-2.049,-2.048,-2.0497,-2.0496,-2.05,-2.0467,-2.0419,-2.0376,-2.0386,-2.0424,-2.0301,-2.0328,-2.0398,-2.034,-2.0314,-2.0302,-2.0301,-2.0299,-2.0284,-2.0215,-2.02,-2.0192,-2.0192,-2.0211,-2.0203,-2.0249,-2.0233,-2.0361,-2.1168,-2.197,-2.2778,-2.3606,-2.4264,-2.4772,-2.5053,-2.5138,-2.519,-2.5192,-2.5253,-2.5245,-2.5024,-2.4531,-2.3983,-2.3644,-2.3069,-2.2605,-2.2508,-2.1932,-2.1477,-2.1418,-2.0823,-2.0404,-2.039,-2.0294,-2.0272,-2.0379,-2.0313,-2.0272,-2.0321,-2.0254,-2.018,-2.0133,-1.9877,-1.9676,-1.9526,-1.9323,-1.9153,-1.9053,-1.983,-2.0971,-2.2461,-2.2741,-2.3166,-2.3728,-2.3667,-2.3664,-2.3678,-2.3656,-2.3629,-2.3585,-2.3539,-2.3494,-2.3494,-2.343,-2.3407,-2.336,-2.3265,-2.3217,-2.3168,-1.9246,-1.8488,-1.7907,-1.8081,-1.8675,-1.9189,-1.9348,-2.0032,-2.0561,-2.0604,-2.0566,-2.0546,-2.0547,-2.0547,-2.0547,-2.0547,-2.0545,-2.0579,-2.0591,-2.0562,-2.0542,-2.0504,-2.0506,-2.0503,-2.0497,-2.0503,-2.0522,-2.055,-2.0516,-2.0494,-2.0503,-2.0506,-2.0474,-2.0445,-2.0409,-2.0405,-2.0439,-2.0371,-2.038,-2.0448,-2.0413,-2.0388,-2.0388,-2.0365,-2.0353,-2.0334,-2.0302,-2.0295,-2.0295,-2.0294,-2.0287,-2.0287,-2.0296,-2.0281,-2.04,-2.1259,-2.1484,-2.172,-2.2912,-2.3572,-2.41,-2.4903,-2.4832,-2.4652,-2.5046,-2.4878,-2.4728,-2.5173,-2.4918,-2.4542,-2.4223,-2.3792,-2.3275,-2.2571,-2.2046,-2.1571,-2.1162,-2.0665,-2.034,-2.036,-2.0299,-2.0277,-2.0347,-2.0287,-2.0265,-2.0308,-2.0235,-2.0205,-2.0195,-2.001,-1.9823,-1.9701,-1.946,-1.9298,-1.9235,-1.9969,-2.0789,-2.1662,-2.1987,-2.2547,-2.3293,-2.3272,-2.3469,-2.3789,-2.3789,-2.3743,-2.3652,-2.3607,-2.3562,-2.3494,-2.3471,-2.3424,-2.3383,-2.3313,-2.3265,-2.3241,-1.9223,-1.9192,-1.8747,-1.7323,-1.8877,-1.9862,-1.8573,-1.9595,-2.0521,-2.059,-2.0588,-2.0586,-2.0572,-2.0572,-2.0572,-2.0572,-2.0546,-2.0545,-2.0604,-2.0544,-2.0519,-2.0514,-2.0513,-2.05,-2.0511,-2.0529,-2.0547,-2.0601,-2.0545,-2.0525,-2.0525,-2.0521,-2.0516,-2.0511,-2.0531,-2.0503,-2.049,-2.0497,-2.0506,-2.05,-2.0499,-2.0496,-2.0495,-2.0439,-2.0415,-2.04,-2.0415,-2.0415,-2.0395,-2.0394,-2.0396,-2.0385,-2.0327,-2.0313,-2.0448,-2.1186,-2.0806,-2.0499,-2.2171,-2.2607,-2.2955,-2.4371,-2.4176,-2.3802,-2.455,-2.4169,-2.3857,-2.4664,-2.4875,-2.4687,-2.4041,-2.3968,-2.3528,-2.2136,-2.1737,-2.1377,-2.0687,-2.0431,-2.0301,-2.0294,-2.0296,-2.0296,-2.0295,-2.0294,-2.0287,-2.0288,-2.0238,-2.0227,-2.0289,-2.0117,-1.9963,-1.9825,-1.956,-1.9405,-1.9393,-1.9943,-2.0277,-2.0351,-2.1078,-2.1826,-2.2573,-2.2591,-2.2954,-2.3571,-2.366,-2.365,-2.3541,-2.3667,-2.3634,-2.3539,-2.3517,-2.3453,-2.3383,-2.3383,-2.3336,-2.3289,-1.934,-1.9204,-1.911,-1.8864,-1.9149,-1.9567,-2.0041,-2.0338,-2.0516,-2.0594,-2.0558,-2.0519,-2.0521,-2.0521,-2.0521,-2.0521,-2.057,-2.0596,-2.0598,-2.0585,-2.0586,-2.0585,-2.0523,-2.0522,-2.0583,-2.0583,-2.0582,-2.0599,-2.0599,-2.0578,-2.0572,-2.0572,-2.0572,-2.057,-2.0586,-2.056,-2.0494,-2.0509,-2.0503,-2.05,-2.0497,-2.0494,-2.0494,-2.049,-2.0453,-2.0409,-2.0456,-2.0448,-2.0395,-2.04,-2.04,-2.0394,-2.0394,-2.0353,-2.0339,-2.0469,-2.0395,-2.0619,-2.2314,-2.2729,-2.2734,-2.2942,-2.2893,-2.2817,-2.2969,-2.2934,-2.2917,-2.3054,-2.3103,-2.3102,-2.3083,-2.3093,-2.3037,-2.2834,-2.2114,-2.1576,-2.1512,-2.0804,-2.0308,-2.0301,-2.0258,-2.025,-2.0294,-2.0238,-2.0225,-2.0227,-2.0203,-2.0205,-2.0205,-2.0136,-2.0048,-1.9966,-1.965,-1.9423,-1.9332,-1.941,-1.9813,-2.047,-2.0616,-2.1111,-2.1951,-2.1826,-2.1863,-2.199,-2.2567,-2.2797,-2.2813,-2.3503,-2.3728,-2.3656,-2.3611,-2.3458,-2.3313,-2.3313,-2.3265,-2.3241,-1.9286,-1.9193,-1.9041,-1.8574,-1.9276,-1.987,-1.9818,-2.0191,-2.0511,-2.0533,-2.0522,-2.0492,-2.0509,-2.0492,-2.0492,-2.0492,-2.0538,-2.0543,-2.0547,-2.0578,-2.0604,-2.0605,-2.0566,-2.0566,-2.0604,-2.0605,-2.0605,-2.0605,-2.0605,-2.0604,-2.0603,-2.0601,-2.0597,-2.0593,-2.0591,-2.0588,-2.0543,-2.0543,-2.0538,-2.0489,-2.0538,-2.0555,-2.0547,-2.0547,-2.0522,-2.051,-2.0536,-2.0533,-2.0506,-2.0467,-2.046,-2.0441,-2.041,-2.0377,-2.045,-2.0927,-2.1003,-2.1116,-2.19,-2.2421,-2.2738,-2.2671,-2.2326,-2.2125,-2.2595,-2.2365,-2.2192,-2.266,-2.2754,-2.2789,-2.2878,-2.29,-2.2772,-2.2361,-2.1906,-2.1443,-2.1004,-2.0539,-2.0253,-2.0254,-2.0227,-2.0227,-2.0296,-2.023,-2.0205,-2.0257,-2.0249,-2.0241,-2.0241,-2.019,-2.0117,-2.0059,-1.9732,-1.9485,-1.9363,-1.9393,-1.9559,-1.9858,-1.9877,-2.0335,-2.1108,-2.1037,-2.1241,-2.1661,-2.2027,-2.2335,-2.2692,-2.3095,-2.3454,-2.375,-2.3728,-2.3642,-2.3576,-2.3576,-2.3526,-2.3458,-1.9504,-1.9504,-1.929,-1.8625,-1.9448,-1.9984,-1.9317,-1.9614,-1.9901,-1.9903,-2.0065,-2.0127,-1.9922,-2.0257,-2.0412,-2.0221,-2.0386,-2.0509,-2.0509,-2.0543,-2.0575,-2.0584,-2.0599,-2.0597,-2.058,-2.0581,-2.0584,-2.0586,-2.0586,-2.0605,-2.0603,-2.0603,-2.0599,-2.059,-2.0593,-2.0594,-2.0594,-2.0596,-2.0573,-2.0527,-2.0576,-2.0596,-2.0607,-2.0609,-2.0609,-2.0607,-2.0605,-2.0605,-2.0586,-2.0547,-2.0519,-2.0483,-2.0433,-2.0415,-2.0554,-2.1227,-2.1359,-2.1309,-2.1474,-2.1878,-2.2224,-2.2169,-2.1688,-2.1408,-2.2098,-2.1724,-2.1424,-2.2107,-2.2238,-2.2265,-2.232,-2.232,-2.212,-2.1493,-2.134,-2.1074,-2.0411,-2.0246,-2.02,-2.0222,-2.0211,-2.0238,-2.0304,-2.0246,-2.0246,-2.0312,-2.03,-2.03,-2.0312,-2.0241,-2.0171,-2.0089,-1.9769,-1.9574,-1.9446,-1.9483,-1.945,-1.9353,-1.9405,-1.9706,-2.0246,-2.0228,-2.056,-2.1148,-2.1401,-2.177,-2.2207,-2.2464,-2.2845,-2.3311,-2.3472,-2.3524,-2.35,-2.3702,-2.3732,-2.3682,-2.0396,-2.0402,-2.0375,-2.0318,-1.975,-1.9302,-1.93,-1.8665,-1.8161,-1.8106,-1.879,-1.8997,-1.8189,-1.9526,-2.0167,-1.9375,-2.0033,-2.0492,-2.0492,-2.0497,-2.0514,-2.0501,-2.0575,-2.0564,-2.0507,-2.0565,-2.0565,-2.0508,-2.0561,-2.0605,-2.0606,-2.0601,-2.0601,-2.0597,-2.0609,-2.0601,-2.0605,-2.0605,-2.0605,-2.0586,-2.0605,-2.0605,-2.0605,-2.0605,-2.0605,-2.0605,-2.0604,-2.0604,-2.0604,-2.0585,-2.0555,-2.0506,-2.0492,-2.0494,-2.0512,-2.0577,-2.0584,-2.0715,-2.141,-2.1094,-2.056,-2.0495,-2.0476,-2.0508,-2.0566,-2.0527,-2.0495,-2.0553,-2.059,-2.0582,-2.0582,-2.0579,-2.0565,-2.051,-2.0437,-2.0392,-2.0398,-2.0268,-2.0223,-2.0287,-2.0296,-2.0285,-2.0312,-2.0308,-2.0289,-2.0292,-2.0311,-2.0292,-2.0292,-2.0304,-2.0199,-2.0009,-1.9811,-1.9656,-1.9585,-1.9536,-1.9497,-1.9504,-1.9497,-1.949,-1.9482,-1.9415,-1.9421,-1.952,-2.0268,-2.0616,-2.0744,-2.1548,-2.1825,-2.1826,-2.2515,-2.2668,-2.2599,-2.3401,-2.3671,-2.3628,-1.89,-1.8893,-1.8889,-1.8881,-1.8608,-1.8387,-1.8364,-1.8156,-1.7961,-1.7849,-1.816,-1.8457,-1.8625,-1.9241,-1.9493,-1.9177,-1.9478,-1.9457,-1.8912,-1.9383,-1.9951,-2.054,-2.0586,-2.0594,-2.0563,-2.0599,-2.0584,-2.0561,-2.0583,-2.0599,-2.0605,-2.0601,-2.0581,-2.0547,-2.0586,-2.0605,-2.0605,-2.0601,-2.0599,-2.0603,-2.0596,-2.0609,-2.0607,-2.0545,-2.0568,-2.0594,-2.0557,-2.056,-2.0583,-2.0546,-2.0527,-2.0504,-2.0502,-2.049,-2.0492,-2.0497,-2.0506,-2.0561,-2.0845,-2.0682,-2.0443,-2.0388,-2.0413,-2.0463,-2.0463,-2.0463,-2.0468,-2.0459,-2.0459,-2.0464,-2.0458,-2.0458,-2.0454,-2.0449,-2.0439,-2.0424,-2.0408,-2.0366,-2.0321,-2.0295,-2.0306,-2.0304,-2.0289,-2.0292,-2.0292,-2.0289,-2.0299,-2.0306,-2.0289,-2.0273,-2.0205,-2.0126,-2.0,-1.9858,-1.9649,-1.9641,-1.9587,-1.9485,-1.9489,-1.9479,-1.9453,-1.9405,-1.9357,-1.9378,-1.9638,-2.0044,-2.0539,-2.0851,-2.1291,-2.1751,-2.199,-2.2045,-2.2007,-2.2278,-2.2636,-2.2991,-1.7923,-1.7916,-1.7909,-1.7902,-1.7663,-1.7479,-1.7433,-1.7245,-1.7106,-1.7012,-1.7264,-1.7563,-1.7857,-1.8343,-1.8556,-1.831,-1.8581,-1.8504,-1.7902,-1.8461,-1.9192,-2.0119,-1.9892,-1.9879,-2.0118,-1.9889,-1.988,-2.0134,-1.9876,-1.9899,-2.0152,-1.9902,-2.0058,-2.0524,-2.0282,-2.0339,-2.0579,-2.0577,-2.0577,-2.057,-2.0575,-2.0564,-2.0558,-2.0516,-2.0522,-2.055,-2.0511,-2.054,-2.057,-2.0518,-2.0503,-2.0506,-2.0508,-2.0508,-2.0508,-2.0526,-2.052,-2.051,-2.0523,-2.0519,-2.0484,-2.0448,-2.0472,-2.05,-2.05,-2.05,-2.05,-2.05,-2.0495,-2.0495,-2.0504,-2.0504,-2.05,-2.0495,-2.0495,-2.0487,-2.0444,-2.0413,-2.0371,-2.0334,-2.0321,-2.0294,-2.0299,-2.0294,-2.0294,-2.0299,-2.032,-2.032,-2.0292,-2.0262,-2.023,-2.0205,-2.0164,-2.0019,-1.9801,-1.9738,-1.9656,-1.9587,-1.9546,-1.9522,-1.9512,-1.9453,-1.9424,-1.939,-1.9323,-1.9601,-2.0134,-2.0134,-2.0482,-2.1033,-2.1238,-2.133,-2.1349,-2.1552,-2.1917,-2.2295,-1.7967,-1.7923,-1.789,-1.7877,-1.7158,-1.6599,-1.6597,-1.5808,-1.5222,-1.5283,-1.5993,-1.6153,-1.5293,-1.6687,-1.7373,-1.658,-1.7298,-1.7791,-1.7796,-1.7844,-1.8275,-1.9142,-1.8356,-1.8267,-1.9077,-1.8303,-1.8294,-1.9097,-1.8284,-1.8337,-1.9166,-1.8379,-1.8921,-2.0543,-1.9675,-1.9724,-2.0472,-2.0487,-2.0487,-2.0477,-2.0487,-2.0471,-2.0497,-2.0487,-2.049,-2.05,-2.05,-2.0506,-2.0492,-2.0503,-2.0504,-2.05,-2.0504,-2.0501,-2.0506,-2.0578,-2.0546,-2.0526,-2.0581,-2.0551,-2.0494,-2.049,-2.0494,-2.05,-2.05,-2.05,-2.0497,-2.0506,-2.0494,-2.0494,-2.0492,-2.0496,-2.0499,-2.0508,-2.0508,-2.0508,-2.0508,-2.0449,-2.0394,-2.0394,-2.0341,-2.0294,-2.0294,-2.0295,-2.0302,-2.0301,-2.0366,-2.0366,-2.0301,-2.0296,-2.0265,-2.0192,-2.0199,-2.0146,-1.9998,-1.9804,-1.972,-1.9795,-1.9665,-1.9569,-1.9485,-1.9512,-1.9453,-1.939,-1.9323,-1.9305,-1.9305,-1.9305,-1.9305,-1.9381,-2.0189,-2.0486,-2.058,-2.1386,-2.1643,-2.1589,-1.6106,-1.6087,-1.6056,-1.6006,-1.578,-1.5618,-1.5628,-1.5378,-1.5204,-1.5234,-1.5429,-1.5717,-1.6066,-1.6559,-1.6759,-1.6521,-1.6739,-1.6916,-1.6958,-1.6396,-1.6467,-1.7349,-1.7754,-1.8072,-1.8325,-1.8095,-1.8081,-1.8327,-1.8036,-1.8027,-1.8286,-1.805,-1.8208,-1.8703,-1.8473,-1.8529,-1.8754,-1.8754,-1.871,-1.8682,-1.8676,-1.9032,-1.9581,-1.9597,-1.9974,-2.0504,-2.0504,-2.0492,-2.0503,-2.0506,-2.0494,-2.0503,-2.0499,-2.0536,-2.0564,-2.0584,-2.0586,-2.0566,-2.0585,-2.058,-2.0566,-2.0514,-2.0492,-2.0492,-2.0492,-2.0492,-2.0492,-2.0509,-2.0506,-2.0503,-2.0506,-2.0503,-2.05,-2.0497,-2.0497,-2.0494,-2.049,-2.0437,-2.0405,-2.0405,-2.0371,-2.0347,-2.0302,-2.0347,-2.0354,-2.0302,-2.0314,-2.0327,-2.0294,-2.0296,-2.0265,-2.0192,-2.0195,-2.018,-2.0127,-1.9928,-1.9793,-1.9744,-1.9692,-1.962,-1.9485,-1.9512,-1.9453,-1.939,-1.9323,-1.9305,-1.9305,-1.9305,-1.9305,-1.9326,-1.952,-1.9598,-1.9618,-1.9788,-2.0191,-2.0626,-1.5306,-1.5274,-1.5241,-1.5173,-1.5159,-1.516,-1.5151,-1.5152,-1.5133,-1.5197,-1.518,-1.5352,-1.5898,-1.5975,-1.5989,-1.5951,-1.5977,-1.6,-1.6029,-1.5536,-1.5613,-1.6513,-1.7098,-1.7408,-1.7413,-1.7411,-1.7416,-1.7407,-1.7385,-1.7365,-1.7342,-1.7018,-1.7235,-1.7881,-1.7582,-1.7645,-1.7967,-1.7967,-1.7942,-1.7894,-1.7907,-1.8422,-1.9204,-1.9193,-1.9741,-2.0504,-2.0508,-2.0496,-2.0503,-2.051,-2.0519,-2.0538,-2.0545,-2.0561,-2.0605,-2.0604,-2.0604,-2.0605,-2.0605,-2.0602,-2.0596,-2.0552,-2.0547,-2.0545,-2.0545,-2.0545,-2.0545,-2.0545,-2.0538,-2.0533,-2.0499,-2.0497,-2.0492,-2.0492,-2.0492,-2.0509,-2.0509,-2.046,-2.0437,-2.0433,-2.0424,-2.0379,-2.0334,-2.0386,-2.0379,-2.0334,-2.0308,-2.0294,-2.0294,-2.0304,-2.0273,-2.0192,-2.0203,-2.0188,-2.0164,-2.001,-1.9885,-1.9782,-1.9719,-1.9641,-1.9546,-1.9522,-1.9483,-1.942,-1.9338,-1.9305,-1.9305,-1.9305,-1.9305,-1.9308,-1.9248,-1.9235,-1.9184,-1.9119,-1.9377,-1.9776,-1.5279,-1.5222,-1.5168,-1.5119,-1.5111,-1.5101,-1.5092,-1.5047,-1.5049,-1.5165,-1.512,-1.5101,-1.5099,-1.5153,-1.5165,-1.5101,-1.5165,-1.5183,-1.5174,-1.5126,-1.5503,-1.6458,-1.6422,-1.6411,-1.6486,-1.6486,-1.6494,-1.6509,-1.6568,-1.6551,-1.6489,-1.582,-1.6324,-1.7748,-1.7031,-1.7054,-1.7677,-1.7757,-1.7734,-1.766,-1.7676,-1.8201,-1.8967,-1.8978,-1.9507,-2.0269,-2.0279,-2.0324,-2.0405,-2.048,-2.0549,-2.0607,-2.0594,-2.0601,-2.0602,-2.0602,-2.0599,-2.0601,-2.0604,-2.0601,-2.0601,-2.0601,-2.0599,-2.0597,-2.0594,-2.0594,-2.0594,-2.0594,-2.0609,-2.0584,-2.0525,-2.0506,-2.0504,-2.0499,-2.0519,-2.0519,-2.0519,-2.0503,-2.0503,-2.0492,-2.0454,-2.0418,-2.0399,-2.0404,-2.0399,-2.0399,-2.0334,-2.0301,-2.0294,-2.0299,-2.0269,-2.0192,-2.0205,-2.0173,-2.0117,-2.004,-1.996,-1.9892,-1.9775,-1.9675,-1.9601,-1.9546,-1.9522,-1.9497,-1.9372,-1.9305,-1.9305,-1.9305,-1.9305,-1.9289,-1.9298,-1.9251,-1.9184,-1.9115,-1.9101,-1.9087,-1.5157,-1.5133,-1.5127,-1.5094,-1.5101,-1.5073,-1.5038,-1.5003,-1.5011,-1.5046,-1.5085,-1.5094,-1.5099,-1.512,-1.5114,-1.5108,-1.5107,-1.5094,-1.5049,-1.5023,-1.5433,-1.6388,-1.5773,-1.5728,-1.6407,-1.6426,-1.6443,-1.6499,-1.6465,-1.6433,-1.6432,-1.6946,-1.7041,-1.683,-1.7324,-1.6914,-1.5912,-1.6584,-1.6487,-1.5877,-1.5919,-1.6433,-1.715,-1.7155,-1.7707,-1.8465,-1.8457,-1.8896,-1.9581,-2.0273,-2.0531,-2.0591,-2.0536,-2.0562,-2.0605,-2.0605,-2.0605,-2.0605,-2.0602,-2.0601,-2.0601,-2.0601,-2.0605,-2.0604,-2.0603,-2.0601,-2.0599,-2.0594,-2.0596,-2.0598,-2.0579,-2.0575,-2.0572,-2.0572,-2.057,-2.057,-2.057,-2.0536,-2.05,-2.05,-2.0484,-2.0454,-2.0415,-2.039,-2.0399,-2.0399,-2.0347,-2.0295,-2.0294,-2.0299,-2.0269,-2.0192,-2.0205,-2.0199,-2.0174,-2.0108,-1.9998,-1.9823,-1.9788,-1.9713,-1.9614,-1.9569,-1.9592,-1.9569,-1.9427,-1.938,-1.938,-1.932,-1.9305,-1.9289,-1.9298,-1.9251,-1.9184,-1.9115,-1.9067,-1.9019,-1.5114,-1.5094,-1.508,-1.5062,-1.504,-1.5046,-1.5006,-1.4998,-1.5006,-1.4992,-1.503,-1.5052,-1.5045,-1.5073,-1.5094,-1.5056,-1.508,-1.5078,-1.5004,-1.5384,-1.5846,-1.6318,-1.6292,-1.6464,-1.696,-1.6529,-1.6122,-1.5773,-1.6168,-1.6153,-1.5786,-1.6239,-1.6259,-1.5926,-1.6753,-1.6422,-1.5308,-1.6174,-1.6077,-1.5292,-1.533,-1.5862,-1.6647,-1.6603,-1.7135,-1.7897,-1.7946,-1.8517,-1.938,-2.023,-2.0538,-2.059,-2.0568,-2.0576,-2.0603,-2.0603,-2.0604,-2.0605,-2.0605,-2.0605,-2.0605,-2.0605,-2.0602,-2.0598,-2.0605,-2.0604,-2.0603,-2.0602,-2.0601,-2.0602,-2.0604,-2.0603,-2.0601,-2.0594,-2.0593,-2.0593,-2.0593,-2.0564,-2.0536,-2.0492,-2.0506,-2.0476,-2.04,-2.0408,-2.0404,-2.0392,-2.0347,-2.0308,-2.0294,-2.0299,-2.0269,-2.0192,-2.0195,-2.0188,-2.0155,-2.0127,-2.0029,-1.9911,-1.9858,-1.9775,-1.9649,-1.9655,-1.9633,-1.9592,-1.9536,-1.9456,-1.9394,-1.9365,-1.9335,-1.9289,-1.9298,-1.9266,-1.9235,-1.9166,-1.9101,-1.9051,-1.5085,-1.5083,-1.5076,-1.5014,-1.4992,-1.5001,-1.4998,-1.4998,-1.4995,-1.4996,-1.4996,-1.4996,-1.5,-1.5045,-1.5059,-1.4992,-1.5038,-1.5042,-1.4987,-1.567,-1.6143,-1.6282,-1.6762,-1.714,-1.736,-1.6448,-1.5719,-1.525,-1.5949,-1.5949,-1.5288,-1.5434,-1.5455,-1.5382,-1.6213,-1.6118,-1.5439,-1.6317,-1.6295,-1.569,-1.571,-1.6172,-1.6852,-1.6813,-1.7158,-1.7696,-1.7894,-1.8523,-1.9411,-2.0219,-2.0536,-2.0572,-2.0572,-2.0582,-2.057,-2.0572,-2.0593,-2.0594,-2.0599,-2.0604,-2.0605,-2.0602,-2.0598,-2.0597,-2.0604,-2.0605,-2.0605,-2.0605,-2.0604,-2.0604,-2.0605,-2.0605,-2.0605,-2.0597,-2.0594,-2.0593,-2.0593,-2.0609,-2.0586,-2.0521,-2.05,-2.0472,-2.041,-2.0415,-2.0413,-2.0396,-2.036,-2.0308,-2.0301,-2.0306,-2.0258,-2.0227,-2.0219,-2.0186,-2.0135,-2.0107,-2.0089,-2.0028,-1.9955,-1.9847,-1.9738,-1.9719,-1.9681,-1.9655,-1.962,-1.9546,-1.9452,-1.9438,-1.9394,-1.932,-1.9311,-1.9314,-1.9298,-1.9216,-1.915,-1.9134,-1.5027,-1.5065,-1.5084,-1.5003,-1.4997,-1.4999,-1.5009,-1.496,-1.4923,-1.4987,-1.5006,-1.5006,-1.5006,-1.5014,-1.4979,-1.4911,-1.4919,-1.4919,-1.4914,-1.5027,-1.5422,-1.6176,-1.5527,-1.5546,-1.6365,-1.548,-1.5384,-1.6215,-1.6214,-1.6153,-1.6077,-1.6818,-1.6743,-1.6025,-1.6876,-1.6828,-1.6122,-1.706,-1.7394,-1.7296,-1.7356,-1.7439,-1.7567,-1.7559,-1.7224,-1.687,-1.7573,-1.842,-1.9356,-2.0204,-2.051,-2.0503,-2.0503,-2.0506,-2.0511,-2.0519,-2.0547,-2.0594,-2.0594,-2.0596,-2.0597,-2.0601,-2.0598,-2.0594,-2.0596,-2.0604,-2.0605,-2.0598,-2.0603,-2.0605,-2.0605,-2.0605,-2.0605,-2.0601,-2.0597,-2.0593,-2.0593,-2.0593,-2.0591,-2.0586,-2.0542,-2.0499,-2.0484,-2.0482,-2.0464,-2.0394,-2.0388,-2.0365,-2.0302,-2.0302,-2.0308,-2.0287,-2.0289,-2.0285,-2.0269,-2.0216,-2.0144,-2.0097,-2.002,-1.9958,-1.9877,-1.98,-1.9818,-1.9849,-1.9745,-1.9688,-1.9643,-1.9596,-1.9527,-1.9471,-1.9413,-1.935,-1.9292,-1.9216,-1.9184,-1.9184,-1.5003,-1.4979,-1.499,-1.5006,-1.5012,-1.5005,-1.499,-1.4944,-1.4909,-1.4928,-1.4947,-1.4938,-1.4938,-1.4949,-1.4923,-1.4841,-1.4877,-1.4877,-1.486,-1.5311,-1.5527,-1.5433,-1.5441,-1.5451,-1.5414,-1.501,-1.5048,-1.5557,-1.5479,-1.5433,-1.5469,-1.5838,-1.5781,-1.548,-1.63,-1.6451,-1.6149,-1.7056,-1.7444,-1.7489,-1.7557,-1.7612,-1.7656,-1.7696,-1.7504,-1.7333,-1.8206,-1.8823,-1.9327,-2.0199,-2.0504,-2.0496,-2.0499,-2.0506,-2.0497,-2.0506,-2.0514,-2.054,-2.0545,-2.0545,-2.0545,-2.0531,-2.0547,-2.0545,-2.0588,-2.0597,-2.0603,-2.0605,-2.0605,-2.0605,-2.0605,-2.0605,-2.0605,-2.0605,-2.0601,-2.0593,-2.0593,-2.0593,-2.0591,-2.0605,-2.0533,-2.05,-2.0506,-2.0508,-2.0487,-2.0468,-2.0464,-2.0429,-2.0363,-2.0352,-2.0334,-2.0295,-2.0306,-2.0269,-2.0238,-2.0203,-2.0188,-2.0164,-2.0079,-2.0,-1.99,-1.9866,-1.9873,-1.9915,-1.9849,-1.9782,-1.9745,-1.9675,-1.9609,-1.9541,-1.9518,-1.9475,-1.9413,-1.9338,-1.9292,-1.9246]}]]